[[{"header":{"parameterUnit":"m.s-1","parameterCategory":1,"la1":30.6,"la2":29.2853,"lo1":-89.7004,"lo2":-87.6739,"dy":0.0162,"dx":0.0183,"nx":112,"ny":82,"refTime":"2023-09-11T18:00:00:Z","depth":0,"parameterNumber":2,"parameterNumberName":"U-component_of_WINDS"},"data":[0.0,0.0,0.0,0.0,0.0,0.0,0.0,0.0,0.0,0.0,0.0,0.0,0.0,0.0,0.0,0.0,0.0,0.0,0.0,0.0,0.0,0.0,0.0,0.0,0.0,0.0,0.0,0.0,0.0,0.0,0.0,0.0,0.0,0.0,0.0,0.0,0.0,0.0,0.0,0.0,0.0,0.0,0.0,0.0,0.0,0.0,0.0,0.0,0.0,0.0,0.0,0.0,0.0,0.0,0.0,0.0,0.0,0.0,0.0,0.0,0.0,0.0,0.0,0.0,0.0,0.0,0.0,0.0,0.0,0.0,0.0,0.0,0.0,0.0,0.0,0.0,0.0,0.0,0.0,0.0,0.0,0.0,0.0,0.0,0.0,0.0,0.0,0.0,0.0,0.0,-1.3318,-1.4292,-1.5629,-1.6393,-1.6494,-1.6393,-1.6204,-1.5642,0.0,0.0,0.0,0.0,0.0,0.0,0.0,0.0,0.0,0.0,0.0,0.0,0.0,0.0,0.0,0.0,0.0,0.0,0.0,0.0,0.0,0.0,0.0,0.0,0.0,0.0,0.0,0.0,0.0,0.0,0.0,0.0,0.0,0.0,0.0,0.0,0.0,0.0,0.0,0.0,0.0,0.0,0.0,0.0,0.0,0.0,0.0,0.0,0.0,0.0,0.0,0.0,0.0,0.0,0.0,0.0,0.0,0.0,0.0,0.0,0.0,0.0,0.0,0.0,0.0,0.0,0.0,0.0,0.0,0.0,0.0,0.0,0.0,0.0,0.0,0.0,0.0,0.0,0.0,0.0,0.0,0.0,0.0,0.0,0.0,0.0,0.0,0.0,0.0,0.0,0.0,0.0,0.0,0.0,0.0,0.0,0.0,0.0,0.0,0.0,0.0,0.0,0.0,0.0,-1.2845,-1.4765,-1.5337,-1.5629,-1.592,-1.5724,-1.535,-1.4879,0.0,0.0,0.0,0.0,0.0,0.0,0.0,0.0,0.0,0.0,0.0,0.0,0.0,0.0,0.0,0.0,0.0,0.0,0.0,0.0,0.0,0.0,0.0,0.0,0.0,0.0,0.0,0.0,0.0,0.0,0.0,0.0,0.0,0.0,0.0,0.0,0.0,0.0,0.0,0.0,0.0,0.0,0.0,0.0,0.0,0.0,0.0,0.0,0.0,0.0,0.0,0.0,0.0,0.0,0.0,0.0,0.0,0.0,0.0,0.0,0.0,0.0,0.0,0.0,0.0,0.0,0.0,0.0,0.0,0.0,0.0,0.0,0.0,0.0,0.0,0.0,0.0,0.0,0.0,0.0,0.0,0.0,0.0,0.0,0.0,0.0,0.0,0.0,0.0,0.0,0.0,0.0,0.0,0.0,0.0,0.0,0.0,0.0,0.0,0.0,0.0,0.0,0.0,-1.1878,-1.2845,-1.4094,-1.4478,-1.4669,-1.4771,-1.4478,-1.419,-1.3902,-1.3908,0.0,0.0,0.0,0.0,0.0,0.0,0.0,0.0,0.0,0.0,0.0,0.0,0.0,0.0,0.0,0.0,0.0,0.0,0.0,0.0,0.0,0.0,0.0,0.0,0.0,0.0,0.0,0.0,0.0,0.0,0.0,0.0,0.0,0.0,0.0,0.0,0.0,0.0,0.0,0.0,0.0,0.0,0.0,0.0,0.0,0.0,0.0,0.0,0.0,0.0,0.0,0.0,0.0,0.0,0.0,0.0,0.0,0.0,0.0,0.0,0.0,0.0,0.0,0.0,0.0,0.0,0.0,0.0,0.0,0.0,0.0,0.0,0.0,0.0,0.0,0.0,0.0,0.0,0.0,0.0,0.0,0.0,0.0,0.0,0.0,0.0,0.0,0.0,0.0,0.0,0.0,0.0,0.0,0.0,0.0,0.0,0.0,0.0,0.0,0.0,0.0,0.0,-1.1975,-1.2651,-1.3227,-1.3516,-1.3619,-1.3522,-1.3323,-1.313,-1.2737,-1.2851,0.0,0.0,0.0,0.0,0.0,0.0,0.0,0.0,0.0,0.0,0.0,0.0,0.0,0.0,0.0,0.0,0.0,0.0,0.0,0.0,0.0,0.0,0.0,0.0,0.0,0.0,0.0,0.0,0.0,0.0,0.0,0.0,0.0,0.0,0.0,0.0,0.0,0.0,0.0,0.0,0.0,0.0,0.0,0.0,0.0,0.0,0.0,0.0,0.0,0.0,0.0,0.0,0.0,0.0,0.0,0.0,0.0,0.0,0.0,0.0,0.0,0.0,0.0,0.0,0.0,0.0,0.0,0.0,0.0,0.0,0.0,0.0,0.0,0.0,0.0,0.0,0.0,0.0,0.0,0.0,0.0,0.0,0.0,0.0,0.0,0.0,0.0,0.0,0.0,0.0,0.0,0.0,0.0,0.0,0.0,0.0,0.0,0.0,0.0,0.0,0.0,0.0,-1.1292,-1.1975,-1.2657,-1.2856,-1.2759,-1.2565,-1.2467,-1.2273,-1.178,-1.217,0.0,0.0,0.0,0.0,0.0,0.0,0.0,0.0,0.0,0.0,0.0,0.0,0.0,0.0,0.0,0.0,0.0,0.0,0.0,0.0,0.0,0.0,0.0,0.0,0.0,0.0,0.0,0.0,0.0,0.0,0.0,0.0,0.0,0.0,0.0,0.0,0.0,0.0,0.0,0.0,0.0,0.0,0.0,0.0,0.0,0.0,0.0,0.0,0.0,0.0,0.0,0.0,0.0,0.0,0.0,0.0,0.0,0.0,0.0,0.0,0.0,0.0,0.0,0.0,0.0,0.0,0.0,0.0,0.0,0.0,0.0,0.0,0.0,0.0,0.0,0.0,0.0,0.0,0.0,0.0,0.0,0.0,0.0,0.0,0.0,0.0,0.0,0.0,0.0,0.0,0.0,0.0,0.0,0.0,0.0,0.0,0.0,0.0,0.0,0.0,0.0,0.0,-1.0806,-1.1194,-1.1487,-1.1585,-1.1487,-1.1389,-1.1389,-1.1292,-1.1096,0.0,0.0,0.0,0.0,0.0,0.0,0.0,0.0,0.0,0.0,0.0,0.0,0.0,0.0,0.0,0.0,0.0,0.0,0.0,0.0,0.0,0.0,0.0,0.0,0.0,0.0,0.0,0.0,0.0,0.0,0.0,0.0,0.0,0.0,0.0,0.0,0.0,0.0,0.0,0.0,0.0,0.0,0.0,0.0,0.0,0.0,0.0,0.0,0.0,0.0,0.0,0.0,0.0,0.0,0.0,0.0,0.0,0.0,0.0,0.0,0.0,0.0,0.0,0.0,0.0,0.0,0.0,0.0,0.0,0.0,0.0,0.0,0.0,0.0,0.0,0.0,0.0,0.0,0.0,0.0,0.0,0.0,0.0,0.0,0.0,0.0,0.0,0.0,0.0,0.0,0.0,0.0,0.0,0.0,0.0,0.0,0.0,0.0,0.0,0.0,0.0,0.0,-1.0019,-1.0314,-1.0609,-1.0703,-1.0703,-1.0609,-1.0507,-1.0703,-1.0801,-1.0703,0.0,0.0,0.0,0.0,0.0,0.0,0.0,0.0,0.0,0.0,0.0,0.0,0.0,0.0,0.0,0.0,0.0,0.0,0.0,0.0,0.0,0.0,0.0,0.0,0.0,0.0,0.0,0.0,0.0,0.0,0.0,0.0,0.0,0.0,0.0,0.0,0.0,0.0,0.0,0.0,0.0,0.0,0.0,0.0,0.0,0.0,0.0,0.0,0.0,0.0,0.0,0.0,0.0,0.0,0.0,0.0,0.0,0.0,0.0,0.0,0.0,0.0,0.0,0.0,0.0,0.0,0.0,0.0,0.0,0.0,0.0,0.0,0.0,0.0,0.0,0.0,0.0,0.0,0.0,0.0,0.0,0.0,0.0,0.0,0.0,0.0,0.0,0.0,0.0,0.0,0.0,0.0,0.0,0.0,0.0,0.0,0.0,0.0,0.0,0.0,0.0,0.0,-0.992,-1.0019,-1.0117,-1.0314,-1.0413,-1.0314,-1.0019,-1.0511,-1.0703,0.0,0.0,0.0,0.0,0.0,0.0,0.0,0.0,0.0,0.0,0.0,0.0,0.0,0.0,0.0,0.0,0.0,0.0,0.0,0.0,0.0,0.0,0.0,0.0,0.0,0.0,0.0,0.0,0.0,0.0,0.0,0.0,0.0,0.0,0.0,0.0,0.0,0.0,0.0,0.0,0.0,0.0,0.0,0.0,0.0,0.0,0.0,0.0,0.0,0.0,0.0,0.0,0.0,0.0,0.0,0.0,0.0,0.0,0.0,0.0,0.0,0.0,0.0,0.0,0.0,0.0,0.0,0.0,0.0,0.0,0.0,0.0,0.0,0.0,0.0,0.0,0.0,0.0,0.0,0.0,0.0,0.0,0.0,0.0,0.0,0.0,0.0,0.0,0.0,0.0,0.0,0.0,0.0,0.0,0.0,0.0,0.0,0.0,0.0,0.0,0.0,0.0,0.0,-0.9727,-0.9727,-0.9723,-0.9821,-0.9821,-0.9826,-0.9727,-1.0216,-1.0511,-1.0413,0.0,0.0,0.0,0.0,0.0,0.0,0.0,0.0,0.0,0.0,0.0,0.0,0.0,0.0,0.0,0.0,0.0,0.0,0.0,0.0,0.0,0.0,0.0,0.0,0.0,0.0,0.0,0.0,0.0,0.0,0.0,0.0,0.0,0.0,0.0,0.0,0.0,0.0,0.0,0.0,0.0,0.0,0.0,0.0,0.0,0.0,0.0,0.0,0.0,0.0,0.0,0.0,0.0,0.0,0.0,0.0,0.0,0.0,0.0,0.0,0.0,0.0,0.0,0.0,0.0,0.0,0.0,0.0,0.0,0.0,0.0,0.0,0.0,0.0,0.0,0.0,0.0,0.0,0.0,0.0,0.0,0.0,0.0,0.0,0.0,0.0,0.0,0.0,0.0,0.0,0.0,0.0,0.0,0.0,0.0,0.0,0.0,0.0,0.0,0.0,0.0,0.0,-0.9628,-0.9628,-0.9628,-0.9628,-0.9628,-0.9628,-0.9628,-1.0019,-1.0216,-1.0216,0.0,0.0,0.0,0.0,0.0,0.0,0.0,0.0,0.0,0.0,0.0,0.0,0.0,0.0,0.0,0.0,0.0,0.0,0.0,0.0,0.0,0.0,0.0,0.0,0.0,0.0,0.0,0.0,0.0,0.0,0.0,0.0,0.0,0.0,0.0,0.0,0.0,0.0,0.0,0.0,0.0,0.0,0.0,0.0,0.0,0.0,0.0,0.0,0.0,0.0,0.0,0.0,0.0,0.0,0.0,0.0,0.0,0.0,0.0,0.0,0.0,0.0,0.0,0.0,0.0,0.0,0.0,0.0,0.0,0.0,0.0,0.0,0.0,0.0,0.0,0.0,0.0,0.0,0.0,0.0,0.0,0.0,0.0,0.0,0.0,0.0,0.0,0.0,0.0,0.0,0.0,0.0,0.0,0.0,0.0,0.0,0.0,0.0,0.0,0.0,0.0,0.0,-0.9529,-0.9529,-0.9529,-0.9529,-0.9529,-0.9529,-0.9529,-0.9838,-0.9945,-0.9945,0.0,0.0,0.0,0.0,0.0,0.0,0.0,0.0,0.0,0.0,0.0,0.0,0.0,0.0,0.0,0.0,0.0,0.0,0.0,0.0,0.0,0.0,0.0,0.0,0.0,0.0,0.0,0.0,0.0,0.0,0.0,0.0,0.0,0.0,0.0,0.0,0.0,0.0,0.0,0.0,0.0,0.0,0.0,0.0,0.0,0.0,0.0,0.0,0.0,0.0,0.0,0.0,0.0,0.0,0.0,0.0,0.0,0.0,0.0,0.0,-0.7338,-0.7441,0.0,0.0,0.0,0.0,0.0,0.0,0.0,0.0,0.0,0.0,0.0,0.0,0.0,0.0,0.0,0.0,0.0,0.0,0.0,0.0,0.0,0.0,0.0,0.0,0.0,0.0,0.0,0.0,0.0,0.0,0.0,0.0,0.0,0.0,0.0,0.0,0.0,0.0,0.0,0.0,-0.9335,-0.913,-0.8924,-0.8924,-0.8924,-0.8924,-0.8924,-0.9349,-0.9629,-0.9629,-0.9965,0.0,0.0,0.0,0.0,0.0,0.0,0.0,0.0,0.0,0.0,0.0,0.0,0.0,0.0,0.0,0.0,0.0,0.0,0.0,0.0,0.0,0.0,0.0,0.0,0.0,0.0,0.0,0.0,0.0,0.0,0.0,0.0,0.0,0.0,0.0,0.0,0.0,0.0,0.0,0.0,0.0,0.0,0.0,0.0,0.0,0.0,0.0,0.0,0.0,0.0,0.0,0.0,0.0,0.0,0.0,0.0,0.0,0.0,0.0,-0.7135,-0.7238,0.0,0.0,0.0,0.0,0.0,0.0,0.0,0.0,0.0,0.0,0.0,0.0,0.0,0.0,0.0,0.0,0.0,0.0,0.0,0.0,0.0,0.0,0.0,0.0,0.0,0.0,0.0,0.0,0.0,0.0,0.0,0.0,0.0,0.0,0.0,0.0,0.0,0.0,0.0,0.0,-0.8944,-0.8643,-0.8567,-0.8645,-0.8452,-0.835,-0.835,-0.8522,-0.8567,-0.8674,-0.896,0.0,0.0,0.0,0.0,0.0,0.0,0.0,0.0,0.0,0.0,0.0,0.0,0.0,0.0,0.0,0.0,0.0,0.0,0.0,0.0,0.0,0.0,0.0,0.0,0.0,0.0,0.0,0.0,0.0,0.0,0.0,0.0,0.0,0.0,0.0,0.0,0.0,0.0,0.0,0.0,0.0,0.0,0.0,0.0,0.0,0.0,0.0,0.0,0.0,0.0,0.0,0.0,0.0,-0.6742,-0.6542,-0.6237,-0.6237,-0.6237,-0.6237,-0.6639,-0.6939,-0.7036,-0.7235,0.0,0.0,0.0,0.0,0.0,0.0,0.0,0.0,0.0,0.0,0.0,0.0,0.0,0.0,0.0,0.0,0.0,0.0,0.0,0.0,0.0,0.0,0.0,0.0,-0.4683,-0.5187,-0.5388,0.0,0.0,0.0,0.0,0.0,0.0,0.0,0.0,0.0,0.0,0.0,-0.8282,-0.8087,-0.803,-0.8046,-0.7849,-0.7641,-0.7641,-0.7551,-0.7563,-0.7781,-0.7806,-0.803,0.0,0.0,0.0,0.0,0.0,0.0,0.0,0.0,0.0,0.0,0.0,0.0,0.0,0.0,0.0,0.0,0.0,0.0,0.0,0.0,0.0,0.0,0.0,0.0,0.0,0.0,0.0,0.0,0.0,0.0,0.0,0.0,-0.8038,-0.8038,0.0,0.0,0.0,0.0,0.0,0.0,0.0,0.0,0.0,0.0,0.0,0.0,0.0,-0.7335,-0.7335,-0.7042,-0.6739,-0.6537,-0.6239,-0.5939,-0.5737,-0.5737,-0.5536,-0.534,-0.5441,0.0,-0.6537,-0.6339,0.0,0.0,0.0,0.0,0.0,0.0,0.0,0.0,0.0,0.0,0.0,0.0,0.0,0.0,0.0,0.0,0.0,0.0,0.0,0.0,0.0,0.0,-0.3923,-0.3914,-0.4334,-0.4752,0.0,-0.5424,-0.5877,-0.5877,-0.617,0.0,0.0,0.0,0.0,0.0,0.0,0.0,-0.7293,-0.7089,-0.6887,-0.6904,-0.6907,-0.6904,-0.6904,-0.6888,-0.7163,-0.7495,-0.7604,-0.7773,-0.7993,-0.81,0.0,0.0,0.0,0.0,0.0,0.0,0.0,0.0,0.0,0.0,0.0,0.0,0.0,0.0,0.0,0.0,0.0,0.0,0.0,0.0,0.0,0.0,0.0,0.0,0.0,0.0,0.0,0.0,0.0,-0.7743,-0.7743,-0.754,-0.754,-0.754,0.0,0.0,0.0,0.0,0.0,0.0,0.0,0.0,0.0,-0.6736,-0.6639,-0.6539,-0.6539,-0.6239,-0.6039,-0.5739,-0.5641,-0.5338,-0.4933,-0.4933,-0.4732,-0.4537,-0.4232,-0.4228,-0.463,-0.5144,-0.5347,-0.5541,0.0,0.0,0.0,0.0,-0.3731,-0.3026,-0.2423,-0.2034,-0.185,-0.1762,0.0,0.0,0.0,0.0,0.0,0.0,0.0,-0.2634,0.0,0.0,-0.3928,-0.4066,-0.447,-0.4786,-0.4894,-0.5222,-0.5426,0.0,-0.5545,-0.5719,-0.5931,0.0,0.0,0.0,0.0,-0.6711,-0.6781,-0.658,-0.6391,-0.6456,-0.6349,-0.624,-0.624,-0.6062,-0.6308,-0.6754,-0.68,-0.7051,-0.7487,-0.7601,-0.749,0.0,0.0,0.0,0.0,0.0,0.0,0.0,0.0,0.0,0.0,0.0,0.0,0.0,0.0,0.0,0.0,0.0,0.0,0.0,0.0,0.0,0.0,0.0,0.0,0.0,0.0,0.0,0.0,-0.7347,-0.7244,-0.6939,-0.6939,-0.6936,0.0,0.0,0.0,0.0,0.0,0.0,-0.6342,-0.6342,-0.6239,-0.5934,-0.5737,-0.5539,-0.5438,-0.5336,-0.5035,-0.4836,-0.4736,-0.4433,-0.4029,-0.3927,-0.3728,-0.3429,-0.3024,-0.2822,-0.2722,-0.3737,-0.4243,-0.4239,-0.4239,-0.4239,-0.4239,-0.3635,-0.3038,-0.254,-0.2136,-0.1854,-0.1674,-0.1682,-0.1704,-0.1725,-0.1711,0.0,0.0,0.0,0.0,-0.2693,-0.2693,-0.3253,-0.4012,-0.4236,-0.453,-0.4853,-0.507,-0.523,-0.5251,0.0,-0.5216,-0.5279,-0.5606,0.0,0.0,0.0,0.0,-0.606,-0.625,-0.6044,-0.5966,-0.6044,-0.5826,-0.5712,-0.5712,-0.5603,-0.5714,-0.6274,-0.6386,-0.6604,-0.7154,-0.7154,-0.7154,-0.7154,0.0,0.0,0.0,0.0,0.0,0.0,0.0,0.0,0.0,0.0,0.0,0.0,0.0,0.0,0.0,0.0,0.0,0.0,0.0,0.0,0.0,0.0,0.0,0.0,0.0,0.0,0.0,0.0,0.0,-0.6142,-0.6237,0.0,0.0,0.0,0.0,-0.534,-0.5539,-0.5436,-0.4935,-0.5138,-0.5037,-0.4529,-0.4529,-0.4331,-0.4133,-0.4133,-0.393,-0.3627,-0.3425,-0.3124,-0.2825,-0.2623,-0.232,-0.2117,-0.2117,-0.1817,-0.1414,-0.222,-0.2623,-0.2927,-0.2927,-0.2927,-0.2927,-0.2826,-0.2551,-0.2175,-0.2071,-0.1886,-0.1707,-0.1736,-0.1765,-0.179,-0.1789,-0.179,0.0,0.0,-0.2241,-0.2693,-0.2693,-0.3366,-0.4035,-0.436,-0.4693,-0.5029,-0.5367,-0.5371,-0.5347,0.0,-0.5312,-0.5373,-0.5373,0.0,-0.5487,-0.5487,-0.5483,-0.5481,-0.5485,-0.5487,-0.5489,-0.5493,-0.5382,-0.5382,-0.5382,-0.5601,-0.5935,-0.6274,-0.6495,-0.6824,-0.7154,-0.7154,-0.7154,-0.7154,-0.7269,0.0,0.0,0.0,0.0,0.0,0.0,0.0,0.0,0.0,0.0,0.0,0.0,0.0,0.0,0.0,0.0,0.0,0.0,0.0,0.0,0.0,0.0,0.0,0.0,0.0,0.0,0.0,0.0,-0.5033,-0.5031,0.0,-0.4634,-0.4636,-0.4636,-0.4435,-0.4535,-0.4433,-0.4029,-0.3929,-0.3728,-0.3428,-0.3226,-0.3025,-0.2924,-0.2924,-0.2823,-0.252,-0.252,-0.2219,-0.1716,-0.1716,-0.1515,-0.1211,-0.1009,-0.0909,-0.0707,-0.0808,-0.1312,-0.202,-0.202,-0.2221,-0.2527,-0.2352,-0.2269,-0.2077,-0.1892,-0.1815,-0.1738,-0.1547,-0.1451,-0.1458,-0.1234,-0.1234,-0.1234,-0.1234,-0.1683,-0.2132,-0.2132,-0.2691,-0.3249,-0.381,-0.4032,-0.4254,-0.4931,-0.5043,-0.5146,-0.5339,-0.5359,-0.5382,-0.5382,-0.5382,-0.5382,-0.5382,-0.5382,-0.5382,-0.5382,-0.5382,-0.5382,-0.5382,-0.5382,-0.5382,-0.5382,-0.5601,-0.5935,-0.6274,-0.6606,-0.6824,-0.7154,-0.7154,-0.719,-0.7271,-0.7312,-0.7413,0.0,0.0,0.0,0.0,0.0,0.0,0.0,0.0,0.0,0.0,0.0,0.0,0.0,0.0,0.0,0.0,0.0,0.0,0.0,0.0,0.0,0.0,0.0,0.0,0.0,-0.483,-0.4529,-0.3726,-0.3626,-0.3626,-0.3226,-0.3226,-0.3327,-0.3226,-0.3226,-0.3226,-0.2923,-0.2821,-0.2621,-0.2322,-0.2119,-0.1917,-0.1817,-0.1817,-0.1817,-0.1614,-0.1513,-0.1312,-0.0909,-0.0808,-0.0707,-0.0505,-0.0303,-0.0303,-0.0202,-0.0101,-0.0505,-0.1314,-0.1314,-0.1622,-0.2143,-0.1963,-0.1986,-0.1905,-0.1616,-0.1529,-0.1436,-0.1118,-0.1009,-0.0897,-0.0673,-0.0561,-0.0561,-0.0561,-0.1009,-0.1458,-0.1458,-0.1906,-0.2465,-0.3026,-0.3248,-0.347,-0.4145,-0.437,-0.4482,-0.4707,-0.5158,-0.5382,-0.5382,-0.5382,-0.5382,-0.5382,-0.5382,-0.5382,-0.5382,-0.5382,-0.5382,-0.5382,-0.5382,-0.5382,-0.5382,-0.5714,-0.6049,-0.6274,-0.6604,-0.6953,-0.7214,-0.7217,-0.7274,-0.7394,-0.7437,-0.7559,-0.7758,0.0,0.0,0.0,0.0,0.0,0.0,0.0,0.0,0.0,0.0,0.0,0.0,0.0,0.0,0.0,0.0,0.0,0.0,0.0,0.0,0.0,0.0,0.0,-0.3123,-0.3123,-0.2821,-0.2118,-0.2219,-0.2118,-0.1613,-0.1815,-0.1815,-0.1613,-0.1815,-0.1815,-0.1613,-0.1815,-0.1716,-0.1212,-0.1212,-0.101,-0.0808,-0.0808,-0.0808,-0.0808,-0.0505,-0.0404,-0.0404,-0.0101,0.0,0.0,0.0,0.0,0.0,0.0,-0.0303,-0.0809,-0.0809,-0.1125,-0.1662,-0.1665,-0.1701,-0.1755,-0.1338,-0.1121,-0.0785,-0.0449,-0.0336,-0.0336,0.0,0.0112,0.0112,0.0112,-0.0336,-0.0897,-0.0897,-0.1346,-0.1794,-0.2129,-0.2352,-0.2688,-0.3025,-0.3362,-0.3587,-0.3587,-0.4484,-0.527,-0.5382,-0.5382,-0.5382,-0.5382,-0.5382,0.0,-0.5382,-0.5382,-0.5382,-0.5382,-0.5382,-0.5382,-0.5382,-0.594,-0.6277,-0.6279,-0.6829,-0.7214,-0.7336,-0.7342,-0.7399,-0.7521,-0.7644,-0.7761,-0.7872,0.0,0.0,0.0,0.0,0.0,0.0,0.0,0.0,0.0,0.0,0.0,0.0,0.0,0.0,0.0,0.0,0.0,0.0,0.0,0.0,0.0,-0.101,-0.1312,-0.2218,-0.2319,-0.2118,-0.1515,-0.1515,-0.1414,-0.101,-0.1111,-0.1111,-0.101,-0.1111,-0.1111,-0.101,-0.0908,-0.0808,-0.0606,-0.0404,-0.0303,-0.0202,-0.0202,-0.0202,-0.0202,0.0101,0.0202,0.0202,0.0505,0.0606,0.0606,0.0606,0.0606,0.0607,0.0615,0.0412,0.0,-0.0618,-0.1034,-0.1355,-0.1389,-0.1093,-0.078,-0.0672,-0.0336,0.0112,0.0449,0.0673,0.0897,0.1234,0.1346,0.1346,0.1346,0.0897,0.0449,0.0449,0.0,-0.0561,-0.0785,-0.1121,-0.1569,-0.2016,-0.2353,-0.2691,-0.2913,-0.3251,-0.3589,-0.4036,-0.4147,-0.4148,-0.4372,-0.437,0.0,-0.4931,-0.5043,-0.5156,-0.5382,-0.5382,-0.5491,-0.5712,-0.6049,-0.642,-0.6721,-0.7061,-0.7339,-0.7464,-0.7467,-0.7527,-0.7649,-0.7766,-0.7839,0.0,0.0,0.0,0.0,0.0,0.0,0.0,0.0,0.0,0.0,0.0,0.0,0.0,0.0,0.0,0.0,0.0,0.0,0.0,0.0,0.0,0.0,0.0303,0.0303,-0.0302,-0.0706,-0.0808,-0.0404,-0.0404,-0.0303,-0.0101,-0.0101,-0.0101,-0.0101,-0.0101,-0.0101,-0.0101,0.0,0.0101,0.0101,0.0303,0.0303,0.0303,0.0303,0.0404,0.0505,0.0707,0.0808,0.111,0.1211,0.1414,0.1515,0.1515,0.1522,0.1534,0.155,0.1355,0.0944,0.0,0.0,0.0,0.0,-0.0222,0.0112,0.0224,0.0561,0.1009,0.1346,0.157,0.1795,0.202,0.2132,0.2132,0.2132,0.1795,0.1234,0.1234,0.0785,0.0336,0.0224,-0.0112,-0.0448,-0.0784,-0.1121,-0.1346,-0.1569,-0.1569,0.0,-0.2017,-0.269,-0.3253,-0.3477,-0.3586,-0.3808,-0.4258,-0.448,-0.4704,-0.5156,-0.5266,-0.5489,-0.5822,-0.6312,0.0,0.0,0.0,-0.7467,-0.7589,-0.7641,0.0,0.0,0.0,-0.763,-0.7508,-0.7508,0.0,0.0,-0.775,-0.7872,0.0,0.0,0.0,0.0,0.0,0.0,0.0,0.0,0.0,0.0,0.0,0.0,0.0,0.0,0.0,0.0,0.1412,0.1916,0.2117,0.1413,0.0808,0.101,0.101,0.101,0.101,0.101,0.101,0.101,0.101,0.101,0.101,0.101,0.0,0.0,0.0,0.101,0.101,0.101,0.1111,0.1313,0.1414,0.1615,0.2117,0.2118,0.232,0.2623,0.2628,0.2655,0.2801,0.2812,0.253,0.1928,0.0962,0.0432,0.022,0.0446,0.0785,0.1121,0.1346,0.0,0.0,0.2244,0.2356,0.2468,0.2693,0.2806,0.2806,0.2806,0.2356,0.1907,0.1907,0.1458,0.1009,0.1009,0.0785,0.0449,0.0449,0.0336,0.0112,0.0112,0.0112,0.0112,0.0112,-0.1234,-0.2357,-0.2469,-0.2691,-0.3026,-0.3362,-0.3696,-0.4142,-0.4706,0.0,0.0,-0.5725,-0.6372,-0.6782,-0.6921,-0.7259,-0.749,-0.7597,-0.7696,-0.7627,-0.7263,-0.7263,-0.7141,-0.6778,-0.6778,-0.6653,-0.6653,-0.7383,-0.7627,0.0,0.0,0.0,0.0,0.0,0.0,0.0,0.0,0.0,0.0,0.0,0.0,0.0,0.0,0.0,0.2321,0.2722,0.3022,0.3225,0.3327,0.3025,0.222,0.2119,0.2119,0.2119,0.2119,0.2119,0.2119,0.2119,0.2119,0.2119,0.2119,0.2119,0.2119,0.2119,0.2119,0.2119,0.2119,0.2119,0.222,0.2423,0.0,0.3022,0.3225,0.3428,0.3734,0.3788,0.3817,0.3943,0.406,0.3822,0.3433,0.1858,0.1099,0.1116,0.1457,0.1683,0.1908,0.202,0.2354,0.2802,0.2914,0.3138,0.3363,0.3363,0.3475,0.0,0.3475,0.3029,0.2581,0.2581,0.2132,0.157,0.157,0.1346,0.1121,0.1121,0.0897,0.0673,0.0673,0.0673,0.0673,0.0673,0.0,-0.0561,-0.0785,-0.1121,-0.1569,-0.2353,-0.2912,-0.3474,-0.4148,-0.4706,-0.518,-0.5475,-0.5956,-0.6498,-0.7138,-0.7258,-0.7332,-0.7113,-0.7133,-0.6898,-0.6648,-0.6648,-0.628,-0.5667,-0.5667,-0.5544,-0.5295,-0.6528,-0.6898,0.0,0.0,0.0,0.0,0.0,0.0,0.0,0.0,0.0,0.0,0.0,0.1613,0.0,0.0,0.3123,0.3527,0.3929,0.4232,0.4332,0.4634,0.4433,0.3328,0.3228,0.3228,0.3228,0.3228,0.3228,0.3228,0.3228,0.3228,0.3228,0.3228,0.3228,0.3228,0.3228,0.3228,0.3228,0.3228,0.3226,0.3426,0.3527,0.3828,0.4232,0.4332,0.4533,0.4841,0.4928,0.4994,0.5049,0.4903,0.4777,0.4364,0.311,0.2449,0.2242,0.2354,0.2578,0.2691,0.2803,0.3139,0.3362,0.3362,0.3475,0.3587,0.3587,0.3587,0.3587,0.3587,0.3141,0.2693,0.2693,0.2244,0.1795,0.1795,0.1683,0.157,0.157,0.1458,0.1346,0.1346,0.1346,0.1346,0.1346,0.1121,0.0785,0.0336,0.0,-0.0448,-0.1009,-0.1681,-0.2251,-0.3072,-0.3636,-0.4339,-0.4989,-0.5735,-0.6173,-0.6559,-0.6743,-0.665,-0.616,-0.616,-0.5914,-0.5421,-0.5174,-0.4928,-0.4435,-0.431,-0.4064,-0.394,-0.4679,-0.5049,0.0,0.0,0.0,0.0,0.0,0.0,0.0,0.0,0.131,0.1915,0.2417,0.292,0.3525,0.413,0.4531,0.463,0.5035,0.534,0.534,0.5536,0.5436,0.4533,0.4332,0.4334,0.4334,0.4334,0.4334,0.4334,0.4334,0.4334,0.4334,0.4334,0.4334,0.4334,0.4334,0.4334,0.4334,0.4334,0.4433,0.463,0.463,0.4933,0.534,0.534,0.555,0.5773,0.5904,0.6022,0.6029,0.5645,0.5262,0.4929,0.437,0.3811,0.325,0.325,0.325,0.325,0.3475,0.3587,0.3587,0.3587,0.3587,0.3587,0.3587,0.3587,0.3587,0.3587,0.3141,0.2693,0.2693,0.2244,0.1795,0.1795,0.1795,0.1795,0.1795,0.1795,0.1795,0.1795,0.1795,0.1795,0.1795,0.1795,0.1683,0.1121,0.0785,0.0449,0.0224,-0.0451,-0.1139,-0.1964,-0.2663,-0.3377,-0.4249,-0.5152,-0.571,-0.5535,-0.5788,-0.5665,-0.5051,-0.4928,-0.4682,-0.4069,-0.3821,-0.3451,-0.308,-0.2833,-0.271,-0.2588,-0.2588,-0.3081,-0.0808,-0.0303,0.0404,0.1109,0.1412,0.1613,0.0,0.0,0.2724,0.3225,0.3629,0.4031,0.4836,0.5039,0.5238,0.5434,0.5739,0.5942,0.5942,0.6137,0.6237,0.6137,0.5737,0.5434,0.5434,0.5434,0.5434,0.5434,0.5434,0.5434,0.5434,0.5434,0.5434,0.5434,0.5434,0.5434,0.5434,0.5434,0.5436,0.5434,0.5434,0.5636,0.5942,0.5942,0.6095,0.6508,0.6414,0.6354,0.6241,0.5926,0.5596,0.526,0.4704,0.4258,0.3924,0.3587,0.3587,0.3587,0.3587,0.3587,0.3587,0.3587,0.3587,0.3587,0.3587,0.3587,0.3587,0.3587,0.3141,0.2693,0.2693,0.2244,0.1795,0.1795,0.1795,0.1795,0.1795,0.1795,0.1795,0.1795,0.1795,0.1795,0.1795,0.1795,0.1795,0.1683,0.1458,0.1121,0.0785,0.0115,-0.0584,-0.1043,-0.1767,-0.2626,-0.336,-0.3898,-0.4182,-0.4066,-0.4189,-0.4066,-0.3696,-0.3448,-0.308,-0.2714,-0.2714,-0.2343,-0.1726,-0.1726,-0.148,-0.1235,-0.1235,-0.1728,0.111,0.1413,0.0,0.0,0.2722,0.3124,0.3527,0.3728,0.4031,0.4435,0.4734,0.5037,0.5541,0.5839,0.5937,0.0,0.6137,0.6239,0.6239,0.6337,0.6437,0.6437,0.6234,0.6034,0.6034,0.6034,0.6034,0.6034,0.6034,0.6034,0.6034,0.6034,0.6034,0.6034,0.6034,0.6034,0.6034,0.6034,0.6034,0.6034,0.6034,0.6173,0.6342,0.6141,0.6238,0.6305,0.629,0.6172,0.6047,0.5822,0.5487,0.5039,0.4704,0.4258,0.3924,0.3699,0.3587,0.3587,0.3587,0.3587,0.3587,0.3587,0.3587,0.3587,0.3587,0.3587,0.3587,0.3362,0.3029,0.2693,0.2469,0.2132,0.1795,0.1795,0.1795,0.1795,0.1795,0.1795,0.1795,0.1795,0.1795,0.1795,0.1795,0.1795,0.1795,0.1795,0.1683,0.1576,0.1478,0.0813,0.0118,-0.0593,-0.1326,-0.1949,-0.2197,-0.2824,-0.2959,-0.2835,-0.2959,-0.2835,-0.2341,-0.2218,-0.1973,-0.1605,-0.1481,-0.1234,-0.0864,-0.074,-0.0494,-0.0371,-0.0374,-0.0626,0.3528,0.0,0.0,0.4131,0.4433,0.4636,0.4931,0.5133,0.5336,0.5539,0.5839,0.6039,0.6239,0.6539,0.6637,0.6637,0.6637,0.6637,0.6637,0.6637,0.6637,0.6534,0.6637,0.6534,0.6429,0.6534,0.6537,0.6534,0.6637,0.6637,0.6637,0.6639,0.6656,0.6687,0.6701,0.6721,0.674,0.674,0.674,0.674,0.674,0.6788,0.6878,0.6602,0.6394,0.6224,0.6253,0.609,0.5935,0.5935,0.5601,0.5152,0.4927,0.4594,0.426,0.4035,0.3811,0.3587,0.3587,0.3587,0.3587,0.3587,0.3587,0.3587,0.3587,0.3587,0.3362,0.3138,0.2803,0.2469,0.2244,0.202,0.1795,0.1795,0.1795,0.1795,0.1795,0.1795,0.1795,0.1795,0.1795,0.1795,0.1795,0.1795,0.1795,0.1795,0.1804,0.1815,0.1712,0.1163,0.0475,-0.0242,-0.0736,-0.111,-0.1233,-0.1727,-0.1851,-0.1727,-0.1851,-0.1727,-0.1233,-0.111,-0.0987,-0.0741,-0.0494,-0.037,-0.037,-0.0123,0.0,0.0,0.0,0.0,0.625,0.0,0.635,0.6759,0.645,0.6042,0.6237,0.6337,0.6437,0.6742,0.6742,0.6842,0.7138,0.7135,0.7138,0.7138,0.7138,0.7138,0.7138,0.7138,0.7135,0.7033,0.7135,0.693,0.0,0.6731,0.6945,0.6933,0.7135,0.7138,0.7138,0.735,0.7516,0.7437,0.7595,0.7663,0.7638,0.7638,0.7638,0.7638,0.7638,0.7641,0.7648,0.7454,0.7078,0.6549,0.6661,0.6492,0.6274,0.6274,0.6049,0.5822,0.571,0.5375,0.4817,0.4817,0.437,0.3587,0.3587,0.3587,0.3587,0.3587,0.3587,0.3587,0.3587,0.3362,0.3137,0.3137,0.2691,0.2244,0.2244,0.202,0.1795,0.1795,0.1795,0.1795,0.1795,0.1795,0.1795,0.1795,0.1795,0.1795,0.1795,0.1795,0.1795,0.1795,0.1827,0.1724,0.1351,0.0809,0.0358,0.0,0.0,-0.0123,-0.0494,-0.0494,-0.0741,-0.0988,-0.0741,-0.0494,-0.0494,-0.0247,0.0,0.0,0.0,0.0,0.0,0.0,0.0,0.0,0.0,0.0,0.7335,0.0,0.703,0.7528,0.7325,0.7126,0.7434,0.7437,0.7441,0.754,0.764,0.764,0.7739,0.7739,0.7739,0.7739,0.7739,0.7739,0.7739,0.7534,0.7431,0.7329,0.7836,0.0,0.0,0.0,0.0,0.7646,0.7852,0.7955,0.7955,0.8165,0.818,0.8216,0.8286,0.8335,0.8259,0.8309,0.8279,0.8279,0.8375,0.8314,0.81,0.7916,0.7535,0.7202,0.7138,0.6935,0.6935,0.6935,0.6712,0.6379,0.6379,0.6156,0.5819,0.5599,0.5264,0.4929,0.4148,0.3701,0.3587,0.3587,0.3587,0.3587,0.3362,0.3138,0.3026,0.2579,0.2355,0.2132,0.202,0.1907,0.1795,0.1795,0.1795,0.1795,0.1795,0.1795,0.1795,0.1795,0.1795,0.1795,0.1795,0.1795,0.1804,0.183,0.1858,0.1649,0.1075,0.0846,0.061,0.0,0.0,0.0,-0.0123,-0.0123,-0.0247,-0.037,-0.0247,-0.0123,-0.0123,0.0,0.0,0.0,0.0,0.0,0.0,0.0,0.0,0.0,0.0,0.0,0.8425,0.8326,0.8127,0.8513,0.8414,0.8322,0.8531,0.8535,0.8535,0.8535,0.8535,0.8535,0.8535,0.8535,0.8535,0.8535,0.8535,0.8535,0.8535,0.8326,0.8124,0.8226,0.8733,0.9236,0.0,0.0,0.0,0.8937,0.8993,0.903,0.9026,0.9146,0.9263,0.9297,0.9308,0.937,0.9377,0.9315,0.9393,0.9393,0.9388,0.9219,0.9001,0.8776,0.8484,0.8257,0.7925,0.7817,0.7817,0.7817,0.7709,0.7487,0.7487,0.7374,0.7041,0.671,0.649,0.6042,0.4927,0.437,0.4257,0.4147,0.4035,0.4035,0.3586,0.3362,0.3138,0.2691,0.2468,0.2356,0.202,0.1908,0.1908,0.1795,0.1795,0.1795,0.1795,0.1804,0.1811,0.1811,0.182,0.1827,0.1827,0.1827,0.184,0.1877,0.1894,0.168,0.0985,0.0864,0.0617,0.0,0.0,0.0,0.0,0.0,0.0,0.0,0.0,0.0,0.0,0.0,0.0,0.0,0.0,0.0,0.0,0.0,0.0,0.0,0.0,0.0,0.9624,0.9636,0.9644,0.9628,0.9624,0.9628,0.9628,0.9628,0.9628,0.9628,0.9628,0.9628,0.9628,0.9628,0.9628,0.9628,0.9628,0.9628,0.9628,0.932,0.9316,0.0,0.0,0.0,0.0,0.0,0.0,1.0654,1.0393,1.0281,1.0289,1.0431,1.0594,1.0584,1.0662,1.0777,1.0802,1.0802,1.0802,1.0802,1.0802,1.0582,1.0253,0.9923,0.9699,0.9471,0.914,0.892,0.892,0.892,0.892,0.892,0.892,0.8813,0.8484,0.8156,0.7709,0.7041,0.5926,0.5483,0.5371,0.5041,0.4929,0.4819,0.426,0.3924,0.3587,0.3253,0.292,0.2698,0.2362,0.225,0.2138,0.1912,0.18,0.18,0.18,0.1822,0.1842,0.1842,0.1866,0.1886,0.1886,0.1887,0.1898,0.1927,0.1932,0.1701,0.1109,0.0741,0.037,0.0,0.0,0.0,0.0,0.0,0.0,0.0,0.0,0.0,0.0,0.0,0.0,0.0,0.0,0.0,0.0,0.0,0.0,0.0,0.0,0.0,1.0703,1.0511,1.0216,1.04,1.0306,1.0216,1.0216,1.0216,1.0216,1.0216,1.0216,1.0216,1.0216,1.0216,0.0,1.0216,1.0216,0.0,1.0216,1.0113,0.0,1.0422,0.0,1.0987,1.1458,1.1531,0.0,0.0,1.1572,1.1327,1.1048,1.1181,1.1307,1.1333,1.1298,1.1332,1.1315,1.1337,1.135,1.135,1.135,1.135,1.124,1.0684,1.046,1.0359,0.9809,0.9592,0.9592,0.9592,0.9592,0.9592,0.9592,0.9482,0.9482,0.9154,0.8933,0.8709,0.8149,0.7149,0.604,0.5931,0.5819,0.5487,0.515,0.4817,0.4494,0.4093,0.3879,0.3664,0.3247,0.3141,0.2909,0.2328,0.2212,0.2212,0.1979,0.1868,0.1874,0.1874,0.1881,0.1886,0.1886,0.1904,0.1922,0.193,0.195,0.1721,0.1111,0.0864,0.0617,0.0123,0.0,0.0,0.0,0.0,0.0,0.0,0.0,0.0,0.0,0.0,0.0,0.0,0.0,0.0,0.0,0.0,0.0,0.0,0.0,0.0,1.1785,1.1683,1.1487,1.1477,1.138,1.1282,1.1096,1.1096,1.1096,1.1096,1.0998,1.09,1.09,1.0801,1.0703,0.0,0.0,0.0,1.0703,1.0703,1.0806,0.0,1.111,0.0,1.1515,1.1704,1.1907,0.0,1.2084,1.2061,1.1746,1.1864,1.1978,1.1978,1.1996,1.1996,1.1978,1.1996,1.2005,1.2005,1.2005,1.1896,1.1787,1.1341,1.1013,1.0802,1.0363,1.0143,1.0143,1.0143,1.0143,1.0143,1.0143,1.0143,1.0143,0.9926,0.9816,0.9706,0.9372,0.8702,0.7817,0.7374,0.7075,0.6781,0.6442,0.6136,0.5845,0.5434,0.5217,0.4997,0.4342,0.4118,0.3767,0.3063,0.2828,0.271,0.224,0.2132,0.2028,0.1923,0.1926,0.1926,0.1926,0.194,0.1951,0.1951,0.1966,0.1853,0.1235,0.1111,0.0741,0.0247,0.0123,0.0,0.0,0.0,0.0,0.0,0.0,0.0,0.0,0.0,0.0,0.0,0.0,0.0,0.0,0.0,0.0,0.0,0.0,0.0,1.2861,1.2856,1.2856,1.2554,1.2549,1.2446,1.2165,1.217,1.2078,1.2078,0.0,1.178,1.1683,1.1487,1.1296,1.1292,0.0,1.1194,1.1194,1.1217,1.1236,1.1236,1.126,1.1364,1.1581,1.1756,1.195,1.2162,1.2342,1.2441,1.2441,1.2441,1.2441,1.2441,1.2441,1.2441,1.2441,1.2441,1.2441,1.2441,1.2441,1.2223,1.201,1.1678,1.1459,1.1126,1.0802,1.0692,1.0692,1.0692,1.0692,1.0692,1.0692,1.0692,1.0692,1.0476,1.0366,1.0257,1.0033,0.9941,0.985,0.8957,0.8594,0.8354,0.78,0.7541,0.7282,0.6942,0.6713,0.6366,0.5789,0.5324,0.4854,0.3909,0.3555,0.3318,0.2728,0.2516,0.2307,0.2094,0.1977,0.1977,0.1977,0.1977,0.1977,0.1977,0.1977,0.1853,0.1606,0.1235,0.0864,0.0494,0.0247,0.0,0.0,0.0,0.0,0.0,0.0,0.0,0.0,0.0,0.0,0.0,0.0,0.0,0.0,0.0,0.0,0.0,0.0,0.0,1.342,1.342,1.3414,1.3284,1.3102,1.2926,1.2931,1.2754,0.0,0.0,1.2662,1.2565,1.2273,1.2175,1.2078,1.1585,1.1492,1.1487,1.1194,1.1241,1.1248,0.0,1.1609,1.1794,1.2011,1.2063,0.0,0.0,1.2417,1.2441,1.2441,1.2441,1.2441,1.2441,1.2441,1.2441,1.2441,1.2441,1.2441,1.2441,1.2441,1.2228,1.2023,1.1695,1.1468,1.1126,1.0802,0.0,1.0692,1.0692,1.0692,1.0692,1.0692,1.0692,1.0692,1.0692,1.0582,1.0582,1.0582,1.0683,1.0695,1.001,0.9465,0.9061,0.9069,0.8659,0.8233,0.7991,0.7903,0.7684,0.7173,0.6831,0.6226,0.5255,0.4647,0.4038,0.3428,0.2821,0.2337,0.2099,0.1977,0.1977,0.1977,0.1977,0.1977,0.1977,0.1977,0.1977,0.1977,0.1359,0.0864,0.0494,0.0247,0.0,0.0,0.0,0.0,0.0,0.0,0.0,0.0,0.0,0.0,0.0,0.0,0.0,0.0,0.0,0.0,0.0,0.0,0.0,1.4669,1.4657,1.4638,1.4543,1.4268,1.4088,1.3998,0.0,0.0,0.0,1.3431,1.3335,1.3232,1.2942,0.0,1.2452,1.2263,1.2147,1.2043,1.1515,0.0,1.1875,1.2079,1.2125,0.0,1.2139,1.2224,1.2422,1.2441,1.2441,1.2441,1.2441,1.2441,1.2441,1.2441,1.2441,1.2441,1.2441,1.2441,1.2441,1.2441,1.2223,1.1796,1.1695,1.1362,1.0907,1.0802,1.0692,1.0692,1.0692,1.0692,1.0692,1.0692,1.0692,1.0692,1.0692,1.0692,1.0704,1.0802,1.0895,1.1001,1.0835,1.0428,0.9866,0.9945,0.9547,0.9145,0.9093,0.8874,0.8648,0.8218,0.7867,0.75,0.6641,0.554,0.4559,0.407,0.3207,0.2467,0.2345,0.2099,0.1977,0.1977,0.1977,0.1977,0.1977,0.1977,0.1977,0.1977,0.1606,0.1111,0.0741,0.0494,0.0247,0.0,0.0,0.0,0.0,0.0,0.0,0.0,0.0,0.0,0.0,0.0,0.0,0.0,0.0,0.0,0.0,0.0,0.0,1.6015,1.5994,1.588,1.5717,1.5527,1.5242,1.5064,1.4777,0.0,0.0,1.4484,1.4292,1.419,1.38,1.3522,0.0,1.3172,1.292,1.2867,1.2113,1.1723,0.0,1.2467,0.0,1.2404,1.2418,0.0,1.2644,1.255,1.2441,1.2441,1.2441,1.2441,1.2441,1.2441,1.2441,1.2441,1.2441,1.2441,1.2441,1.2441,1.2114,1.1568,1.1577,1.1249,1.0692,1.0692,1.0692,1.0692,1.0692,1.0692,1.0692,1.0692,1.0692,1.0692,1.0692,1.0716,1.0773,1.0932,1.1029,1.1126,1.1395,1.1016,1.0558,1.0591,1.0212,0.9822,0.9822,0.9579,0.9335,0.9095,0.8848,0.8355,0.762,0.6394,0.5172,0.4684,0.3698,0.2837,0.2714,0.2345,0.2099,0.2099,0.2099,0.1977,0.1977,0.1977,0.1977,0.1977,0.1729,0.1482,0.1112,0.0741,0.037,0.0,0.0,0.0,0.0,0.0,0.0,0.0,0.0,0.0,0.0,0.0,0.0,0.0,0.0,0.0,0.0,0.0,0.0,1.6487,1.6487,1.6487,1.6487,1.6292,1.6096,1.6096,0.0,0.0,1.5642,1.5635,1.554,1.5337,1.5051,1.4846,0.0,0.0,1.3685,1.3491,1.292,1.2626,1.2931,0.0,0.0,1.3501,1.3285,1.3295,1.3532,1.3098,1.2772,1.2441,1.2441,1.2441,1.2441,1.2441,1.2441,1.2441,1.2441,1.2441,1.2441,1.2441,1.2114,1.1568,1.1568,1.124,1.0692,1.0692,1.0692,0.0,1.0692,1.0692,1.0692,1.0692,1.0692,1.0692,1.0692,1.0798,1.0956,1.1021,1.1224,1.1447,1.1431,1.1106,1.058,1.0726,1.0293,0.9822,0.9822,0.9819,0.97,0.97,0.9457,0.897,0.8113,0.7255,0.6399,0.5542,0.4684,0.407,0.3455,0.2838,0.2467,0.2467,0.2222,0.1977,0.1977,0.1977,0.1977,0.1977,0.1977,0.1853,0.1482,0.0864,0.037,0.0,0.0,0.0,0.0,0.0,0.0,0.0,0.0,0.0,0.0,0.0,0.0,0.0,0.0,0.0,0.0,0.0,0.0,1.7044,1.7052,1.7052,1.7052,1.6864,1.6683,1.6683,0.0,1.6298,1.6298,1.6298,1.6204,1.6103,1.5906,1.581,0.0,0.0,0.0,1.5185,1.4466,1.3976,1.4131,1.4341,0.0,0.0,0.0,1.4272,1.4283,1.3851,1.363,1.3521,1.2762,1.2441,1.2441,1.2441,1.2441,1.2441,1.2441,1.2441,1.2441,1.2441,1.2114,1.1568,1.1568,1.124,1.0692,1.0692,1.0692,0.0,1.0692,1.0692,1.0692,1.0692,1.0692,1.0708,1.0854,1.0978,1.1077,1.1278,1.1417,1.1487,1.1688,1.1403,1.0947,1.0891,1.0429,1.0072,0.9822,0.9822,0.9822,0.9822,0.97,0.9457,0.8848,0.8236,0.7622,0.6771,0.579,0.493,0.4436,0.3699,0.3085,0.3085,0.2715,0.2345,0.2345,0.2099,0.1977,0.1977,0.1977,0.1853,0.1482,0.1111,0.0617,0.037,0.0123,0.0,0.0,0.0,0.0,0.0,0.0,0.0,0.0,0.0,0.0,0.0,0.0,0.0,0.0,0.0,0.0,1.7326,1.7326,1.7326,1.7326,1.7153,1.7066,0.0,0.0,1.677,1.677,1.677,1.677,1.677,1.6651,1.6621,0.0,0.0,1.6438,1.6509,1.5753,1.5227,0.0,0.0,1.5446,1.5232,1.5339,1.5339,1.503,1.4708,1.4487,1.4487,1.3624,1.3083,1.2767,1.2767,1.2659,1.255,1.255,1.255,1.2441,1.2441,1.2114,1.1568,1.1568,1.124,1.0692,1.0692,1.0692,0.0,1.0692,1.0692,1.0692,1.0692,1.0692,1.072,1.0964,1.1081,1.1143,1.1366,1.1581,1.1552,1.1695,1.1647,1.1398,1.1031,1.0675,1.02,1.0072,0.9822,0.9822,0.9822,0.9822,0.97,0.9457,0.9089,0.848,0.7997,0.6893,0.6033,0.554,0.4682,0.3947,0.3825,0.3085,0.259,0.2467,0.2222,0.1977,0.1977,0.1977,0.1853,0.1729,0.1359,0.0988,0.0494,0.0247,0.0123,0.0,0.0,0.0,0.0,0.0,0.0,0.0,0.0,0.0,0.0,0.0,0.0,0.0,0.0,0.0,1.7326,1.7326,1.7326,1.7326,1.7326,1.7326,0.0,0.0,1.7326,1.7326,1.7326,1.7326,1.7326,1.7311,1.7545,1.786,1.7677,0.0,1.7239,1.6698,1.6162,0.0,0.0,1.6113,1.6592,1.6717,1.6418,1.5891,1.5672,1.5339,1.5013,1.5013,1.4589,1.3748,1.364,1.3423,1.2881,1.2881,1.2767,1.2441,1.2441,1.2114,1.1568,1.1568,1.124,1.0692,1.0692,1.0692,0.0,1.0692,1.0692,1.0692,1.0692,1.0692,1.072,1.0964,1.1122,1.1269,1.1395,1.1643,1.1772,1.1776,1.1776,1.1772,1.1398,1.0796,1.0322,1.0322,1.0072,0.9822,0.9822,0.9822,0.9822,0.9822,0.9579,0.9217,0.8851,0.8363,0.7625,0.7011,0.6033,0.5176,0.4561,0.3577,0.2838,0.259,0.2222,0.1977,0.1977,0.1977,0.1977,0.1977,0.1729,0.1235,0.0617,0.0494,0.037,0.0,0.0,0.0,0.0,0.0,0.0,0.0,0.0,0.0,0.0,0.0,0.0,0.0,0.0,0.0,1.7326,1.7326,1.7326,1.7326,1.7326,1.7326,1.7326,0.0,1.7326,1.7326,1.7326,1.7326,1.7326,1.7501,1.7732,1.8156,1.8182,0.0,0.0,0.0,0.0,1.7311,1.7358,1.743,0.0,0.0,1.7483,1.7378,1.7054,1.6942,1.6829,1.6829,1.6086,1.4589,1.4385,1.4283,1.4067,1.3846,1.3635,1.3315,1.3315,1.2876,1.2114,1.2114,1.1673,1.1017,1.1017,1.0911,1.0692,1.0692,1.0692,1.0692,1.0692,1.0692,1.0729,1.1049,1.1129,1.1274,1.1555,1.1776,1.1776,1.1776,1.1776,1.1776,1.1651,1.1163,1.0554,1.0068,0.9822,0.9822,0.9822,0.9822,0.9822,0.9822,0.97,0.9579,0.9217,0.8848,0.836,0.7989,0.7133,0.6276,0.5788,0.4807,0.3824,0.3455,0.2838,0.2345,0.2345,0.2099,0.1977,0.1977,0.1853,0.1606,0.1235,0.0741,0.0494,0.037,0.0123,0.0,0.0,0.0,0.0,0.0,0.0,0.0,0.0,0.0,0.0,0.0,0.0,0.0,0.0,1.7326,1.7326,1.7326,1.7326,0.0,0.0,1.7326,1.7326,1.7326,1.7326,1.7326,1.7326,1.7699,1.8064,1.8269,1.8585,1.8743,0.0,0.0,0.0,1.8359,0.0,0.0,0.0,1.8541,1.8338,1.8338,1.8115,1.7898,1.7898,1.7898,1.7358,1.6287,1.566,1.5351,1.5137,1.4815,1.4487,1.4169,1.4067,1.3635,1.2866,1.2659,1.2114,1.1236,1.1126,1.0911,0.0,1.0692,1.0692,1.0692,1.0692,1.0692,1.0733,1.109,1.1157,1.1261,1.1675,1.1776,1.1776,1.1776,1.1776,1.1776,1.1651,1.1281,1.0675,1.0186,0.9943,0.9822,0.9822,0.9822,0.9822,0.9822,0.9822,0.97,0.9579,0.9339,0.9092,0.8845,0.8113,0.738,0.6893,0.579,0.4808,0.4195,0.333,0.2589,0.2467,0.2222,0.1977,0.1977,0.1977,0.1977,0.1729,0.1235,0.0741,0.0494,0.0247,0.0123,0.0,0.0,0.0,0.0,0.0,0.0,0.0,0.0,0.0,0.0,0.0,0.0,0.0,1.7326,0.0,0.0,0.0,0.0,0.0,0.0,0.0,1.7326,1.7326,1.7326,1.7326,1.7867,1.8299,1.8299,1.8847,1.9175,0.0,1.8981,0.0,0.0,1.8938,0.0,1.9272,1.9071,1.8981,1.8981,1.8646,1.8422,1.8422,1.8422,1.8422,1.8422,1.747,1.663,1.6105,1.5779,1.5446,1.5114,1.4917,1.4487,1.3835,1.3305,1.255,0.0,1.135,1.1021,1.0802,1.0692,1.0692,1.0692,1.0692,1.0692,1.0733,1.109,1.1224,1.1277,1.165,1.1776,1.1776,1.1776,1.1776,1.1772,1.1398,1.1039,1.0804,1.0429,1.0061,0.9819,0.9822,0.9822,0.9822,0.9822,0.9822,0.9822,0.9822,0.9822,0.97,0.9335,0.9095,0.8607,0.7627,0.665,0.5669,0.4685,0.3697,0.2957,0.259,0.2222,0.1977,0.1976,0.1977,0.1977,0.1977,0.1729,0.1235,0.0617,0.0494,0.037,0.0,0.0,0.0,0.0,0.0,0.0,0.0,0.0,0.0,0.0,0.0,0.0,1.7326,0.0,1.7326,1.7326,1.7326,1.7326,0.0,0.0,0.0,0.0,0.0,1.7326,1.7326,1.7867,1.8299,1.8299,1.8847,1.9279,1.9175,0.0,0.0,1.9175,1.9168,1.9264,1.9272,1.9279,1.9175,1.9175,1.9168,1.9063,1.9063,1.9063,1.9063,1.9063,1.8646,1.8122,1.7483,1.7265,1.6942,1.6717,1.6617,1.6193,1.5351,1.4804,1.3938,1.2861,1.2327,1.1787,1.135,1.1126,1.1017,1.1021,1.0802,1.0692,1.0733,1.109,1.1224,1.1277,1.165,1.1776,1.1776,1.1776,1.1776,1.1776,1.1651,1.1402,1.1035,1.0425,1.0183,1.0065,0.9822,0.9822,0.9822,0.9822,0.9822,0.9822,0.9822,0.9822,0.9819,0.97,0.9457,0.9089,0.8587,0.7736,0.6768,0.6041,0.4812,0.395,0.358,0.2841,0.2346,0.2345,0.2099,0.1977,0.1977,0.1729,0.1482,0.1235,0.0741,0.0494,0.037,0.0125,0.0,0.0,0.0,0.0,0.0,0.0,0.0,0.0,0.0,0.0,1.7326,1.7326,1.7326,1.7326,1.7326,1.7326,1.7326,0.0,0.0,0.0,0.0,1.7377,1.7523,1.7962,1.835,1.8503,1.895,0.0,0.0,0.0,1.9279,1.9279,1.9279,1.9279,0.0,1.9279,1.9279,1.9279,1.9279,1.9279,1.9279,1.9279,1.9279,1.9279,1.9175,1.8862,1.8443,1.8115,1.7891,1.7786,1.7582,1.716,1.653,1.5873,1.5013,1.3835,1.33,1.2654,1.2114,1.1678,1.1455,1.1455,1.1021,1.0907,1.0945,1.1005,1.1155,1.1261,1.1549,1.1707,1.1776,1.1776,1.1776,1.1776,1.1776,1.1651,1.1402,1.0671,1.0425,1.0183,0.994,0.9822,0.9822,0.9822,0.9822,0.9822,0.9822,0.9822,0.9822,0.9822,0.97,0.9454,0.9079,0.8477,0.7752,0.7018,0.5794,0.4812,0.4195,0.3332,0.2716,0.2467,0.2222,0.1977,0.1977,0.1853,0.1606,0.1482,0.1112,0.0864,0.0494,0.0378,0.0129,0.0,0.0,0.0,0.0,0.0,0.0,0.0,0.0,0.0,1.7326,1.7326,1.7326,1.7326,1.7326,1.7326,1.7326,0.0,0.0,0.0,0.0,0.0,0.0,1.8079,0.0,0.0,0.0,0.0,1.9279,1.9279,1.9279,1.9279,1.9279,0.0,1.9279,1.9279,1.9279,1.9279,1.9279,1.9279,1.9279,1.9279,1.9279,1.9279,1.9279,1.9175,1.8974,1.8646,1.8527,1.8527,1.8331,1.7911,1.7391,1.6836,1.598,1.4922,1.4272,0.0,1.3093,1.2545,1.2223,1.2114,1.1455,1.1236,1.1261,1.1123,1.1187,1.1252,1.1468,1.1646,1.1776,1.1776,1.1776,1.1776,1.1776,1.1776,1.1651,1.1035,1.0668,1.0304,0.9943,0.9822,0.9822,0.9822,0.9822,0.9822,0.9822,0.9822,0.9822,0.9822,0.9822,0.97,0.9457,0.9101,0.861,0.7739,0.6768,0.5792,0.4807,0.3822,0.3083,0.2713,0.2346,0.21,0.2099,0.1976,0.1853,0.1606,0.1482,0.1238,0.0497,0.051,0.0393,0.0,0.0,0.0,0.0,0.0,0.0,0.0,0.0,0.0,1.7326,1.7326,1.7326,1.7326,1.7326,1.7326,1.7326,0.0,0.0,0.0,0.0,0.0,0.0,1.8079,1.8408,0.0,0.0,1.9279,0.0,0.0,1.9279,1.9279,0.0,1.9279,1.9279,1.9279,1.9279,1.9279,1.9279,1.9279,1.9279,1.9279,1.9279,1.9279,1.9279,1.9279,1.9279,1.9168,1.9168,1.9168,1.9168,1.8966,1.866,1.7996,1.7252,1.6305,0.0,1.5137,1.4277,1.3732,1.33,1.2989,1.2223,1.1896,1.1809,1.1458,1.1414,1.162,1.1733,1.1752,1.1776,1.1776,1.1776,1.1776,1.1776,1.1776,1.1772,1.1277,1.1031,1.0668,1.0318,1.0072,0.9822,0.9822,0.9822,0.9822,0.9822,0.9822,0.9822,0.9822,0.9822,0.9822,0.97,0.9451,0.9079,0.8705,0.7736,0.6888,0.6156,0.4925,0.4064,0.3697,0.2962,0.2471,0.2467,0.2223,0.1977,0.1977,0.1606,0.1249,0.0513,0.0515,0.0393,0.0,0.0,0.0,0.0,0.0,0.0,0.0,0.0,0.0,1.7527,1.7527,1.7527,1.7707,1.752,1.7326,1.7326,0.0,0.0,0.0,0.0,0.0,0.0,0.0,1.8467,1.8972,0.0,1.9279,1.9279,1.9279,1.9279,0.0,0.0,1.9279,1.9279,1.9279,1.9279,1.9279,1.9279,1.9279,1.9279,1.9279,1.9279,1.9279,1.9279,1.9279,1.9279,1.9279,1.9279,1.9279,1.9279,1.9175,1.8869,1.8646,1.8115,1.7378,0.0,1.6311,1.5666,1.5018,1.4487,1.4175,1.33,1.2762,1.2374,1.1794,1.1612,1.1739,1.1766,1.1776,1.1776,1.1776,1.1776,1.1776,1.1776,1.1776,1.1776,1.1647,1.1156,1.0671,1.0443,1.0072,0.9822,0.9822,0.9822,0.9822,0.9822,0.9822,0.9822,0.9822,0.9822,0.9822,0.9822,0.9697,0.9447,0.9073,0.8584,0.7858,0.7016,0.5906,0.4925,0.419,0.3331,0.2716,0.2467,0.2222,0.1977,0.1977,0.1729,0.1377,0.1031,0.0903,0.0654,0.0269,0.0269,0.0135,0.0,0.0,0.0,0.0,0.0,0.0,1.7628,1.7721,1.7815,1.8087,0.0,1.7426,1.7426,0.0,0.0,0.0,0.0,0.0,0.0,1.843,0.0,1.9199,1.9279,1.9279,1.9279,1.9279,1.9279,1.9279,1.9279,1.9279,1.9279,1.9279,1.9279,1.9279,1.9279,1.9279,1.9279,1.9279,1.9279,1.9279,1.9279,1.9279,1.9279,1.9279,1.9279,1.9279,1.9279,1.9175,1.8974,1.8974,1.8757,1.8233,1.7813,1.7378,1.6836,1.6205,1.5672,1.525,1.4379,1.3624,1.292,1.2285,1.1875,1.1735,1.1836,1.186,1.1776,1.1776,1.1776,1.1776,1.1776,1.1776,1.1776,1.1776,1.1405,1.0789,1.0558,1.019,0.9943,0.9822,0.9822,0.9822,0.9822,0.9822,0.9822,0.9822,0.9822,0.9822,0.9822,0.9822,0.9697,0.9447,0.9073,0.8584,0.7867,0.6886,0.5906,0.493,0.3947,0.3085,0.259,0.2222,0.1977,0.1977,0.1729,0.1622,0.1531,0.1285,0.0915,0.0673,0.0538,0.0404,0.0135,0.0,0.0,0.0,0.0,0.0,1.7721,1.7908,1.8087,1.8087,1.79,0.0,1.7628,1.7527,0.0,1.7326,0.0,0.0,0.0,1.8796,1.922,1.9264,1.9279,1.9279,1.9279,0.0,1.9279,1.9279,1.9279,1.9279,1.9279,1.9279,1.9279,1.9279,1.9279,1.9279,1.9279,1.9279,1.9279,1.9279,1.9279,1.9279,1.9279,1.9279,1.9279,1.9279,1.9279,1.9279,1.9272,1.9272,1.9071,1.8869,1.8764,1.8331,1.7477,1.7173,1.6749,1.6111,1.5565,1.4482,1.3212,1.312,1.2434,1.1714,1.18,1.1869,1.1776,1.1776,1.1776,1.1776,1.1776,1.1776,1.1776,1.1776,1.1522,1.1152,1.0789,1.0547,1.0183,0.9822,0.9822,0.9822,0.9822,0.9822,0.9822,0.9822,0.9822,0.9822,0.9822,0.9822,0.9822,0.9819,0.9447,0.9073,0.8702,0.7856,0.7008,0.628,0.5058,0.3826,0.259,0.2222,0.1977,0.1977,0.1977,0.1855,0.1487,0.1526,0.1308,0.1076,0.0673,0.0538,0.0404,0.0135,0.0,0.0,0.0,0.0,1.8102,1.8288,1.8381,1.8458,1.8373,0.0,0.0,1.7714,1.7527,1.7527,1.7426,0.0,0.0,0.0,1.9321,1.9018,1.9243,1.9406,1.8986,1.9157,1.9235,1.9269,1.9234,1.925,1.9257,1.9279,1.9279,1.9279,1.9279,1.9279,1.9279,1.9279,1.9279,1.9279,1.9279,1.9279,1.9279,1.9279,1.9279,1.9279,1.9279,1.9279,1.9279,1.9279,1.9279,1.9175,1.8974,1.866,1.8331,1.8115,1.7589,1.706,1.6099,1.5137,1.4304,1.3663,1.3101,1.263,1.2134,1.1971,1.2005,1.1893,1.1776,1.1776,1.1776,1.1776,1.1776,1.1776,1.1651,1.1526,1.1152,1.0668,1.0308,1.0193,0.9947,0.9822,0.9822,0.9822,0.9822,0.9822,0.9822,0.9822,0.9822,0.9822,0.9822,0.9822,0.9697,0.9447,0.9195,0.8584,0.7856,0.6766,0.4931,0.3457,0.2593,0.2224,0.1977,0.1977,0.1977,0.1993,0.1902,0.1924,0.17,0.148,0.1212,0.0942,0.0538,0.0404,0.0269,0.0,0.0,0.0,1.8381,1.8574,1.8658,0.0,0.0,0.0,1.8365,1.8087,1.7815,1.7815,1.7796,0.0,0.0,0.0,0.0,0.0,1.9171,1.9343,1.8814,1.8943,1.9128,1.9193,1.9182,1.9175,1.9302,1.9317,1.9279,1.9279,1.9279,1.9279,1.9279,1.9279,1.9279,1.9279,1.9279,1.9279,1.9279,1.9279,1.9279,1.9279,1.9279,1.9279,1.9279,1.9279,1.9279,1.9279,1.9078,1.8974,1.8869,1.8646,1.8325,1.7793,1.6842,1.6099,1.5482,1.4565,1.3891,1.333,1.2508,1.2233,1.2046,1.1872,1.1776,1.1776,1.1776,1.1776,1.1776,1.1776,1.1776,1.1776,1.1522,1.091,1.0429,1.0315,1.0068,0.9822,0.9822,0.9822,0.9822,0.9822,0.9822,0.9822,0.9822,0.9822,0.9822,0.9822,0.9822,0.9697,0.9447,0.9195,0.8462,0.7008,0.5172,0.3701,0.2962,0.247,0.2099,0.2099,0.2099,0.1994,0.2035,0.2073,0.198,0.175,0.1616,0.1346,0.0808,0.0673,0.0404,0.0135,0.0,0.0,1.8481,1.8658,0.0,0.0,0.0,0.0,1.8827,1.8458,1.8087,1.8087,0.0,1.859,1.859,1.8865,0.0,1.8725,1.8979,1.9048,1.874,1.8931,1.9121,1.9115,1.9184,1.9179,1.9186,1.928,1.9272,1.9279,1.9279,1.9279,1.9279,1.9279,1.9279,1.9279,1.9279,1.9279,1.9279,1.9279,1.9279,1.9279,1.9279,1.9279,1.9279,1.9279,1.9279,1.9279,1.9279,1.9182,1.8869,1.8869,1.8653,1.8318,1.7793,1.7265,1.6624,1.5773,1.475,1.3558,1.3103,1.2503,1.1883,1.1836,1.1776,1.1776,1.1776,1.1776,1.1776,1.1776,1.1776,1.1776,1.1776,1.1281,1.0668,1.0425,1.0061,0.9822,0.9822,0.9822,0.9822,0.9822,0.9822,0.9822,0.9822,0.9822,0.9822,0.9822,0.9822,0.9822,0.9822,0.9447,0.8711,0.7133,0.5661,0.4681,0.3943,0.3082,0.2467,0.2467,0.2222,0.1977,0.1977,0.2091,0.2153,0.2154,0.175,0.1616,0.1616,0.0808,0.0538,0.0538,0.0135,0.0,1.8643,1.8735,0.0,1.8827,0.0,0.0,0.0,1.8558,0.0,0.0,1.8295,1.8559,1.8559,1.8942,0.0,1.8839,1.9269,1.9522,1.9352,1.9543,1.9711,1.9724,1.959,1.9552,1.9637,1.937,1.9331,1.9561,1.9376,1.9279,1.9279,1.9279,1.9279,1.9279,1.9279,1.9279,1.9279,1.9279,1.9279,1.9279,1.9279,1.9279,1.9279,1.9279,1.9279,1.9279,1.9279,1.9279,1.9175,1.8974,1.8869,1.8757,1.8325,1.7898,1.7483,1.6624,1.5935,1.5209,1.3994,1.3418,1.317,1.2299,1.2122,1.2005,1.1893,1.1776,1.1776,1.1776,1.1776,1.1776,1.1776,1.1522,1.1031,1.0789,1.0433,1.0072,0.9822,0.9822,0.9822,0.9822,0.9822,0.9822,0.9822,0.9822,0.9822,0.9822,0.9822,0.9822,0.9822,0.9332,0.8601,0.7747,0.6399,0.5295,0.4315,0.3577,0.2961,0.259,0.2467,0.2231,0.2005,0.204,0.2076,0.2112,0.2007,0.1885,0.1616,0.1346,0.0942,0.0538,0.0404,0.0269,1.8727,0.0,0.0,1.8827,1.8827,1.8827,1.8827,0.0,0.0,0.0,0.0,1.8806,1.9023,1.9317,0.0,1.9277,1.9773,2.0038,1.9862,2.0189,2.0382,2.039,2.0179,2.0066,2.0119,1.9912,1.9767,1.977,1.9819,1.9687,1.948,1.948,1.9376,1.9279,1.9279,1.9279,1.9279,1.9279,1.9279,1.9279,1.9279,1.9279,1.9279,1.9279,1.9279,1.9279,1.9279,1.9279,1.9279,1.9182,1.9078,1.9078,1.875,1.8541,1.8233,1.7483,1.6838,1.6259,1.5077,1.4308,1.3737,1.289,1.2414,1.2118,1.2005,1.1893,1.1776,1.1776,1.1776,1.1776,1.1776,1.1651,1.1402,1.1031,1.0675,1.0197,1.0065,0.994,0.9822,0.9822,0.9822,0.9822,0.9822,0.9822,0.9822,0.9822,0.9822,0.9822,0.9822,0.9335,0.8851,0.836,0.738,0.6399,0.5419,0.4561,0.3822,0.333,0.2837,0.2354,0.225,0.2012,0.2033,0.2064,0.21,0.1992,0.1736,0.1602,0.1339,0.0942,0.0673,0.0404,1.8827,0.0,0.0,1.8827,1.8827,0.0,1.8827,1.8819,1.892,1.9152,0.0,1.9345,1.9887,1.9987,1.9987,2.0071,2.0382,2.0676,2.0571,2.0882,2.1141,2.1159,2.1016,2.0771,2.0543,2.0669,2.0595,2.0077,2.0382,2.0277,1.9879,1.9783,1.9687,1.9383,1.9376,1.9376,1.9376,1.9376,1.9272,1.9279,1.9279,1.9279,1.9279,1.9279,1.9279,1.9279,1.9279,1.9279,1.9279,1.9279,1.9279,1.9279,1.9078,1.8974,1.8869,1.8338,1.7589,1.6768,1.606,1.5083,1.4081,1.363,1.2899,1.2333,1.223,1.2005,1.1772,1.1776,1.1776,1.1776,1.1776,1.1776,1.1772,1.1398,1.0917,1.044,1.0311,1.0065,0.9822,0.9822,0.9822,0.9822,0.9822,0.9822,0.9822,0.9822,0.9822,0.9822,0.9822,0.9579,0.9217,0.8851,0.836,0.7747,0.7011,0.5784,0.4926,0.4561,0.3329,0.259,0.259,0.225,0.2015,0.2015,0.2044,0.2074,0.2101,0.1841,0.159,0.1612,0.0942,0.0538,1.8827,1.8827,0.0,0.0,1.8827,1.8827,1.9104,1.9115,1.9157,1.9155,1.9356,1.9636,2.0112,2.0347,2.0678,2.1246,2.1396,2.1641,2.2205,2.2311,2.2368,2.2422,2.2223,2.1942,2.1814,2.1325,2.1111,2.1435,2.0948,2.0716,2.0995,2.0712,2.0514,2.0205,2.0212,1.9998,1.9576,1.9576,1.948,1.9279,1.9279,1.9279,1.9279,1.9279,1.9279,1.9279,1.9279,1.9279,1.9279,1.9279,1.9279,1.9272,1.9279,1.9175,1.9175,1.8869,1.8436,1.7932,1.7035,1.6296,1.5544,1.473,1.3976,1.3344,1.2791,1.2359,1.2122,1.1893,1.1776,1.1776,1.1776,1.1776,1.1776,1.1651,1.1402,1.1039,1.0694,1.0447,1.0197,1.0197,0.9947,0.9822,0.9822,0.9822,0.9822,0.9822,0.9822,0.9822,0.9822,0.97,0.9579,0.9214,0.8851,0.836,0.7747,0.6888,0.6154,0.5298,0.4438,0.3824,0.3332,0.2477,0.1986,0.1986,0.2014,0.2031,0.2038,0.2062,0.1825,0.1581,0.1471,0.1077,1.9204,0.0,0.0,1.9496,0.0,1.9587,1.9654,1.9835,1.9949,2.0008,2.0112,2.0312,2.113,2.142,2.1646,2.2254,2.2447,2.2727,2.3122,2.3258,2.324,2.3309,2.3047,2.2861,2.2636,2.2362,2.2188,2.2245,2.2039,2.1931,2.1928,2.1719,2.1514,2.131,2.1011,2.0712,2.03,2.0197,1.9998,1.968,1.9576,1.9376,1.9279,1.9279,1.9279,1.9279,1.9279,1.9279,1.9279,1.9279,1.9279,1.9279,1.9279,1.9279,1.9279,1.9175,1.8862,1.8562,1.7855,1.7244,1.6417,1.5692,1.4842,1.3948,1.3348,1.2821,1.2248,1.2101,1.1893,1.1776,1.1776,1.1776,1.1776,1.1776,1.1522,1.1277,1.1046,1.0804,1.0436,1.0322,1.0197,0.9947,0.9822,0.9822,0.9822,0.9822,0.9822,0.9822,0.9822,0.9822,0.97,0.9579,0.9335,0.9092,0.8604,0.7991,0.7255,0.6403,0.5421,0.4684,0.4192,0.3209,0.2592,0.2222,0.2115,0.2005,0.2018,0.2035,0.1927,0.182,0.1583,0.1328,1.9853,0.0,2.0119,2.0343,2.0443,0.0,2.0473,2.0657,2.0864,2.1248,2.1034,2.1184,2.229,2.2573,2.2708,2.3238,2.3441,2.3614,2.37,2.378,2.3927,2.3927,2.3754,2.358,2.3309,2.3359,2.3233,2.2847,2.3214,2.3231,2.2883,2.2795,2.2615,2.2298,2.1979,2.1623,2.1224,2.0917,2.0609,2.0292,1.9983,1.968,1.9383,1.9383,1.9376,1.9279,1.9279,1.9279,1.9279,1.9279,1.9279,1.9279,1.9279,1.9279,1.9279,1.9279,1.9175,1.8869,1.8646,1.7941,1.7181,1.6689,1.5643,1.4622,1.4169,1.3455,1.2591,1.2269,1.2101,1.1893,1.1776,1.1776,1.1776,1.1776,1.1647,1.1398,1.1398,1.1152,1.0793,1.0561,1.0322,1.0197,0.9822,0.9822,0.9822,0.9822,0.9822,0.9822,0.9822,0.9822,0.9822,0.9822,0.9822,0.97,0.9457,0.8845,0.8236,0.763,0.6526,0.5665,0.5293,0.4436,0.3576,0.2959,0.2469,0.2112,0.2136,0.2136,0.2024,0.2049,0.1679,0.1556,0.0,0.0,2.0817,0.0,2.0898,2.0979,0.0,0.0,2.1715,0.0,2.2227,2.2031,2.2687,2.3115,2.3551,2.4003,2.409,2.4176,2.4348,2.4358,2.4454,2.4454,2.4368,2.4282,2.4024,2.3891,2.3819,2.3929,2.3505,2.3442,2.3691,2.3927,2.3777,2.3205,2.3547,2.3229,2.2325,2.2021,2.1623,2.1113,2.0617,2.0101,1.968,1.968,1.948,1.9279,1.9279,1.9279,1.9279,1.9279,1.9279,1.9279,1.9279,1.9279,1.9279,1.9279,1.9279,1.9175,1.8974,1.8569,1.8099,1.7815,1.7053,1.6154,1.5282,1.4484,1.3727,1.2704,1.2239,1.2122,1.1893,1.1776,1.1776,1.1776,1.1776,1.1772,1.1772,1.1522,1.1273,1.1156,1.0679,1.0197,0.9822,0.9822,0.9822,0.9822,0.9822,0.9822,0.9822,0.9822,0.9822,0.9822,0.9822,0.9819,0.97,0.9335,0.8973,0.8607,0.7994,0.7258,0.6644,0.5908,0.5295,0.4558,0.3453,0.2718,0.2474,0.2474,0.223,0.1988,0.1991,0.1743,2.1989,2.1989,2.2078,0.0,2.2148,2.2227,2.2334,0.0,2.2795,2.3135,2.3232,2.3309,2.359,2.3764,2.4024,2.4292,2.4378,2.4368,2.4454,2.454,2.454,2.454,2.454,2.4454,2.4368,2.4282,2.4268,2.4297,2.4177,2.4207,2.4395,2.4443,2.4397,2.4116,2.4013,2.3827,2.3465,2.2992,2.2512,2.1928,2.1623,2.0907,2.0116,1.9804,1.95,1.9279,1.9279,1.9279,1.9279,1.9279,1.9279,1.9279,1.9279,1.9279,1.9279,1.9279,1.9279,1.9279,1.9175,1.8966,1.8667,1.8259,1.7769,1.6965,1.6026,1.5183,1.4313,1.3417,1.2731,1.223,1.2101,1.1889,1.1776,1.1776,1.1776,1.1776,1.1776,1.1651,1.1522,1.1394,1.08,1.02,1.0072,0.9947,0.9822,0.9822,0.9822,0.9822,0.9822,0.9822,0.9822,0.9822,0.9822,0.9822,0.9822,0.97,0.9457,0.9095,0.8607,0.8238,0.7744,0.7131,0.6639,0.6272,0.4681,0.3576,0.3085,0.3085,0.2839,0.2592,0.2592,0.2345,0.0,0.0,2.3057,2.3222,2.3319,2.3319,0.0,0.0,2.3677,0.0,2.4024,2.4292,2.4292,2.4292,2.4292,2.4454,2.454,2.454,2.454,2.454,2.454,2.454,2.454,2.454,2.454,2.454,2.454,2.454,2.4676,2.4686,2.4686,2.4746,2.4796,2.4705,2.4428,2.4355,2.4297,2.3832,2.322,2.2525,2.2335,2.1594,2.0456,1.9852,1.9489,1.914,1.9118,1.9155,1.9162,1.9242,1.9279,1.9279,1.9279,1.9279,1.9279,1.9279,1.9279,1.9279,1.9279,1.9175,1.8974,1.8743,1.8325,1.7728,1.6971,1.5993,1.5132,1.4256,1.3365,1.2642,1.2358,1.2059,1.1836,1.1764,1.1776,1.1776,1.1776,1.1776,1.1651,1.1398,1.0917,1.0565,1.044,1.019,0.994,0.994,0.9822,0.9822,0.9822,0.9822,0.9822,0.9822,0.9822,0.9822,0.9822,0.9822,0.97,0.9457,0.9214,0.897,0.8601,0.8108,0.7864,0.7617,0.6151,0.4928,0.4069,0.407,0.3824,0.333,0.333,0.3083,0.0,2.3754,0.0,2.3754,2.3754,0.0,0.0,0.0,2.4206,2.4206,2.4368,2.4454,2.4454,2.4454,2.4454,2.454,2.454,2.454,2.454,2.454,2.454,2.454,2.454,2.454,2.454,2.454,2.454,2.454,2.4475,2.4495,2.4495,2.4928,2.5088,2.4801,2.5218,2.5168,2.472,2.4146,2.3495,2.2762,2.2479,2.1709,2.0467,1.9973,1.9411,1.8691,1.8787,1.8811,1.884,1.9147,1.9279,1.9279,1.9279,1.9279,1.9279,1.9279,1.9279,1.9279,1.9279,1.9272,1.9279,1.9272,1.9071,1.8764,1.8122,1.7255,1.6278,1.5088,1.404,1.3241,1.252,1.2102,1.1913,1.1856,1.1776,1.1776,1.1776,1.1776,1.1651,1.1398,1.1285,1.1167,1.0793,1.0547,1.0304,1.0304,0.994,0.9822,0.9822,0.9822,0.9822,0.9822,0.9822,0.9822,0.9822,0.9822,0.9822,0.9819,0.97,0.9579,0.9214,0.9214,0.8967,0.8355,0.8233,0.7375,0.5786,0.5419,0.493,0.4316,0.4316,0.407,0.0,0.0,0.0,2.4272,2.4272,2.4272,2.4272,2.4282,2.4368,2.4368,2.4454,2.454,2.454,2.454,2.454,2.454,2.454,2.454,2.454,2.454,2.454,2.454,2.454,2.454,2.454,2.454,2.454,2.454,2.454,2.454,2.454,2.4695,2.4702,2.4605,2.4769,2.4808,2.4726,2.4826,2.4588,2.4015,2.3653,2.2758,2.1404,2.0651,1.9692,1.876,1.8521,1.8489,1.8482,1.8606,1.8774,1.8964,1.8964,1.9096,1.9279,1.9279,1.9279,1.9279,1.9279,1.9279,1.9279,1.9279,1.9279,1.9063,1.8422,1.7853,1.7229,1.5999,1.5011,1.4132,1.3231,1.2596,1.1949,1.1671,1.1691,1.1776,1.1776,1.1776,1.1776,1.1647,1.1402,1.1277,1.1152,1.0789,1.0668,1.0668,1.0304,1.0065,1.0065,0.994,0.9822,0.9822,0.9822,0.9822,0.9822,0.9822,0.9822,0.9822,0.9822,0.97,0.9579,0.9579,0.9579,0.9332,0.9089,0.8233,0.6884,0.6764,0.6396,0.6031,0.5788,0.5419,2.454,0.0,0.0,0.0,0.0,2.454,2.454,2.454,2.454,2.454,2.454,2.454,2.454,2.454,2.454,2.454,2.454,2.454,2.454,2.454,2.454,2.454,2.454,2.454,2.454,2.454,2.454,2.454,2.454,2.454,2.454,2.454,2.454,2.454,2.454,2.4598,2.4723,2.503,2.4995,2.4526,2.4075,2.3276,2.2098,2.1103,2.0138,1.9104,1.8699,1.8422,1.825,1.8262,1.843,1.8635,1.8745,1.8921,1.9125,1.9235,1.9279,1.9279,1.9279,1.9279,1.9279,1.9279,1.9279,1.9272,1.8848,1.8422,1.7925,1.7053,1.6127,1.5096,1.4127,1.3117,1.2077,1.169,1.1712,1.1819,1.1764,1.1776,1.1776,1.1776,1.1647,1.1522,1.1522,1.1156,1.091,1.091,1.0668,1.0425,1.0304,1.0061,0.9943,0.9822,0.9822,0.9822,0.9822,0.9822,0.9822,0.9822,0.9822,0.9822,0.9822,0.9822,0.9822,0.9822,0.9579,0.9089,0.823,0.7986,0.7744,0.7378,0.7136,0.6888,0.0,0.0,0.0,0.0,0.0,0.0,2.454,0.0,2.454,2.454,2.454,2.454,2.454,2.454,2.454,2.454,2.454,2.454,2.454,2.454,2.454,2.454,2.454,2.454,2.454,2.454,2.454,2.454,2.454,2.454,2.454,2.454,2.454,2.454,2.454,2.454,2.454,2.454,2.4368,2.4206,2.3764,2.3135,2.2394,2.1427,2.0628,1.9894,1.9455,1.8832,1.823,1.8243,1.8277,1.8321,1.8635,1.8767,1.8811,1.914,1.9257,1.9264,1.9272,1.9279,1.9279,1.9279,1.9279,1.9279,1.9279,1.8848,1.8422,1.8094,1.7246,1.6141,1.5091,1.3668,1.2409,1.2021,1.1955,1.1896,1.1848,1.1768,1.1772,1.1776,1.1776,1.1776,1.1776,1.1522,1.1273,1.1273,1.1031,1.0668,1.0304,1.0304,1.0183,0.9819,0.9822,0.9822,0.9822,0.9822,0.9822,0.9822,0.9822,0.9822,0.9822,0.9822,0.9822,0.9822,0.9822,0.9822,0.9822,0.9217,0.8726,0.8477,0.8477,0.8108,2.454,0.0,0.0,0.0,0.0,0.0,0.0,0.0,2.454,2.454,2.4615,2.4786,2.4786,2.4946,2.5041,2.5041,2.47,2.454,2.454,2.454,2.454,2.454,2.454,2.454,2.454,2.454,2.454,0.0,2.454,2.454,2.454,2.454,2.454,2.454,2.454,2.454,2.454,2.454,2.4454,2.4368,2.411,2.3754,2.3135,2.2403,2.1695,2.115,2.0365,1.9795,1.9418,1.8684,1.8316,1.8268,1.8357,1.8437,1.8474,1.8803,1.8921,1.8957,1.9199,1.9279,1.9279,1.9279,1.9279,1.9279,1.9279,1.9168,1.8952,1.8422,1.7884,1.7153,1.5415,1.4318,1.3409,1.2673,1.2346,1.228,1.1887,1.1811,1.1852,1.1752,1.1776,1.1776,1.1776,1.1772,1.1651,1.1651,1.1402,1.1031,1.0668,1.0425,1.0183,0.9819,0.9822,0.9822,0.9822,0.9822,0.9822,0.9822,0.9822,0.9822,0.9822,0.9822,0.9822,0.9822,0.9822,0.9822,0.9822,0.9579,0.9457,0.9454,0.9214,0.8723,0.0,0.0,0.0,0.0,0.0,0.0,2.4786,2.4786,2.4786,0.0,2.4946,2.5115,2.5115,2.5443,2.5611,2.5611,2.5443,2.52,2.4871,2.4786,2.4786,2.4786,2.47,2.47,2.47,2.454,2.454,2.454,2.454,2.454,2.454,2.454,2.454,2.454,2.454,2.454,2.454,2.454,2.454,2.454,2.4292,2.4034,2.3764,2.3125,2.2677,2.2236,2.1633,2.1087,2.061,1.9985,1.9116,1.8115,1.817,1.8141,1.8138,1.8467,1.8672,1.8818,1.9008,1.9162,1.9279,1.9279,1.9279,1.9279,1.9279,1.9279,1.9272,1.8848,1.8415,1.7667,1.608,1.5127,1.4396,1.3497,1.2945,1.2639,1.2271,1.2026,1.1908,1.186,1.1776,1.1776,1.1776,1.1776,1.1776,1.1776,1.1647,1.1398,1.1031,1.0668,1.0425,1.0061,0.994,0.9822,0.9822,0.9822,0.9822,0.9822,0.9822,0.9822,0.9822,0.9822,0.9822,0.9822,0.9822,0.9822,0.9822,0.9822,0.9822,0.9822,0.9579,0.9335,0.0,0.0,0.0,0.0,0.0,0.0,2.52,2.5285,2.5285,0.0,2.5527,2.5695,2.5695,2.603,2.6351,2.6351,2.6517,2.6351,2.5443,2.5369,2.5285,2.5274,2.5115,2.4946,2.4861,2.47,2.454,2.454,2.454,2.454,2.454,2.454,2.454,2.454,2.454,2.454,2.454,2.454,2.454,2.454,2.4292,2.4206,2.4206,2.3764,2.3406,2.3232,2.2969,2.252,2.1784,2.1526,2.0175,1.8303,1.8328,1.8155,1.7897,1.8228,1.8438,1.8686,1.8723,1.895,1.922,1.922,1.925,1.9279,1.9279,1.9279,1.9279,1.9279,1.8736,1.7884,1.7153,1.6299,1.5398,1.4428,1.3814,1.3208,1.2748,1.2365,1.1963,1.1918,1.1868,1.1776,1.1776,1.1776,1.1776,1.1776,1.1776,1.1651,1.1398,1.1031,1.0668,1.0308,0.994,0.9822,0.9822,0.9822,0.9822,0.9822,0.9822,0.9822,0.9822,0.9822,0.9822,0.9822,0.9822,0.9822,0.9822,0.9822,0.9822,0.9822,0.9822,0.9822,0.0,0.0,0.0,0.0,0.0,0.0,2.5695,2.5852,2.603,0.0,2.6456,2.6715,2.6857,2.7103,2.7255,2.7487,2.7476,2.7244,2.6351,2.6113,2.5946,2.5768,2.5527,2.5285,2.4946,2.4861,2.47,2.454,2.454,2.454,2.454,2.454,2.454,2.454,2.454,2.454,2.454,2.454,2.454,2.454,2.4454,2.4454,2.4454,2.4196,2.4024,2.3937,2.3503,2.3144,2.2784,2.1971,2.0709,1.918,1.9076,1.8644,1.8036,1.8192,1.826,1.8349,1.8412,1.8613,1.8884,1.8884,1.906,1.9279,1.9279,1.9279,1.9279,1.9279,1.9071,1.8653,1.8213,1.7575,1.6955,1.6041,1.5409,1.4722,1.3871,1.3282,1.2815,1.2449,1.2044,1.1776,1.1776,1.1776,1.1776,1.1776,1.1776,1.1655,1.1288,1.1035,1.0671,1.0318,0.9947,0.9822,0.9822,0.9822,0.9822,0.9822,0.9822,0.9822,0.9822,0.9822,0.9822,0.9822,0.9822,0.9822,0.9822,0.9822,0.9822,0.9822,0.9822,0.9822,0.0,0.0,0.0,2.5443,0.0,0.0,0.0,2.6835,2.708,2.7255,2.751,2.7753,2.7995,2.8223,2.8462,2.8609,2.8676,2.8597,2.8051,2.7406,2.6917,2.6682,2.6279,2.5863,2.5611,2.52,2.4786,2.454,2.454,2.454,2.454,2.454,2.454,2.454,2.454,2.454,2.454,2.454,2.454,2.454,2.454,2.454,2.454,2.4368,2.4368,2.4378,2.411,2.3851,2.358,2.2872,2.1961,2.0791,1.9629,1.8819,1.8288,1.8183,1.8168,1.8245,1.8208,1.8375,1.8547,1.8547,1.8767,1.903,1.903,1.9147,1.9279,1.9279,1.9175,1.9071,1.875,1.8325,1.7793,1.7147,1.6405,1.569,1.4853,1.4208,1.3659,1.3101,1.2813,1.2473,1.198,1.1947,1.201,1.1776,1.1776,1.1776,1.1534,1.1281,1.091,1.0547,1.0311,0.9947,0.9822,0.9822,0.9822,0.9822,0.9822,0.9822,0.9822,0.9822,0.9822,0.9822,0.9822,0.9822,0.9822,0.9822,0.9822,0.9822,0.9822,0.9822,0.0,0.0,0.0,0.0,0.0,2.6928,0.0,0.0,0.0,2.8303,2.8542,2.8779,2.9028,0.0,0.0,2.9574,0.0,0.0,0.0,2.8846,0.0,2.7765,2.7103,2.661,2.6279,2.5443,2.4871,2.4615,2.4625,2.4625,2.4625,2.454,2.454,2.454,2.454,2.454,2.454,2.454,2.454,2.454,2.454,2.454,2.454,2.454,2.454,2.454,2.454,2.4368,2.4196,2.3764,2.3125,2.2315,2.0348,1.9271,1.8819,1.845,1.8262,1.8221,1.8125,1.8141,1.8211,1.8211,1.8474,1.8789,1.8789,1.9016,1.9279,1.9279,1.9279,1.9279,1.9078,1.875,1.8422,1.801,1.7259,1.6511,1.5873,1.5281,1.4653,1.4119,1.377,1.3327,1.2268,1.2192,1.2192,1.1889,1.1901,1.1901,1.1776,1.1522,1.1148,1.0895,1.055,1.0197,0.9947,0.9822,0.9822,0.9822,0.9822,0.9822,0.9822,0.9822,0.9822,0.9822,0.9822,0.9822,0.9822,0.9822,0.9822,0.9822,0.9822,0.9822,0.0,0.0,0.0,0.0,2.708,0.0,0.0,0.0,2.904,2.9184,0.0,2.9639,0.0,0.0,0.0,0.0,0.0,0.0,3.0292,3.0203,2.9664,2.8498,2.7765,2.7103,2.6528,2.5695,2.5115,2.5115,2.4946,2.4861,2.4861,2.4615,2.454,2.454,2.454,2.454,2.454,2.454,2.454,2.454,2.454,2.454,2.454,2.454,2.454,2.454,2.454,2.4454,2.4454,2.3927,2.3493,2.2872,2.1624,2.0736,2.0019,1.9371,1.8843,1.8419,1.7961,1.7801,1.7874,1.7874,1.8284,1.8789,1.8789,1.9016,1.9279,1.9279,1.9279,1.9272,1.9279,1.9279,1.9168,1.8862,1.8429,1.7898,1.7173,1.6543,1.5916,1.5386,1.5021,1.4338,1.3022,1.2853,1.2713,1.2242,1.2155,1.203,1.1776,1.1522,1.1273,1.1269,1.0679,1.0322,1.02,0.9947,0.9822,0.9822,0.9822,0.9822,0.9822,0.9822,0.9822,0.9822,0.9822,0.9822,0.9822,0.9822,0.9822,0.9822,0.9822,0.9822,0.0,0.0,0.0,0.0,0.0,0.0,2.9143,0.0,2.9767,0.0,0.0,0.0,0.0,0.0,0.0,0.0,3.0748,3.0685,0.0,0.0,3.0305,2.9534,0.0,0.0,2.6846,2.6185,2.5695,2.5369,2.5115,2.4861,2.4861,2.4615,2.454,2.454,2.454,2.454,2.454,2.454,2.454,2.454,2.454,2.454,2.454,2.454,2.454,2.454,2.454,2.454,2.4454,2.4196,2.3937,2.3667,2.2872,2.1802,2.0645,2.0011,1.9463,1.8819,1.8357,1.7991,1.7764,1.7757,1.7999,1.8255,1.8445,1.8738,1.8994,1.8994,1.9133,1.9279,1.9279,1.9279,1.9272,1.9175,1.8862,1.8548,1.8023,1.7483,1.6836,1.6305,1.5887,1.551,1.4733,1.3924,1.3209,1.2724,1.2393,1.2155,1.203,1.1776,1.1522,1.1273,1.1035,1.08,1.0576,1.0322,1.0072,1.0072,0.9947,0.9822,0.9822,0.9822,0.9822,0.9822,0.9822,0.9822,0.9822,0.9822,0.9822,0.9822,0.9822,0.9822,2.6362,0.0,0.0,0.0,0.0,0.0,0.0,0.0,0.0,0.0,0.0,0.0,0.0,0.0,0.0,0.0,0.0,3.0911,0.0,3.0773,0.0,0.0,0.0,0.0,0.0,2.6764,2.6279,2.5779,2.5369,2.5031,2.5031,2.47,2.454,2.454,2.454,2.454,2.454,2.454,2.454,2.454,2.454,2.454,2.454,2.454,2.454,2.454,2.454,2.454,2.4454,2.4378,2.4292,2.4206,2.3851,2.2872,2.1624,2.0907,2.0093,1.9271,1.8812,1.8172,1.7572,1.7611,1.7743,1.786,1.8094,1.8394,1.8672,1.8767,1.8957,1.9162,1.925,1.9279,1.9279,1.9279,1.9175,1.8869,1.8562,1.8213,1.7667,1.7166,1.6823,1.6405,1.6077,1.5019,1.4035,1.3301,1.2866,1.2513,1.2155,1.2026,1.1776,1.1522,1.1394,1.116,1.0936,1.0683,1.0436,1.0451,1.0197,1.0072,0.9947,0.9947,0.9943,0.9822,0.9822,0.9822,0.9822,0.9822,0.9822,0.9822,0.9822,0.9822,0.0,0.0,0.0,2.8937,0.0,0.0,0.0,0.0,3.0698,0.0,0.0,0.0,0.0,0.0,0.0,0.0,0.0,0.0,0.0,0.0,0.0,0.0,0.0,0.0,0.0,2.7499,2.6928,2.6528,2.5863,2.5369,2.52,2.4786,2.454,2.454,2.454,2.454,2.454,2.454,2.454,2.454,2.454,2.454,2.454,2.454,2.454,2.454,2.454,2.454,2.454,2.4454,2.4368,2.4206,2.4206,2.3851,2.3319,2.2059,2.0881,1.9803,1.9004,1.8172,1.7333,1.734,1.756,1.7816,1.783,1.8057,1.8379,1.8701,1.8796,1.8877,1.9199,1.9279,1.9279,1.9279,1.9272,1.9175,1.8974,1.8596,1.8248,1.803,1.7575,1.7108,1.6759,1.5833,1.4944,1.4059,1.3818,1.3338,1.2022,1.203,1.203,1.1776,1.1522,1.1273,1.1273,1.102,1.0785,1.0822,1.0826,1.0576,1.0322,1.0322,1.0075,0.9822,0.9822,0.9822,0.9822,0.9822,0.9822,0.9822,0.9822,0.9822,0.0,0.0,2.9106,2.9664,0.0,0.0,0.0,0.0,0.0,0.0,0.0,0.0,0.0,0.0,0.0,0.0,0.0,0.0,0.0,0.0,3.0986,3.0836,0.0,0.0,0.0,0.0,2.7822,2.7185,2.6445,2.5779,2.5454,2.5031,2.47,2.454,2.454,2.454,2.454,2.454,2.454,2.454,2.454,2.454,2.454,2.454,2.454,2.454,2.454,2.454,2.454,2.454,2.4454,2.4368,2.4368,2.4196,2.3851,2.2784,2.1802,2.0628,1.9088,1.8172,1.7527,1.7333,1.7399,1.7494,1.7494,1.7721,1.7999,1.8116,1.846,1.8811,1.8928,1.9111,1.9279,1.9279,1.9279,1.9279,1.9175,1.8923,1.8603,1.838,1.7945,1.7694,1.7345,1.6942,1.6114,1.5016,1.4234,1.368,1.3021,1.2376,1.2026,1.1901,1.1772,1.1647,1.1647,1.1273,1.1027,1.0789,1.0789,1.0785,1.066,1.066,1.0422,1.0183,1.0183,1.0065,0.9822,0.9822,0.9822,0.9822,0.9822,0.9822,2.9118,2.9431,0.0,3.0228,3.0381,0.0,3.0773,0.0,3.0849,0.0,0.0,0.0,0.0,0.0,0.0,0.0,0.0,0.0,0.0,3.0986,0.0,0.0,0.0,0.0,0.0,2.9172,2.8542,2.7753,2.6928,2.6196,2.5633,2.52,2.4775,2.4615,2.454,2.454,2.454,2.454,2.454,2.454,2.454,2.454,2.454,2.454,2.454,2.454,2.454,2.454,2.454,2.454,2.454,2.454,2.454,2.4454,2.4196,2.3406,2.2334,2.0988,1.9446,1.8442,1.79,1.7527,1.7426,1.7426,1.7326,1.7472,1.7662,1.7786,1.8116,1.8496,1.873,1.8942,1.9133,1.925,1.9279,1.9279,1.9279,1.9042,1.8819,1.8443,1.8149,1.7932,1.7694,1.7463,1.7009,1.5807,1.5035,1.4334,1.3658,1.2919,1.2334,1.2126,1.203,1.2026,1.1905,1.1651,1.1398,1.1148,1.1144,1.1144,1.102,1.102,1.0781,1.0425,1.0425,1.0304,0.994,0.994,0.9943,0.9822,0.9822,0.9822]},{"header":{"parameterUnit":"m.s-1","parameterCategory":1,"la1":30.6,"la2":29.2853,"lo1":-89.7004,"lo2":-87.6739,"dy":0.0162,"dx":0.0183,"nx":112,"ny":82,"refTime":"2023-09-11T18:00:00:Z","depth":0,"parameterNumber":3,"parameterNumberName":"V-component_of_WINDS"},"data":[0.0,0.0,0.0,0.0,0.0,0.0,0.0,0.0,0.0,0.0,0.0,0.0,0.0,0.0,0.0,0.0,0.0,0.0,0.0,0.0,0.0,0.0,0.0,0.0,0.0,0.0,0.0,0.0,0.0,0.0,0.0,0.0,0.0,0.0,0.0,0.0,0.0,0.0,0.0,0.0,0.0,0.0,0.0,0.0,0.0,0.0,0.0,0.0,0.0,0.0,0.0,0.0,0.0,0.0,0.0,0.0,0.0,0.0,0.0,0.0,0.0,0.0,0.0,0.0,0.0,0.0,0.0,0.0,0.0,0.0,0.0,0.0,0.0,0.0,0.0,0.0,0.0,0.0,0.0,0.0,0.0,0.0,0.0,0.0,0.0,0.0,0.0,0.0,0.0,0.0,4.425,4.3986,4.3529,4.3268,4.3251,4.3268,4.3339,4.3566,0.0,0.0,0.0,0.0,0.0,0.0,0.0,0.0,0.0,0.0,0.0,0.0,0.0,0.0,0.0,0.0,0.0,0.0,0.0,0.0,0.0,0.0,0.0,0.0,0.0,0.0,0.0,0.0,0.0,0.0,0.0,0.0,0.0,0.0,0.0,0.0,0.0,0.0,0.0,0.0,0.0,0.0,0.0,0.0,0.0,0.0,0.0,0.0,0.0,0.0,0.0,0.0,0.0,0.0,0.0,0.0,0.0,0.0,0.0,0.0,0.0,0.0,0.0,0.0,0.0,0.0,0.0,0.0,0.0,0.0,0.0,0.0,0.0,0.0,0.0,0.0,0.0,0.0,0.0,0.0,0.0,0.0,0.0,0.0,0.0,0.0,0.0,0.0,0.0,0.0,0.0,0.0,0.0,0.0,0.0,0.0,0.0,0.0,0.0,0.0,0.0,0.0,0.0,0.0,4.443,4.3809,4.3612,4.3529,4.3444,4.3495,4.3649,4.3832,0.0,0.0,0.0,0.0,0.0,0.0,0.0,0.0,0.0,0.0,0.0,0.0,0.0,0.0,0.0,0.0,0.0,0.0,0.0,0.0,0.0,0.0,0.0,0.0,0.0,0.0,0.0,0.0,0.0,0.0,0.0,0.0,0.0,0.0,0.0,0.0,0.0,0.0,0.0,0.0,0.0,0.0,0.0,0.0,0.0,0.0,0.0,0.0,0.0,0.0,0.0,0.0,0.0,0.0,0.0,0.0,0.0,0.0,0.0,0.0,0.0,0.0,0.0,0.0,0.0,0.0,0.0,0.0,0.0,0.0,0.0,0.0,0.0,0.0,0.0,0.0,0.0,0.0,0.0,0.0,0.0,0.0,0.0,0.0,0.0,0.0,0.0,0.0,0.0,0.0,0.0,0.0,0.0,0.0,0.0,0.0,0.0,0.0,0.0,0.0,0.0,0.0,0.0,4.4719,4.443,4.403,4.3905,4.3841,4.3828,4.3905,4.3999,4.4091,4.4109,0.0,0.0,0.0,0.0,0.0,0.0,0.0,0.0,0.0,0.0,0.0,0.0,0.0,0.0,0.0,0.0,0.0,0.0,0.0,0.0,0.0,0.0,0.0,0.0,0.0,0.0,0.0,0.0,0.0,0.0,0.0,0.0,0.0,0.0,0.0,0.0,0.0,0.0,0.0,0.0,0.0,0.0,0.0,0.0,0.0,0.0,0.0,0.0,0.0,0.0,0.0,0.0,0.0,0.0,0.0,0.0,0.0,0.0,0.0,0.0,0.0,0.0,0.0,0.0,0.0,0.0,0.0,0.0,0.0,0.0,0.0,0.0,0.0,0.0,0.0,0.0,0.0,0.0,0.0,0.0,0.0,0.0,0.0,0.0,0.0,0.0,0.0,0.0,0.0,0.0,0.0,0.0,0.0,0.0,0.0,0.0,0.0,0.0,0.0,0.0,0.0,0.0,4.4693,4.4486,4.4298,4.421,4.4199,4.4229,4.4269,4.4327,4.4421,4.4449,0.0,0.0,0.0,0.0,0.0,0.0,0.0,0.0,0.0,0.0,0.0,0.0,0.0,0.0,0.0,0.0,0.0,0.0,0.0,0.0,0.0,0.0,0.0,0.0,0.0,0.0,0.0,0.0,0.0,0.0,0.0,0.0,0.0,0.0,0.0,0.0,0.0,0.0,0.0,0.0,0.0,0.0,0.0,0.0,0.0,0.0,0.0,0.0,0.0,0.0,0.0,0.0,0.0,0.0,0.0,0.0,0.0,0.0,0.0,0.0,0.0,0.0,0.0,0.0,0.0,0.0,0.0,0.0,0.0,0.0,0.0,0.0,0.0,0.0,0.0,0.0,0.0,0.0,0.0,0.0,0.0,0.0,0.0,0.0,0.0,0.0,0.0,0.0,0.0,0.0,0.0,0.0,0.0,0.0,0.0,0.0,0.0,0.0,0.0,0.0,0.0,0.0,4.487,4.4693,4.4505,4.4468,4.4496,4.4551,4.4578,4.4632,4.4745,4.464,0.0,0.0,0.0,0.0,0.0,0.0,0.0,0.0,0.0,0.0,0.0,0.0,0.0,0.0,0.0,0.0,0.0,0.0,0.0,0.0,0.0,0.0,0.0,0.0,0.0,0.0,0.0,0.0,0.0,0.0,0.0,0.0,0.0,0.0,0.0,0.0,0.0,0.0,0.0,0.0,0.0,0.0,0.0,0.0,0.0,0.0,0.0,0.0,0.0,0.0,0.0,0.0,0.0,0.0,0.0,0.0,0.0,0.0,0.0,0.0,0.0,0.0,0.0,0.0,0.0,0.0,0.0,0.0,0.0,0.0,0.0,0.0,0.0,0.0,0.0,0.0,0.0,0.0,0.0,0.0,0.0,0.0,0.0,0.0,0.0,0.0,0.0,0.0,0.0,0.0,0.0,0.0,0.0,0.0,0.0,0.0,0.0,0.0,0.0,0.0,0.0,0.0,4.501,4.4895,4.4821,4.4796,4.4821,4.4846,4.4846,4.487,4.4919,0.0,0.0,0.0,0.0,0.0,0.0,0.0,0.0,0.0,0.0,0.0,0.0,0.0,0.0,0.0,0.0,0.0,0.0,0.0,0.0,0.0,0.0,0.0,0.0,0.0,0.0,0.0,0.0,0.0,0.0,0.0,0.0,0.0,0.0,0.0,0.0,0.0,0.0,0.0,0.0,0.0,0.0,0.0,0.0,0.0,0.0,0.0,0.0,0.0,0.0,0.0,0.0,0.0,0.0,0.0,0.0,0.0,0.0,0.0,0.0,0.0,0.0,0.0,0.0,0.0,0.0,0.0,0.0,0.0,0.0,0.0,0.0,0.0,0.0,0.0,0.0,0.0,0.0,0.0,0.0,0.0,0.0,0.0,0.0,0.0,0.0,0.0,0.0,0.0,0.0,0.0,0.0,0.0,0.0,0.0,0.0,0.0,0.0,0.0,0.0,0.0,0.0,4.5192,4.5125,4.5057,4.5014,4.5014,4.5057,4.5061,4.5014,4.4991,4.5014,0.0,0.0,0.0,0.0,0.0,0.0,0.0,0.0,0.0,0.0,0.0,0.0,0.0,0.0,0.0,0.0,0.0,0.0,0.0,0.0,0.0,0.0,0.0,0.0,0.0,0.0,0.0,0.0,0.0,0.0,0.0,0.0,0.0,0.0,0.0,0.0,0.0,0.0,0.0,0.0,0.0,0.0,0.0,0.0,0.0,0.0,0.0,0.0,0.0,0.0,0.0,0.0,0.0,0.0,0.0,0.0,0.0,0.0,0.0,0.0,0.0,0.0,0.0,0.0,0.0,0.0,0.0,0.0,0.0,0.0,0.0,0.0,0.0,0.0,0.0,0.0,0.0,0.0,0.0,0.0,0.0,0.0,0.0,0.0,0.0,0.0,0.0,0.0,0.0,0.0,0.0,0.0,0.0,0.0,0.0,0.0,0.0,0.0,0.0,0.0,0.0,0.0,4.5213,4.5192,4.517,4.5125,4.5103,4.5125,4.5192,4.508,4.5014,0.0,0.0,0.0,0.0,0.0,0.0,0.0,0.0,0.0,0.0,0.0,0.0,0.0,0.0,0.0,0.0,0.0,0.0,0.0,0.0,0.0,0.0,0.0,0.0,0.0,0.0,0.0,0.0,0.0,0.0,0.0,0.0,0.0,0.0,0.0,0.0,0.0,0.0,0.0,0.0,0.0,0.0,0.0,0.0,0.0,0.0,0.0,0.0,0.0,0.0,0.0,0.0,0.0,0.0,0.0,0.0,0.0,0.0,0.0,0.0,0.0,0.0,0.0,0.0,0.0,0.0,0.0,0.0,0.0,0.0,0.0,0.0,0.0,0.0,0.0,0.0,0.0,0.0,0.0,0.0,0.0,0.0,0.0,0.0,0.0,0.0,0.0,0.0,0.0,0.0,0.0,0.0,0.0,0.0,0.0,0.0,0.0,0.0,0.0,0.0,0.0,0.0,0.0,4.5275,4.5275,4.5256,4.5235,4.5235,4.5254,4.5275,4.5148,4.508,4.5103,0.0,0.0,0.0,0.0,0.0,0.0,0.0,0.0,0.0,0.0,0.0,0.0,0.0,0.0,0.0,0.0,0.0,0.0,0.0,0.0,0.0,0.0,0.0,0.0,0.0,0.0,0.0,0.0,0.0,0.0,0.0,0.0,0.0,0.0,0.0,0.0,0.0,0.0,0.0,0.0,0.0,0.0,0.0,0.0,0.0,0.0,0.0,0.0,0.0,0.0,0.0,0.0,0.0,0.0,0.0,0.0,0.0,0.0,0.0,0.0,0.0,0.0,0.0,0.0,0.0,0.0,0.0,0.0,0.0,0.0,0.0,0.0,0.0,0.0,0.0,0.0,0.0,0.0,0.0,0.0,0.0,0.0,0.0,0.0,0.0,0.0,0.0,0.0,0.0,0.0,0.0,0.0,0.0,0.0,0.0,0.0,0.0,0.0,0.0,0.0,0.0,0.0,4.5297,4.5297,4.5297,4.5297,4.5297,4.5297,4.5297,4.5192,4.5148,4.5148,0.0,0.0,0.0,0.0,0.0,0.0,0.0,0.0,0.0,0.0,0.0,0.0,0.0,0.0,0.0,0.0,0.0,0.0,0.0,0.0,0.0,0.0,0.0,0.0,0.0,0.0,0.0,0.0,0.0,0.0,0.0,0.0,0.0,0.0,0.0,0.0,0.0,0.0,0.0,0.0,0.0,0.0,0.0,0.0,0.0,0.0,0.0,0.0,0.0,0.0,0.0,0.0,0.0,0.0,0.0,0.0,0.0,0.0,0.0,0.0,0.0,0.0,0.0,0.0,0.0,0.0,0.0,0.0,0.0,0.0,0.0,0.0,0.0,0.0,0.0,0.0,0.0,0.0,0.0,0.0,0.0,0.0,0.0,0.0,0.0,0.0,0.0,0.0,0.0,0.0,0.0,0.0,0.0,0.0,0.0,0.0,0.0,0.0,0.0,0.0,0.0,0.0,4.5317,4.5317,4.5317,4.5317,4.5317,4.5317,4.5317,4.5311,4.5328,4.5328,0.0,0.0,0.0,0.0,0.0,0.0,0.0,0.0,0.0,0.0,0.0,0.0,0.0,0.0,0.0,0.0,0.0,0.0,0.0,0.0,0.0,0.0,0.0,0.0,0.0,0.0,0.0,0.0,0.0,0.0,0.0,0.0,0.0,0.0,0.0,0.0,0.0,0.0,0.0,0.0,0.0,0.0,0.0,0.0,0.0,0.0,0.0,0.0,0.0,0.0,0.0,0.0,0.0,0.0,0.0,0.0,0.0,0.0,0.0,0.0,4.5684,4.5687,0.0,0.0,0.0,0.0,0.0,0.0,0.0,0.0,0.0,0.0,0.0,0.0,0.0,0.0,0.0,0.0,0.0,0.0,0.0,0.0,0.0,0.0,0.0,0.0,0.0,0.0,0.0,0.0,0.0,0.0,0.0,0.0,0.0,0.0,0.0,0.0,0.0,0.0,0.0,0.0,4.5378,4.538,4.5381,4.5381,4.5381,4.5381,4.5381,4.5953,4.6294,4.6294,4.6882,0.0,0.0,0.0,0.0,0.0,0.0,0.0,0.0,0.0,0.0,0.0,0.0,0.0,0.0,0.0,0.0,0.0,0.0,0.0,0.0,0.0,0.0,0.0,0.0,0.0,0.0,0.0,0.0,0.0,0.0,0.0,0.0,0.0,0.0,0.0,0.0,0.0,0.0,0.0,0.0,0.0,0.0,0.0,0.0,0.0,0.0,0.0,0.0,0.0,0.0,0.0,0.0,0.0,0.0,0.0,0.0,0.0,0.0,0.0,4.5696,4.57,0.0,0.0,0.0,0.0,0.0,0.0,0.0,0.0,0.0,0.0,0.0,0.0,0.0,0.0,0.0,0.0,0.0,0.0,0.0,0.0,0.0,0.0,0.0,0.0,0.0,0.0,0.0,0.0,0.0,0.0,0.0,0.0,0.0,0.0,0.0,0.0,0.0,0.0,0.0,0.0,4.6014,4.6071,4.6224,4.6647,4.6742,4.676,4.676,4.7126,4.7376,4.7376,4.776,0.0,0.0,0.0,0.0,0.0,0.0,0.0,0.0,0.0,0.0,0.0,0.0,0.0,0.0,0.0,0.0,0.0,0.0,0.0,0.0,0.0,0.0,0.0,0.0,0.0,0.0,0.0,0.0,0.0,0.0,0.0,0.0,0.0,0.0,0.0,0.0,0.0,0.0,0.0,0.0,0.0,0.0,0.0,0.0,0.0,0.0,0.0,0.0,0.0,0.0,0.0,0.0,0.0,4.5795,4.5824,4.5827,4.5827,4.5827,4.5827,4.5791,4.5746,4.5712,4.568,0.0,0.0,0.0,0.0,0.0,0.0,0.0,0.0,0.0,0.0,0.0,0.0,0.0,0.0,0.0,0.0,0.0,0.0,0.0,0.0,0.0,0.0,0.0,0.0,4.6503,4.643,4.6387,0.0,0.0,0.0,0.0,0.0,0.0,0.0,0.0,0.0,0.0,0.0,4.6971,4.7064,4.7351,4.8081,4.8193,4.8246,4.8246,4.8359,4.8436,4.8441,4.8596,4.8638,0.0,0.0,0.0,0.0,0.0,0.0,0.0,0.0,0.0,0.0,0.0,0.0,0.0,0.0,0.0,0.0,0.0,0.0,0.0,0.0,0.0,0.0,0.0,0.0,0.0,0.0,0.0,0.0,0.0,0.0,0.0,0.0,4.5586,4.5586,0.0,0.0,0.0,0.0,0.0,0.0,0.0,0.0,0.0,0.0,0.0,0.0,0.0,4.5665,4.5665,4.575,4.5776,4.5786,4.5847,4.5887,4.5893,4.5893,4.5917,4.598,4.5968,0.0,4.5786,4.5833,0.0,0.0,0.0,0.0,0.0,0.0,0.0,0.0,0.0,0.0,0.0,0.0,0.0,0.0,0.0,0.0,0.0,0.0,0.0,0.0,0.0,0.0,4.8494,4.8377,4.8322,4.8243,0.0,4.7602,4.7017,4.7017,4.7669,0.0,0.0,0.0,0.0,0.0,0.0,0.0,4.8083,4.8153,4.8241,4.8357,4.8377,4.8357,4.8357,4.901,4.9405,4.9415,5.013,5.0499,5.0465,5.0428,0.0,0.0,0.0,0.0,0.0,0.0,0.0,0.0,0.0,0.0,0.0,0.0,0.0,0.0,0.0,0.0,0.0,0.0,0.0,0.0,0.0,0.0,0.0,0.0,0.0,0.0,0.0,0.0,0.0,4.5657,4.5657,4.5671,4.5671,4.5671,0.0,0.0,0.0,0.0,0.0,0.0,0.0,0.0,0.0,4.5757,4.5791,4.5805,4.5805,4.5847,4.5874,4.5912,4.5944,4.596,4.5966,4.5966,4.5988,4.6066,4.6056,4.6017,4.5978,4.6042,4.6038,4.5956,0.0,0.0,0.0,0.0,4.6119,4.617,4.6226,4.6596,4.7092,4.7487,0.0,0.0,0.0,0.0,0.0,0.0,0.0,5.0263,0.0,0.0,4.9904,4.8933,4.8643,4.8593,4.8602,4.8666,4.8565,0.0,4.8669,4.9239,4.9194,0.0,0.0,0.0,0.0,4.8522,4.9025,4.9151,4.9373,4.9877,4.991,4.9924,4.9924,5.028,5.0467,5.0448,5.0797,5.0979,5.0858,5.0861,5.0877,0.0,0.0,0.0,0.0,0.0,0.0,0.0,0.0,0.0,0.0,0.0,0.0,0.0,0.0,0.0,0.0,0.0,0.0,0.0,0.0,0.0,0.0,0.0,0.0,0.0,0.0,0.0,0.0,4.5742,4.5738,4.5746,4.5746,4.5727,0.0,0.0,0.0,0.0,0.0,0.0,4.5852,4.5852,4.5847,4.5848,4.5893,4.5937,4.5949,4.5941,4.5975,4.6016,4.6026,4.6037,4.6054,4.6044,4.608,4.6142,4.6131,4.6144,4.615,4.6197,4.6173,4.6134,4.6134,4.6134,4.6134,4.6185,4.6346,4.6532,4.6592,4.719,4.7939,4.8174,4.8798,4.9384,4.8993,0.0,0.0,0.0,0.0,5.1394,5.1394,5.1342,5.0975,4.9663,4.9304,4.9273,4.9271,4.9765,4.9959,0.0,4.9629,5.0231,5.0176,0.0,0.0,0.0,0.0,4.9356,5.0001,5.0125,5.041,5.1069,5.1134,5.1127,5.1127,5.1159,5.1146,5.1101,5.1087,5.102,5.0906,5.0906,5.0906,5.0906,0.0,0.0,0.0,0.0,0.0,0.0,0.0,0.0,0.0,0.0,0.0,0.0,0.0,0.0,0.0,0.0,0.0,0.0,0.0,0.0,0.0,0.0,0.0,0.0,0.0,0.0,0.0,0.0,0.0,4.588,4.5827,0.0,0.0,0.0,0.0,4.598,4.5937,4.5929,4.5986,4.5983,4.5994,4.5988,4.5988,4.6027,4.6084,4.6084,4.6083,4.6088,4.6084,4.6125,4.6183,4.6195,4.6192,4.6182,4.6182,4.6234,4.6287,4.6216,4.6195,4.6196,4.6196,4.6196,4.6196,4.6203,4.6727,4.7431,4.7435,4.801,4.8876,4.9716,5.0555,5.1258,5.1238,5.1258,0.0,0.0,5.1338,5.1394,5.1394,5.1355,5.1267,5.1123,5.1074,5.1061,5.1066,5.1105,5.0872,0.0,5.0542,5.1125,5.1125,0.0,5.1132,5.1132,5.1093,5.1074,5.1113,5.1132,5.1152,5.119,5.1202,5.1202,5.1202,5.1139,5.1102,5.1101,5.1053,5.0971,5.0906,5.0906,5.0906,5.0906,5.1718,0.0,0.0,0.0,0.0,0.0,0.0,0.0,0.0,0.0,0.0,0.0,0.0,0.0,0.0,0.0,0.0,0.0,0.0,0.0,0.0,0.0,0.0,0.0,0.0,0.0,0.0,0.0,0.0,4.5956,4.5936,0.0,4.6017,4.6037,4.6037,4.6056,4.6047,4.6037,4.6054,4.6063,4.608,4.6123,4.6137,4.6151,4.6157,4.6157,4.6164,4.6162,4.6162,4.6197,4.6257,4.6257,4.6264,4.6254,4.6258,4.628,4.6303,4.6262,4.6251,4.6264,4.6264,4.6236,4.6279,4.6835,4.7231,4.7572,4.8146,4.8912,4.9774,5.064,5.1151,5.1405,5.1391,5.1391,5.1391,5.1391,5.1398,5.1401,5.1401,5.1355,5.1284,5.1265,5.1228,5.1191,5.1208,5.1197,5.1109,5.0794,5.0989,5.1202,5.1202,5.1202,5.1202,5.1202,5.1202,5.1202,5.1202,5.1202,5.1202,5.1202,5.1202,5.1202,5.1202,5.1139,5.1102,5.1101,5.1039,5.0971,5.0906,5.0906,5.1157,5.1738,5.2028,5.2743,0.0,0.0,0.0,0.0,0.0,0.0,0.0,0.0,0.0,0.0,0.0,0.0,0.0,0.0,0.0,0.0,0.0,0.0,0.0,0.0,0.0,0.0,0.0,0.0,0.0,4.5958,4.5988,4.606,4.6068,4.6068,4.6137,4.6137,4.613,4.6137,4.6137,4.6137,4.6138,4.6125,4.6156,4.6231,4.6221,4.623,4.6234,4.6234,4.6234,4.6222,4.6225,4.6251,4.63,4.6301,4.6303,4.6306,4.6307,4.6307,4.6308,4.6308,4.6306,4.6309,4.6309,4.6456,4.6748,4.7322,4.7888,4.8498,4.9368,5.0055,5.0624,5.1218,5.1396,5.1398,5.1402,5.1403,5.1403,5.1403,5.1396,5.1405,5.1405,5.1371,5.1327,5.1317,5.1264,5.123,5.1239,5.124,5.123,5.1229,5.1225,5.1202,5.1202,5.1202,5.1202,5.1202,5.1202,5.1202,5.1202,5.1202,5.1202,5.1202,5.1202,5.1202,5.1202,5.1146,5.1108,5.1101,5.102,5.1091,5.1331,5.1351,5.1757,5.2608,5.2917,5.3788,5.52,0.0,0.0,0.0,0.0,0.0,0.0,0.0,0.0,0.0,0.0,0.0,0.0,0.0,0.0,0.0,0.0,0.0,0.0,0.0,0.0,0.0,0.0,0.0,4.6105,4.6105,4.6125,4.6201,4.6197,4.6201,4.6202,4.6195,4.6195,4.6202,4.6195,4.6195,4.6202,4.6195,4.6238,4.6293,4.6293,4.6297,4.6301,4.6301,4.6301,4.6301,4.6306,4.6307,4.6307,4.6308,4.6308,4.6308,4.6308,4.6308,4.6308,4.6328,4.6347,4.634,4.634,4.6861,4.7608,4.7666,4.872,5.0262,5.1115,5.1394,5.14,5.1404,5.1405,5.1405,5.1406,5.1406,5.1406,5.1406,5.1405,5.1398,5.1398,5.1408,5.1375,5.1323,5.1294,5.1297,5.1297,5.1296,5.13,5.13,5.1249,5.1214,5.1202,5.1202,5.1202,5.1202,5.1202,0.0,5.1202,5.1202,5.1202,5.1202,5.1202,5.1202,5.1202,5.114,5.112,5.1139,5.101,5.1331,5.2202,5.224,5.2647,5.3517,5.4387,5.5219,5.6012,0.0,0.0,0.0,0.0,0.0,0.0,0.0,0.0,0.0,0.0,0.0,0.0,0.0,0.0,0.0,0.0,0.0,0.0,0.0,0.0,0.0,4.6278,4.6251,4.6177,4.6172,4.6201,4.6264,4.6264,4.6267,4.6278,4.6276,4.6276,4.6278,4.6276,4.6276,4.6278,4.6261,4.6282,4.6305,4.6307,4.6307,4.6308,4.6308,4.6308,4.6308,4.6308,4.6308,4.6308,4.6306,4.6305,4.6305,4.6305,4.6305,4.6344,4.6988,4.7244,4.7246,4.7242,4.7391,4.7754,4.8965,5.0105,5.1088,5.1324,5.1405,5.1406,5.1404,5.1402,5.1398,5.1391,5.1408,5.1408,5.1408,5.1398,5.1404,5.1404,5.1406,5.1403,5.1381,5.1374,5.1363,5.1308,5.1333,5.1355,5.1304,5.1323,5.132,5.1287,5.1258,5.1278,5.1259,5.124,0.0,5.1208,5.1197,5.1206,5.1202,5.1202,5.1171,5.1127,5.1108,5.1358,5.193,5.1885,5.2221,5.3111,5.313,5.3556,5.4426,5.5258,5.578,0.0,0.0,0.0,0.0,0.0,0.0,0.0,0.0,0.0,0.0,0.0,0.0,0.0,0.0,0.0,0.0,0.0,0.0,0.0,0.0,0.0,0.0,4.6288,4.6249,4.621,4.6225,4.6262,4.6307,4.6307,4.6307,4.6308,4.6308,4.6308,4.6308,4.6308,4.6308,4.6308,4.6308,4.6308,4.6308,4.6307,4.6307,4.6307,4.6307,4.6307,4.6306,4.6303,4.6282,4.6256,4.6254,4.6267,4.6264,4.6264,4.6479,4.685,4.7357,4.7774,4.8096,0.0,0.0,0.0,0.0,5.0976,5.1406,5.1406,5.1403,5.1396,5.1408,5.1402,5.1394,5.1406,5.1401,5.1401,5.1401,5.1394,5.1391,5.1391,5.14,5.1405,5.1406,5.1406,5.1385,5.1342,5.1374,5.1389,5.1343,5.1363,0.0,5.1347,5.1336,5.1342,5.1328,5.1281,5.1245,5.1249,5.1211,5.119,5.1206,5.1175,5.1152,5.1095,5.1411,0.0,0.0,0.0,5.313,5.4,5.4368,0.0,0.0,0.0,5.6065,5.6082,5.6082,0.0,0.0,5.6029,5.6012,0.0,0.0,0.0,0.0,0.0,0.0,0.0,0.0,0.0,0.0,0.0,0.0,0.0,0.0,0.0,0.0,4.6228,4.6191,4.6182,4.6248,4.6282,4.6297,4.6297,4.6297,4.6297,4.6297,4.6297,4.6297,4.6297,4.6297,4.6297,4.6297,0.0,0.0,0.0,4.6297,4.6297,4.6297,4.6295,4.629,4.6287,4.6241,4.6182,4.6201,4.6192,4.6195,4.6273,4.676,4.7495,4.769,4.8273,4.9064,4.8975,4.9471,5.0331,5.1111,5.14,5.1394,5.1408,0.0,0.0,5.1396,5.1391,5.1386,5.1394,5.1388,5.1388,5.1388,5.1391,5.139,5.139,5.1405,5.1396,5.1396,5.14,5.1404,5.1404,5.1405,5.1406,5.1406,5.1406,5.1406,5.1406,5.1411,5.1411,5.1405,5.1355,5.1317,5.1296,5.1253,5.12,5.121,0.0,0.0,5.1244,5.1895,5.2395,5.2574,5.3336,5.4152,5.4926,5.5642,5.6046,5.6114,5.6114,5.613,5.6214,5.6214,5.6209,5.6209,5.6078,5.6046,0.0,0.0,0.0,0.0,0.0,0.0,0.0,0.0,0.0,0.0,0.0,0.0,0.0,0.0,0.0,4.6211,4.615,4.6112,4.6118,4.613,4.6151,4.6216,4.6221,4.6221,4.6221,4.6221,4.6221,4.6221,4.6221,4.6221,4.6221,4.6221,4.6221,4.6221,4.6221,4.6221,4.6221,4.6221,4.6221,4.6216,4.6226,0.0,4.6112,4.6118,4.6123,4.6158,4.682,4.7189,4.7454,4.8855,4.9952,5.0685,5.0083,5.0379,5.116,5.1346,5.1398,5.141,5.1406,5.1352,5.133,5.1323,5.131,5.1316,5.1316,5.1308,0.0,5.1308,5.1356,5.14,5.14,5.1401,5.1402,5.1402,5.1408,5.1394,5.1394,5.1398,5.1402,5.1402,5.1402,5.1402,5.1402,5.1406,5.1403,5.14,5.1394,5.1363,5.1313,5.1284,5.1289,5.1278,5.121,5.1439,5.2096,5.2279,5.2923,5.422,5.513,5.5691,5.5916,5.6071,5.618,5.617,5.617,5.6213,5.6278,5.6278,5.629,5.6275,5.6204,5.618,0.0,0.0,0.0,0.0,0.0,0.0,0.0,0.0,0.0,0.0,0.0,4.6183,0.0,0.0,4.6105,4.6096,4.6063,4.6056,4.6047,4.6017,4.6037,4.615,4.6157,4.6157,4.6157,4.6157,4.6157,4.6157,4.6157,4.6157,4.6157,4.6157,4.6157,4.6157,4.6157,4.6157,4.6157,4.6157,4.6137,4.6103,4.6096,4.6072,4.6056,4.6047,4.6027,4.6055,4.689,4.7512,4.8036,4.9779,5.0772,5.1162,5.0842,5.0976,5.1357,5.1352,5.1341,5.1355,5.1349,5.133,5.1296,5.1296,5.1308,5.13,5.13,5.13,5.13,5.13,5.1349,5.1394,5.1394,5.1396,5.1394,5.1394,5.1398,5.1402,5.1402,5.1405,5.1408,5.1408,5.1408,5.1408,5.1408,5.1394,5.14,5.1405,5.1406,5.1385,5.1357,5.134,5.1552,5.2097,5.2002,5.2222,5.3027,5.3443,5.4181,5.5414,5.5923,5.619,5.6246,5.6246,5.6272,5.6302,5.6306,5.6328,5.6349,5.6339,5.6357,5.6347,5.631,5.6297,0.0,0.0,0.0,0.0,0.0,0.0,0.0,0.0,4.6192,4.6171,4.6128,4.6099,4.6076,4.6046,4.6008,4.5978,4.5975,4.598,4.598,4.5917,4.5929,4.6027,4.6047,4.6066,4.6066,4.6066,4.6066,4.6066,4.6066,4.6066,4.6066,4.6066,4.6066,4.6066,4.6066,4.6066,4.6066,4.6066,4.6037,4.5978,4.5978,4.5966,4.598,4.598,4.6034,4.6183,4.723,4.818,4.9104,5.0525,5.1136,5.1189,5.124,5.1284,5.1303,5.1303,5.1303,5.1303,5.1308,5.13,5.13,5.13,5.13,5.13,5.13,5.13,5.13,5.13,5.1349,5.1394,5.1394,5.1396,5.1394,5.1394,5.1394,5.1394,5.1394,5.1394,5.1394,5.1394,5.1394,5.1394,5.1394,5.1394,5.1398,5.1394,5.14,5.1404,5.1406,5.1697,5.2194,5.2932,5.3019,5.3311,5.3993,5.4758,5.5488,5.6193,5.6246,5.6258,5.6317,5.6328,5.6349,5.6416,5.6414,5.6418,5.642,5.6413,5.6419,5.6444,5.6444,5.6439,4.6282,4.6288,4.6287,4.6217,4.6209,4.6202,0.0,0.0,4.6189,4.6118,4.6107,4.6074,4.6016,4.6014,4.5972,4.591,4.5912,4.5906,4.5906,4.5841,4.5827,4.5841,4.5893,4.591,4.591,4.591,4.591,4.591,4.591,4.591,4.591,4.591,4.591,4.591,4.591,4.591,4.591,4.591,4.5929,4.591,4.591,4.5905,4.5906,4.5906,4.63,4.7052,4.872,4.9949,5.0829,5.1024,5.1101,5.1117,5.119,5.1249,5.1295,5.13,5.13,5.13,5.13,5.13,5.13,5.13,5.13,5.13,5.13,5.13,5.13,5.13,5.1349,5.1394,5.1394,5.1396,5.1394,5.1394,5.1394,5.1394,5.1394,5.1394,5.1394,5.1394,5.1394,5.1394,5.1394,5.1394,5.1394,5.1398,5.1405,5.1394,5.14,5.2754,5.3551,5.3134,5.3975,5.4663,5.4936,5.5743,5.627,5.6377,5.6368,5.6377,5.6383,5.6379,5.642,5.6497,5.6497,5.6494,5.6497,5.6497,5.6523,5.6588,5.6588,5.6556,4.6237,4.6248,0.0,0.0,4.615,4.6125,4.6096,4.608,4.6074,4.6056,4.6007,4.5994,4.5956,4.5899,4.5867,0.0,4.5841,4.5847,4.5847,4.5814,4.58,4.58,4.5808,4.5835,4.5835,4.5835,4.5835,4.5835,4.5835,4.5835,4.5835,4.5835,4.5835,4.5835,4.5835,4.5835,4.5835,4.5835,4.5835,4.5835,4.5835,4.6112,4.6602,4.6648,4.7384,4.8715,4.9445,5.0267,5.1089,5.1095,5.1132,5.1159,5.119,5.1249,5.1295,5.1292,5.13,5.13,5.13,5.13,5.13,5.13,5.13,5.13,5.13,5.13,5.13,5.1296,5.1356,5.1394,5.1405,5.1401,5.1394,5.1394,5.1394,5.1394,5.1394,5.1394,5.1394,5.1394,5.1394,5.1394,5.1394,5.1394,5.1394,5.1394,5.1398,5.1577,5.2088,5.3236,5.4101,5.4352,5.5238,5.5825,5.5914,5.6238,5.6465,5.6452,5.6465,5.6452,5.6455,5.646,5.6489,5.6559,5.6563,5.6568,5.6556,5.6558,5.658,5.662,5.7128,5.734,4.6115,0.0,0.0,4.6065,4.6037,4.6037,4.5947,4.5944,4.5941,4.5937,4.5899,4.5874,4.5847,4.5805,4.5771,4.5771,4.5771,4.5771,4.5771,4.5771,4.5771,4.5766,4.5771,4.5766,4.5742,4.5766,4.5786,4.5766,4.5771,4.5771,4.5771,4.5791,4.5907,4.6119,4.6216,4.6351,4.6486,4.6486,4.6486,4.6486,4.6486,4.6815,4.7434,4.7729,4.8565,4.9788,5.0021,5.0513,5.1102,5.1102,5.1139,5.1167,5.1169,5.122,5.1269,5.1267,5.1284,5.13,5.13,5.13,5.13,5.13,5.13,5.13,5.13,5.13,5.1296,5.131,5.1349,5.1405,5.1396,5.1406,5.1394,5.1394,5.1394,5.1394,5.1394,5.1394,5.1394,5.1394,5.1394,5.1394,5.1394,5.1394,5.1394,5.1394,5.1668,5.198,5.2296,5.3307,5.4431,5.5546,5.6186,5.6532,5.6529,5.6536,5.6532,5.6536,5.6532,5.6536,5.6529,5.6532,5.6554,5.6597,5.6599,5.66,5.66,5.6601,5.6601,5.6621,5.748,5.8027,4.5924,0.0,4.591,4.5911,4.5896,4.5893,4.5827,4.5814,4.58,4.5795,4.5795,4.5781,4.5715,4.5696,4.5715,4.5715,4.5715,4.5715,4.5715,4.5715,4.5696,4.5692,4.5696,4.5688,0.0,4.5718,4.5785,4.5708,4.5696,4.5715,4.5715,4.5761,4.615,4.6954,4.7284,4.7709,4.8227,4.8227,4.8227,4.8227,4.8227,4.8246,4.8285,4.9145,4.9575,4.9746,5.0598,5.1034,5.1101,5.1101,5.1108,5.1095,5.1108,5.1144,5.12,5.12,5.124,5.13,5.13,5.13,5.13,5.13,5.13,5.13,5.13,5.1296,5.1291,5.1291,5.1355,5.1396,5.1396,5.1406,5.1394,5.1394,5.1394,5.1394,5.1394,5.1394,5.1394,5.1394,5.1394,5.1394,5.1394,5.1394,5.1394,5.1394,5.2331,5.2667,5.1584,5.2943,5.4667,5.6387,5.6582,5.6601,5.6599,5.6599,5.6597,5.6593,5.6597,5.6599,5.6599,5.6601,5.6601,5.6601,5.6601,5.6601,5.6601,5.6601,5.6601,5.6621,5.748,5.8359,4.5665,0.0,4.5673,4.5594,4.5607,4.5638,4.5648,4.5668,4.5687,4.5671,4.5654,4.5654,4.5637,4.5637,4.5637,4.5637,4.5637,4.5637,4.5637,4.5632,4.5629,4.5626,4.5601,0.0,0.0,0.0,0.0,4.5693,4.5697,4.5699,4.5699,4.5722,4.6394,4.7815,4.8219,4.8508,4.8699,4.8354,4.818,4.818,4.8739,4.9026,4.9062,4.9982,5.0417,5.0445,5.079,5.0956,5.0956,5.0956,5.0986,5.1029,5.1029,5.1056,5.1076,5.112,5.1156,5.1189,5.1278,5.1312,5.13,5.13,5.13,5.13,5.1296,5.131,5.1317,5.1361,5.1372,5.1401,5.1406,5.139,5.1394,5.1394,5.1394,5.1394,5.1394,5.1394,5.1394,5.1394,5.1394,5.1394,5.1394,5.1394,5.1668,5.2409,5.321,5.3979,5.4755,5.5365,5.5954,5.6543,5.6601,5.6601,5.6601,5.6601,5.6601,5.66,5.6601,5.6601,5.6601,5.6601,5.6601,5.6601,5.6601,5.6601,5.6601,5.6601,5.6601,5.6621,5.8086,5.8926,4.5456,4.5475,4.551,4.538,4.5399,4.5455,4.5476,4.5495,4.5495,4.5495,4.5495,4.5495,4.5495,4.5495,4.5495,4.5495,4.5495,4.5495,4.5495,4.5475,4.5491,4.5493,4.5458,4.5398,0.0,0.0,0.0,4.5975,4.6263,4.6455,4.6435,4.6511,4.7106,4.8392,4.9026,4.9353,4.9391,4.9065,4.8891,4.8891,4.9449,4.9739,4.9779,5.0414,5.0701,5.0699,5.0752,5.0789,5.0789,5.0789,5.0825,5.0858,5.0858,5.0855,5.0902,5.0966,5.1015,5.105,5.1169,5.124,5.123,5.1258,5.1267,5.1267,5.1281,5.1296,5.131,5.1355,5.1386,5.1391,5.1406,5.141,5.141,5.1394,5.1394,5.1394,5.1394,5.1648,5.1863,5.1863,5.2117,5.2331,5.2331,5.2331,5.2683,5.3737,5.4225,5.4974,5.6417,5.6595,5.6598,5.6601,5.6601,5.6601,5.6601,5.6601,5.6601,5.6601,5.6601,5.6601,5.6601,5.6601,5.6601,5.6601,5.6601,5.6601,5.6601,5.6601,5.6601,5.664,5.8398,5.9199,4.5277,4.5335,4.5373,4.5297,4.5277,4.5297,4.5297,4.5297,4.5297,4.5297,4.5297,4.5297,4.5297,4.5297,4.5297,4.5297,4.5297,4.5297,4.5297,4.5301,4.5282,0.0,0.0,0.0,0.0,0.0,0.0,4.661,4.7369,4.7853,4.7892,4.8041,4.8285,4.8747,4.9629,5.0164,5.0278,5.0278,5.0278,5.0278,5.0278,5.0325,5.0393,5.0459,5.0483,5.0486,5.0547,5.0587,5.0587,5.0587,5.0587,5.0587,5.0587,5.0625,5.0701,5.0775,5.0825,5.0902,5.1024,5.1093,5.1105,5.1178,5.1189,5.1219,5.1269,5.1295,5.13,5.1342,5.1421,5.1472,5.1528,5.1533,5.1538,5.1527,5.1531,5.1531,5.1531,5.2175,5.2761,5.2761,5.3424,5.401,5.401,5.4049,5.4342,5.5181,5.5337,5.5677,5.6493,5.6597,5.66,5.6601,5.6601,5.6601,5.6601,5.6601,5.6601,5.6601,5.6601,5.6601,5.6601,5.6601,5.6601,5.6601,5.6601,5.6601,5.6601,5.6601,5.6621,5.6719,5.8418,5.9219,4.5014,4.508,4.5148,4.5045,4.5087,4.5148,4.5148,4.5148,4.5148,4.5148,4.5148,4.5148,4.5148,4.5148,0.0,4.5148,4.5148,0.0,4.5148,4.5151,0.0,4.5141,0.0,4.5328,4.5956,4.6683,0.0,0.0,4.8201,4.858,4.9325,4.9415,4.9466,4.9581,4.9929,5.0081,5.0005,5.01,5.0158,5.0158,5.0158,5.0158,5.0182,5.0264,5.0291,5.0352,5.0462,5.0523,5.0523,5.0523,5.0523,5.0523,5.0523,5.0544,5.0544,5.0624,5.0664,5.0683,5.0736,5.0867,5.103,5.1063,5.1076,5.1132,5.1147,5.12,5.1366,5.2007,5.22,5.2391,5.3084,5.3267,5.328,5.3328,5.3333,5.3333,5.3342,5.3502,5.3678,5.3678,5.3854,5.401,5.401,5.4537,5.5044,5.5259,5.5845,5.6341,5.6571,5.6595,5.6598,5.6601,5.6601,5.6601,5.6601,5.6601,5.6601,5.6601,5.6601,5.6601,5.6601,5.6601,5.6601,5.6601,5.6601,5.6601,5.6601,5.6601,5.6933,5.7598,5.8691,5.9512,4.4764,4.477,4.4821,4.4783,4.4808,4.4833,4.4919,4.4919,4.4919,4.4919,4.4943,4.4967,4.4967,4.4991,4.5014,0.0,0.0,0.0,4.5014,4.5014,4.501,0.0,4.4976,0.0,4.6184,4.6942,4.7757,0.0,4.892,4.9288,4.9886,4.9898,4.9891,4.9891,4.9967,4.9967,4.9891,4.9967,5.0005,5.0005,5.0005,5.0031,5.0057,5.012,5.0193,5.0278,5.0371,5.0416,5.0416,5.0416,5.0416,5.0416,5.0416,5.0416,5.0416,5.0478,5.05,5.0521,5.0565,5.0644,5.0789,5.0855,5.1154,5.1509,5.1532,5.1845,5.2311,5.2807,5.2966,5.3105,5.3672,5.3827,5.3872,5.3936,5.3969,5.3955,5.3996,5.4274,5.465,5.5064,5.5142,5.5142,5.5142,5.5552,5.5864,5.5864,5.6294,5.6591,5.6607,5.6591,5.6597,5.6601,5.6601,5.6601,5.6601,5.6601,5.6601,5.6601,5.6601,5.6601,5.6601,5.6601,5.6601,5.6601,5.6601,5.6601,5.6601,5.6601,5.7051,5.793,5.8789,5.9629,4.4487,4.4468,4.4468,4.4513,4.4495,4.4503,4.4621,4.464,4.4685,4.4685,0.0,4.4745,4.477,4.4821,4.4889,4.487,0.0,4.4895,4.4895,4.499,4.5066,4.5066,4.516,4.5577,4.6449,4.715,4.7927,4.878,4.95,4.9898,4.9898,4.9898,4.9898,4.9898,4.9898,4.9898,4.9898,4.9898,4.9898,4.9898,4.9898,4.9952,5.0024,5.0082,5.0133,5.0188,5.0278,5.0302,5.0302,5.0302,5.0302,5.0302,5.0302,5.0302,5.0302,5.0367,5.039,5.0412,5.0438,5.0555,5.0673,5.0798,5.1356,5.2009,5.2194,5.2824,5.3511,5.3635,5.3703,5.3785,5.3948,5.4055,5.4119,5.4195,5.4239,5.4254,5.4326,5.4884,5.5616,5.6445,5.6606,5.6606,5.6606,5.6606,5.6606,5.6606,5.6606,5.661,5.6598,5.6607,5.6595,5.6599,5.6601,5.6601,5.6601,5.6601,5.6601,5.6601,5.6601,5.6601,5.6601,5.6601,5.6601,5.6601,5.6601,5.6601,5.6601,5.6719,5.7226,5.8086,5.8965,5.9805,4.424,4.424,4.4221,4.4138,4.4233,4.4346,4.4365,4.4477,0.0,0.0,4.4524,4.4551,4.4632,4.4659,4.4685,4.4796,4.484,4.4821,4.4895,4.5507,4.5968,0.0,4.6563,4.7302,4.8174,4.8382,0.0,0.0,4.9803,4.9898,4.9898,4.9898,4.9898,4.9898,4.9898,4.9898,4.9898,4.9898,4.9898,4.9898,4.9898,4.9971,5.0081,5.0158,5.0171,5.0188,5.0278,0.0,5.0302,5.0302,5.0302,5.0302,5.0302,5.0302,5.0302,5.0302,5.0325,5.0325,5.0325,5.0803,5.1419,5.1497,5.1699,5.2049,5.2781,5.3167,5.3491,5.4278,5.4508,5.4677,5.5417,5.5637,5.5727,5.5847,5.592,5.5987,5.6047,5.6179,5.6338,5.6563,5.6606,5.6606,5.6606,5.6606,5.6606,5.6606,5.6606,5.6606,5.6606,5.6605,5.6595,5.6599,5.6601,5.6601,5.6601,5.6601,5.6601,5.6601,5.6601,5.6601,5.6601,5.6601,5.6601,5.6601,5.6601,5.6601,5.6601,5.7324,5.8125,5.8984,5.9805,6.0644,4.3841,4.3804,4.3749,4.3781,4.3912,4.4011,4.406,0.0,0.0,0.0,4.4277,4.4306,4.4317,4.4402,0.0,4.4522,4.4979,4.5334,4.5342,4.6184,0.0,4.6758,4.7129,4.7742,0.0,4.8685,4.9026,4.9822,4.9898,4.9898,4.9898,4.9898,4.9898,4.9898,4.9898,4.9898,4.9898,4.9898,4.9898,4.9898,4.9898,4.9952,5.0095,5.0158,5.0215,5.0236,5.0278,5.0302,5.0302,5.0302,5.0302,5.0302,5.0302,5.0302,5.0302,5.0302,5.0302,5.0359,5.0818,5.1257,5.1754,5.2666,5.3027,5.3234,5.3656,5.4145,5.465,5.5075,5.5249,5.5383,5.5824,5.5973,5.6024,5.6112,5.6251,5.6359,5.6435,5.6471,5.6509,5.6533,5.6582,5.6606,5.6606,5.6606,5.6606,5.6606,5.6606,5.6606,5.6606,5.6598,5.6591,5.6597,5.6599,5.6601,5.6601,5.6601,5.6601,5.6601,5.6601,5.6601,5.6601,5.6601,5.6601,5.6601,5.6601,5.6601,5.6601,5.7461,5.8359,5.9219,6.0039,6.0879,4.341,4.3355,4.3334,4.3477,4.3545,4.3646,4.3749,4.3846,0.0,0.0,4.3923,4.3986,4.3999,4.4102,4.4229,0.0,4.519,4.5811,4.6008,4.6838,4.746,0.0,4.7775,0.0,4.884,4.8897,0.0,4.9787,4.9871,4.9898,4.9898,4.9898,4.9898,4.9898,4.9898,4.9898,4.9898,4.9898,4.9898,4.9898,4.9898,4.9978,5.0108,5.0146,5.022,5.0302,5.0302,5.0302,5.0302,5.0302,5.0302,5.0302,5.0302,5.0302,5.0302,5.0302,5.0417,5.0684,5.1429,5.1888,5.2346,5.3607,5.4145,5.4315,5.4488,5.5097,5.5703,5.5703,5.5745,5.5787,5.5846,5.5866,5.5902,5.5988,5.6121,5.6286,5.6368,5.6422,5.6491,5.6497,5.6533,5.6582,5.6582,5.6582,5.6606,5.6606,5.6606,5.6606,5.6606,5.6595,5.6602,5.661,5.6597,5.66,5.6601,5.6601,5.6601,5.6601,5.6601,5.6601,5.6601,5.6601,5.6601,5.6601,5.6601,5.6601,5.6601,5.7285,5.8164,5.9219,6.0215,6.1055,4.3232,4.3232,4.3232,4.3232,4.3286,4.3338,4.3338,0.0,0.0,4.3566,4.3548,4.3582,4.3612,4.3712,4.405,0.0,0.0,4.5832,4.6663,4.7391,4.7956,4.8258,0.0,0.0,4.9521,4.9579,4.9617,4.9634,4.975,4.9835,4.9898,4.9898,4.9898,4.9898,4.9898,4.9898,4.9898,4.9898,4.9898,4.9898,4.9898,4.9978,5.0108,5.0108,5.0182,5.0302,5.0302,5.0302,0.0,5.0302,5.0302,5.0302,5.0302,5.0302,5.0302,5.0302,5.0799,5.1544,5.1849,5.2805,5.3855,5.3779,5.3986,5.443,5.5178,5.5538,5.5703,5.5703,5.5684,5.5724,5.5724,5.5766,5.5847,5.5958,5.6056,5.616,5.6271,5.6368,5.6435,5.6496,5.6511,5.6509,5.6509,5.6558,5.6606,5.6606,5.6606,5.6606,5.6606,5.6606,5.6591,5.6602,5.6595,5.66,5.6601,5.6601,5.6601,5.6601,5.6601,5.6601,5.6601,5.6601,5.6601,5.6601,5.6601,5.6601,5.6601,5.668,5.7578,5.9238,6.084,6.1621,4.2995,4.3013,4.3013,4.3013,4.3087,4.3178,4.3178,0.0,4.3304,4.3304,4.3304,4.3339,4.3356,4.3408,4.3734,0.0,0.0,0.0,4.7084,4.8065,4.8739,4.8877,4.9202,0.0,0.0,0.0,4.9365,4.9402,4.9525,4.9566,4.9596,4.9797,4.9898,4.9898,4.9898,4.9898,4.9898,4.9898,4.9898,4.9898,4.9898,4.9978,5.0108,5.0108,5.0182,5.0302,5.0302,5.0302,0.0,5.0302,5.0302,5.0302,5.0302,5.0302,5.0378,5.1066,5.11,5.1018,5.2494,5.3143,5.3467,5.4403,5.4823,5.5035,5.5384,5.5593,5.5698,5.5703,5.5703,5.5703,5.5703,5.5724,5.5766,5.5866,5.594,5.6007,5.6156,5.6265,5.6347,5.6369,5.6441,5.6498,5.6498,5.6517,5.6533,5.6533,5.6563,5.6606,5.6606,5.6606,5.661,5.6602,5.6591,5.6598,5.66,5.6601,5.6601,5.6601,5.6601,5.6601,5.6601,5.6601,5.6601,5.6601,5.7265,5.7539,5.7383,5.8398,5.9238,5.9941,6.1133,6.1699,4.2882,4.2882,4.2882,4.2882,4.2994,4.3049,0.0,0.0,4.3123,4.3123,4.3123,4.3123,4.3123,4.3379,4.3871,0.0,0.0,4.6744,4.7609,4.8481,4.9038,0.0,0.0,4.899,4.9057,4.9023,4.9023,4.916,4.9257,4.9302,4.9302,4.9548,4.9693,4.9816,4.9816,4.9843,4.9871,4.9871,4.9871,4.9898,4.9898,4.9978,5.0108,5.0108,5.0182,5.0302,5.0302,5.0302,0.0,5.0302,5.0302,5.0302,5.0302,5.0302,5.0436,5.1582,5.1577,5.1324,5.3473,5.3907,5.3773,5.5021,5.539,5.5402,5.5456,5.5566,5.5714,5.5698,5.5703,5.5703,5.5703,5.5703,5.5724,5.5766,5.5808,5.5903,5.6014,5.6141,5.622,5.6251,5.6349,5.6444,5.6472,5.6498,5.6503,5.6509,5.6558,5.6606,5.6606,5.6606,5.661,5.6595,5.6605,5.6593,5.6599,5.6601,5.6601,5.6601,5.6601,5.6601,5.6601,5.6601,5.6758,5.7109,5.8066,5.8711,5.9023,6.0215,6.0781,6.0801,6.1406,6.1699,4.2882,4.2882,4.2882,4.2882,4.2882,4.2882,0.0,0.0,4.2882,4.2882,4.2882,4.2882,4.2882,4.3666,4.454,4.534,4.6353,0.0,4.8346,4.8495,4.8655,0.0,0.0,4.8507,4.8531,4.855,4.8714,4.8909,4.8959,4.9023,4.9104,4.9104,4.9252,4.9574,4.9604,4.9663,4.9807,4.9807,4.9816,4.9898,4.9898,4.9978,5.0108,5.0108,5.0182,5.0302,5.0302,5.0302,0.0,5.0302,5.0302,5.0302,5.0302,5.0302,5.0436,5.1582,5.2327,5.3015,5.4784,5.5371,5.5384,5.5403,5.5403,5.5384,5.5402,5.5542,5.5692,5.5692,5.5698,5.5703,5.5703,5.5703,5.5703,5.5703,5.5745,5.5826,5.5885,5.596,5.6026,5.6087,5.622,5.6325,5.6378,5.6469,5.6511,5.6503,5.6558,5.6606,5.6606,5.6606,5.6606,5.6606,5.6595,5.6607,5.6598,5.6599,5.66,5.6601,5.6601,5.6601,5.6601,5.6601,5.7129,5.8262,5.8887,6.0019,6.166,6.168,6.1699,6.1699,6.1699,6.1699,4.2882,4.2882,4.2882,4.2882,4.2882,4.2882,4.2882,0.0,4.2882,4.2882,4.2882,4.2882,4.2882,4.359,4.4445,4.5222,4.6157,0.0,0.0,0.0,0.0,4.8549,4.8345,4.8216,0.0,0.0,4.8363,4.8401,4.8495,4.8514,4.8532,4.8532,4.8783,4.9252,4.9352,4.9402,4.9464,4.9506,4.9585,4.9692,4.9692,4.9788,4.9978,4.9978,5.0063,5.0212,5.0212,5.0255,5.0302,5.0302,5.0302,5.0302,5.0302,5.0302,5.0474,5.1983,5.2924,5.3613,5.495,5.5403,5.5403,5.5403,5.5403,5.5403,5.5409,5.549,5.5589,5.5679,5.5703,5.5703,5.5703,5.5703,5.5703,5.5703,5.5724,5.5745,5.5826,5.5866,5.5941,5.5956,5.6071,5.6174,5.6246,5.6358,5.6453,5.6496,5.6511,5.6533,5.6533,5.6563,5.6606,5.6606,5.661,5.6598,5.6607,5.6597,5.6599,5.66,5.6601,5.6601,5.6601,5.6601,5.7051,5.8008,5.8808,5.9726,6.0801,6.1406,6.1699,6.1699,6.1699,6.1699,0.0,4.2882,4.2882,4.2882,4.2882,0.0,0.0,4.2882,4.2882,4.2882,4.2882,4.2882,4.2882,4.3806,4.4711,4.5218,4.6291,4.728,0.0,0.0,0.0,4.8141,0.0,0.0,0.0,4.7988,4.8087,4.8087,4.813,4.819,4.819,4.819,4.8345,4.8676,4.8922,4.9061,4.9127,4.9225,4.9302,4.9415,4.9464,4.9585,4.975,4.9843,4.9978,5.0163,5.0188,5.0255,0.0,5.0302,5.0302,5.0302,5.0302,5.0302,5.0493,5.2174,5.3058,5.3555,5.4925,5.5403,5.5403,5.5403,5.5403,5.5403,5.5409,5.5446,5.5566,5.5638,5.5682,5.5703,5.5703,5.5703,5.5703,5.5703,5.5703,5.5724,5.5745,5.5806,5.5827,5.5847,5.5958,5.6059,5.6141,5.6265,5.6377,5.6446,5.6464,5.6464,5.6509,5.6558,5.6606,5.6606,5.6606,5.6606,5.6595,5.6607,5.6597,5.6599,5.6601,5.6601,5.6601,5.6914,5.75,5.8379,5.9219,6.0058,6.0898,6.1445,6.1699,6.1699,6.1699,6.1699,0.0,4.2882,0.0,0.0,0.0,0.0,0.0,0.0,0.0,4.2882,4.2882,4.2882,4.2882,4.4222,4.5291,4.5291,4.6649,4.7759,0.0,4.7879,0.0,0.0,4.777,0.0,4.7699,4.7801,4.7879,4.7879,4.7947,4.7992,4.7992,4.7992,4.7992,4.7992,4.8326,4.8642,4.8839,4.8925,4.899,4.9052,4.9174,4.9302,4.9469,4.9655,4.9871,0.0,5.0158,5.0231,5.0278,5.0302,5.0302,5.0302,5.0302,5.0302,5.0493,5.2174,5.2805,5.3053,5.4811,5.5403,5.5403,5.5403,5.5403,5.5384,5.5402,5.5495,5.5581,5.5593,5.564,5.5684,5.5703,5.5703,5.5703,5.5703,5.5703,5.5703,5.5703,5.5703,5.5724,5.5787,5.5846,5.5923,5.6046,5.619,5.6297,5.6388,5.6402,5.6426,5.6484,5.6558,5.6606,5.6586,5.6606,5.6606,5.6606,5.6595,5.6607,5.6598,5.6599,5.66,5.6601,5.7441,5.8301,5.918,6.0058,6.0898,6.1699,6.1699,6.1699,6.1699,6.1699,6.1699,4.2882,0.0,4.2882,4.2882,4.2882,4.2882,0.0,0.0,0.0,0.0,0.0,4.2882,4.2882,4.4222,4.5291,4.5291,4.6649,4.7717,4.7759,0.0,0.0,4.7759,4.7741,4.7681,4.7699,4.7717,4.7759,4.7759,4.7741,4.7783,4.7783,4.7783,4.7783,4.7783,4.7947,4.8148,4.8363,4.842,4.8514,4.855,4.8605,4.8748,4.9061,4.9188,4.942,4.9731,4.9906,5.0057,5.0158,5.0188,5.0212,5.0231,5.0278,5.0302,5.0493,5.2174,5.2805,5.3053,5.4811,5.5403,5.5403,5.5403,5.5403,5.5403,5.5409,5.5421,5.5476,5.5573,5.5618,5.566,5.5703,5.5703,5.5703,5.5703,5.5703,5.5703,5.5703,5.5703,5.5684,5.5724,5.5766,5.5808,5.5788,5.5932,5.6136,5.6298,5.6416,5.6483,5.6508,5.6569,5.6572,5.6533,5.6563,5.6606,5.6606,5.6595,5.6602,5.6607,5.6597,5.6599,5.66,5.7441,5.8301,5.918,6.0644,6.1504,6.1699,6.1699,6.1699,6.1699,6.1699,6.1699,4.2882,4.2882,4.2882,4.2882,4.2882,4.2882,4.2882,0.0,0.0,0.0,0.0,4.3009,4.3371,4.4458,4.5417,4.5798,4.6902,0.0,0.0,0.0,4.7717,4.7717,4.7717,4.7717,0.0,4.7717,4.7717,4.7717,4.7717,4.7717,4.7717,4.7717,4.7717,4.7717,4.7759,4.7884,4.8046,4.813,4.8172,4.821,4.8306,4.8458,4.8697,4.8853,4.9104,4.9469,4.9636,4.9824,4.9978,5.0082,5.0114,5.0114,5.0231,5.0236,5.0407,5.1773,5.248,5.2977,5.4333,5.5078,5.5403,5.5403,5.5403,5.5403,5.5403,5.5409,5.5421,5.5547,5.5573,5.5618,5.5662,5.5703,5.5703,5.5703,5.5703,5.5703,5.5703,5.5703,5.5703,5.5703,5.5724,5.5747,5.575,5.5884,5.6048,5.6145,5.6304,5.6416,5.6446,5.6503,5.6536,5.6509,5.6558,5.6606,5.6606,5.6591,5.6598,5.6602,5.661,5.6595,5.6599,5.7811,5.9082,6.0312,6.123,6.1699,6.1699,6.1699,6.1699,6.1699,6.1699,6.1699,4.2882,4.2882,4.2882,4.2882,4.2882,4.2882,4.2882,0.0,0.0,0.0,0.0,0.0,0.0,4.4747,0.0,0.0,0.0,0.0,4.7717,4.7717,4.7717,4.7717,4.7717,0.0,4.7717,4.7717,4.7717,4.7717,4.7717,4.7717,4.7717,4.7717,4.7717,4.7717,4.7717,4.7759,4.7861,4.7947,4.7951,4.7951,4.8068,4.8226,4.8437,4.855,4.8818,4.9193,4.9365,0.0,4.9731,4.9852,4.9952,4.9978,5.0114,5.0163,5.0278,5.1228,5.2073,5.2938,5.3951,5.4791,5.5403,5.5403,5.5403,5.5403,5.5403,5.5403,5.5409,5.5476,5.5527,5.5596,5.5682,5.5703,5.5703,5.5703,5.5703,5.5703,5.5703,5.5703,5.5703,5.5703,5.5703,5.5724,5.5766,5.5885,5.5943,5.5952,5.6136,5.6285,5.6358,5.6433,5.6478,5.6478,5.6553,5.6602,5.6582,5.6586,5.661,5.6598,5.6602,5.6725,5.699,5.8416,5.9999,6.168,6.1699,6.1699,6.1699,6.1699,6.1699,6.1699,6.1699,6.1699,4.2882,4.2882,4.2882,4.2882,4.2882,4.2882,4.2882,0.0,0.0,0.0,0.0,0.0,0.0,4.4747,4.5562,0.0,0.0,4.7717,0.0,0.0,4.7717,4.7717,0.0,4.7717,4.7717,4.7717,4.7717,4.7717,4.7717,4.7717,4.7717,4.7717,4.7717,4.7717,4.7717,4.7717,4.7717,4.7741,4.7741,4.7741,4.7741,4.7842,4.7984,4.8132,4.8383,4.8731,0.0,4.9127,4.9384,4.9518,4.9636,4.9778,4.9952,5.0031,5.0152,5.1154,5.2024,5.2959,5.4613,5.5288,5.5403,5.5403,5.5403,5.5403,5.5403,5.5403,5.5384,5.5427,5.5456,5.5527,5.5673,5.5698,5.5703,5.5703,5.5703,5.5703,5.5703,5.5703,5.5703,5.5703,5.5703,5.5703,5.5724,5.5728,5.575,5.575,5.5932,5.6102,5.6207,5.6289,5.6357,5.6402,5.6524,5.6587,5.6509,5.6577,5.6606,5.6606,5.6598,5.7252,5.8748,5.906,5.9999,6.168,6.1699,6.1699,6.1699,6.1699,6.1699,6.1699,6.1699,6.1699,4.2842,4.2842,4.2842,4.2747,4.2824,4.2882,4.2882,0.0,0.0,0.0,0.0,0.0,0.0,0.0,4.5707,4.6957,0.0,4.7717,4.7717,4.7717,4.7717,0.0,0.0,4.7717,4.7717,4.7717,4.7717,4.7717,4.7717,4.7717,4.7717,4.7717,4.7717,4.7717,4.7717,4.7717,4.7717,4.7717,4.7717,4.7717,4.7717,4.7759,4.7902,4.7947,4.813,4.8401,0.0,4.875,4.894,4.9123,4.9302,4.9434,4.9636,4.9797,5.0096,5.1599,5.238,5.2952,5.4766,5.5403,5.5403,5.5403,5.5403,5.5403,5.5403,5.5403,5.5403,5.539,5.5451,5.5547,5.5669,5.5698,5.5703,5.5703,5.5703,5.5703,5.5703,5.5703,5.5703,5.5703,5.5703,5.5703,5.5703,5.5705,5.5708,5.5711,5.5769,5.5915,5.6126,5.6194,5.6289,5.6387,5.6484,5.6536,5.6509,5.6558,5.6606,5.6606,5.6595,5.7366,5.9073,5.9153,5.9957,6.1679,6.1698,6.1699,6.1699,6.1699,6.1699,6.1699,6.1699,6.1699,4.2822,4.2783,4.2745,4.2609,0.0,4.2862,4.2862,0.0,0.0,0.0,0.0,0.0,0.0,4.5617,0.0,4.7518,4.7717,4.7717,4.7717,4.7717,4.7717,4.7717,4.7717,4.7717,4.7717,4.7717,4.7717,4.7717,4.7717,4.7717,4.7717,4.7717,4.7717,4.7717,4.7717,4.7717,4.7717,4.7717,4.7717,4.7717,4.7717,4.7759,4.7861,4.7861,4.7925,4.8126,4.8284,4.8401,4.855,4.8785,4.8959,4.9113,4.9334,4.9548,4.9958,5.1665,5.2482,5.2933,5.4511,5.5205,5.5403,5.5403,5.5403,5.5403,5.5403,5.5403,5.5403,5.5403,5.544,5.5504,5.5608,5.5657,5.5682,5.5703,5.5703,5.5703,5.5703,5.5703,5.5703,5.5703,5.5703,5.5703,5.5703,5.5703,5.5705,5.5708,5.5711,5.5769,5.5973,5.6083,5.6194,5.6347,5.6444,5.6498,5.6503,5.6558,5.6606,5.6606,5.6595,5.7184,5.8456,5.8892,5.9915,6.1676,6.1697,6.1698,6.1699,6.1699,6.1699,6.1699,6.1699,6.1699,4.2783,4.2706,4.2609,4.2609,4.2688,0.0,4.2822,4.2842,0.0,4.2882,0.0,0.0,0.0,4.6522,4.7572,4.7681,4.7717,4.7717,4.7717,0.0,4.7717,4.7717,4.7717,4.7717,4.7717,4.7717,4.7717,4.7717,4.7717,4.7717,4.7717,4.7717,4.7717,4.7717,4.7717,4.7717,4.7717,4.7717,4.7717,4.7717,4.7717,4.7717,4.7699,4.7699,4.7801,4.7902,4.7943,4.8068,4.8344,4.8494,4.8642,4.8857,4.8993,4.9283,4.974,5.0733,5.179,5.2838,5.3779,5.4664,5.5403,5.5403,5.5403,5.5403,5.5403,5.5403,5.5403,5.5403,5.5396,5.5432,5.5504,5.5551,5.5618,5.5703,5.5703,5.5703,5.5703,5.5703,5.5703,5.5703,5.5703,5.5703,5.5703,5.5703,5.5703,5.5684,5.5708,5.5711,5.5731,5.5896,5.6067,5.6213,5.6395,5.6492,5.6503,5.6558,5.6606,5.6606,5.6606,5.6649,5.6777,5.8261,5.9927,6.167,6.1695,6.1697,6.1698,6.1699,6.1699,6.1699,6.1699,6.1699,4.2645,4.2566,4.2526,4.245,4.2508,0.0,0.0,4.2765,4.2842,4.2842,4.2862,0.0,0.0,0.0,4.6645,4.6199,4.7036,4.7434,4.6698,4.6248,4.6152,4.6519,4.6723,4.7054,4.7663,4.7717,4.7717,4.7717,4.7717,4.7717,4.7717,4.7717,4.7717,4.7717,4.7717,4.7717,4.7717,4.7717,4.7717,4.7717,4.7717,4.7717,4.7717,4.7717,4.7717,4.7759,4.7861,4.7984,4.8068,4.813,4.8324,4.8513,4.882,4.9127,4.9478,5.0549,5.1585,5.2607,5.3625,5.4561,5.5294,5.5358,5.5403,5.5403,5.5403,5.5403,5.5403,5.5403,5.5409,5.5415,5.5432,5.5527,5.5615,5.5676,5.5701,5.5703,5.5703,5.5703,5.5703,5.5703,5.5703,5.5703,5.5703,5.5703,5.5703,5.5703,5.5705,5.5708,5.5691,5.5769,5.5896,5.6117,5.6367,5.6515,5.6562,5.6597,5.6606,5.6606,5.6606,5.7074,5.8113,5.8757,5.9917,6.1662,6.1707,6.1692,6.1697,6.1698,6.1698,6.1699,6.1699,6.1699,4.2526,4.2463,4.2405,0.0,0.0,0.0,4.249,4.2609,4.2745,4.2745,4.2964,0.0,0.0,0.0,0.0,0.0,4.6284,4.6699,4.5988,4.4898,4.4522,4.5492,4.6026,4.6579,4.7181,4.7512,4.7717,4.7717,4.7717,4.7717,4.7717,4.7717,4.7717,4.7717,4.7717,4.7717,4.7717,4.7717,4.7717,4.7717,4.7717,4.7717,4.7717,4.7717,4.7717,4.7717,4.7819,4.7861,4.7902,4.7947,4.805,4.8229,4.8569,4.882,4.9101,4.9971,5.0953,5.201,5.3117,5.4063,5.4905,5.5262,5.5403,5.5403,5.5403,5.5403,5.5403,5.5403,5.5403,5.5403,5.5396,5.548,5.5593,5.5654,5.5679,5.5703,5.5703,5.5703,5.5703,5.5703,5.5703,5.5703,5.5703,5.5703,5.5703,5.5703,5.5703,5.5705,5.5708,5.5691,5.5788,5.6067,5.6286,5.6461,5.6524,5.6567,5.6563,5.6563,5.6582,5.7113,5.8265,5.9358,6.0475,6.1674,6.1697,6.1704,6.1694,6.1695,6.1698,6.1699,6.1699,6.1699,4.2503,4.2405,0.0,0.0,0.0,0.0,4.2287,4.245,4.2609,4.2609,0.0,4.3796,4.3796,4.4443,0.0,4.5771,4.5539,4.5425,4.5807,4.3799,4.2947,4.4761,4.575,4.6302,4.632,4.7127,4.7699,4.7717,4.7717,4.7717,4.7717,4.7717,4.7717,4.7717,4.7717,4.7717,4.7717,4.7717,4.7717,4.7717,4.7717,4.7717,4.7717,4.7717,4.7717,4.7717,4.7717,4.7777,4.7902,4.7902,4.7966,4.8032,4.8229,4.842,4.8623,4.8906,4.9795,5.1043,5.2068,5.3098,5.4161,5.5091,5.5403,5.5403,5.5403,5.5403,5.5403,5.5403,5.5403,5.5403,5.5403,5.5446,5.5527,5.5573,5.564,5.5703,5.5703,5.5703,5.5703,5.5703,5.5703,5.5703,5.5703,5.5703,5.5703,5.5703,5.5703,5.5703,5.5703,5.5708,5.5789,5.6071,5.6219,5.6329,5.6386,5.6459,5.6509,5.6509,5.6558,5.6606,5.6606,5.9866,6.1661,6.1681,6.1694,6.1697,6.1697,6.1694,6.1697,6.1697,6.1699,6.1699,4.2369,4.2328,0.0,4.2287,0.0,0.0,0.0,4.2427,0.0,0.0,4.2839,4.2938,4.2938,4.3048,0.0,4.3327,4.512,4.5713,4.3465,4.2392,4.2271,4.3533,4.4,4.47,4.5982,4.6477,4.6958,4.7518,4.7657,4.7717,4.7717,4.7717,4.7717,4.7717,4.7717,4.7717,4.7717,4.7717,4.7717,4.7717,4.7717,4.7717,4.7717,4.7717,4.7717,4.7717,4.7717,4.7717,4.7759,4.7861,4.7902,4.7925,4.805,4.819,4.8363,4.8623,4.9408,5.0534,5.1775,5.2834,5.3822,5.4909,5.5248,5.5294,5.5358,5.5403,5.5403,5.5403,5.5403,5.5403,5.5403,5.5396,5.5456,5.5504,5.5612,5.5698,5.5703,5.5703,5.5703,5.5703,5.5703,5.5703,5.5703,5.5703,5.5703,5.5703,5.5703,5.5703,5.5703,5.5767,5.5885,5.601,5.616,5.6275,5.6398,5.6469,5.6504,5.6503,5.6509,5.6792,5.7426,5.8421,5.9436,6.0471,6.1295,6.169,6.1697,6.1704,6.1692,6.1697,6.1698,6.1698,4.231,0.0,0.0,4.2287,4.2287,4.2287,4.2287,0.0,0.0,0.0,0.0,4.2489,4.2478,4.2388,0.0,4.2299,4.364,4.397,4.1876,4.1394,4.156,4.2273,4.2785,4.3527,4.4662,4.5523,4.6288,4.6859,4.7263,4.7529,4.7615,4.7615,4.7657,4.7717,4.7717,4.7717,4.7717,4.7717,4.7717,4.7717,4.7717,4.7717,4.7717,4.7717,4.7717,4.7717,4.7717,4.7717,4.7717,4.7777,4.7819,4.7819,4.7907,4.7988,4.8126,4.8363,4.8901,4.9672,5.09,5.2033,5.3116,5.4211,5.4863,5.5229,5.5294,5.5358,5.5403,5.5403,5.5403,5.5403,5.5403,5.5409,5.5421,5.5456,5.5566,5.5695,5.566,5.5662,5.5703,5.5703,5.5703,5.5703,5.5703,5.5703,5.5703,5.5703,5.5703,5.5703,5.5703,5.5787,5.5885,5.5941,5.6059,5.616,5.6283,5.6378,5.6433,5.6464,5.6491,5.6748,5.726,5.7621,5.8226,5.9104,6.0139,6.0846,6.1186,6.119,6.1352,6.1692,6.1695,6.1698,4.2287,0.0,0.0,4.2287,4.2287,0.0,4.2287,4.2269,4.2246,4.227,0.0,4.2203,4.2167,4.2141,4.2141,4.2079,4.156,4.1021,4.0812,4.0763,4.0828,4.1082,4.1922,4.2587,4.2828,4.4324,4.5454,4.5899,4.6597,4.7196,4.7407,4.7468,4.7529,4.7675,4.7657,4.7657,4.7657,4.7657,4.7699,4.7717,4.7717,4.7717,4.7717,4.7717,4.7717,4.7717,4.7717,4.7717,4.7717,4.7717,4.7717,4.7717,4.7819,4.7861,4.7902,4.8087,4.8324,4.8698,4.9798,5.0918,5.2095,5.3183,5.4249,5.5061,5.5164,5.5294,5.5384,5.5403,5.5403,5.5403,5.5403,5.5403,5.5384,5.5402,5.5519,5.565,5.5634,5.566,5.5703,5.5703,5.5703,5.5703,5.5703,5.5703,5.5703,5.5703,5.5703,5.5703,5.5703,5.5745,5.5826,5.5885,5.5941,5.601,5.6087,5.6207,5.6308,5.6378,5.6445,5.6484,5.6503,5.726,5.7699,5.7699,5.8538,5.9378,6.0159,6.0245,6.0721,6.1541,6.1653,6.1697,4.2287,4.2287,0.0,0.0,4.2287,4.2287,4.2163,4.1943,4.1795,4.2032,4.1747,4.14,4.1236,4.1033,4.0802,4.0597,4.0452,4.0277,4.0058,4.0044,4.0146,4.0451,4.0717,4.1267,4.2129,4.2771,4.3768,4.5194,4.5701,4.6257,4.688,4.707,4.7178,4.7312,4.733,4.7399,4.7554,4.7554,4.7615,4.7717,4.7717,4.7717,4.7717,4.7717,4.7717,4.7717,4.7717,4.7717,4.7717,4.7717,4.7717,4.7699,4.7717,4.7759,4.7759,4.7902,4.8028,4.8281,4.9473,5.0153,5.0841,5.2666,5.3558,5.4021,5.4857,5.5176,5.5248,5.5358,5.5403,5.5403,5.5403,5.5403,5.5403,5.5409,5.5421,5.5495,5.5662,5.5689,5.5695,5.5695,5.5701,5.5703,5.5703,5.5703,5.5703,5.5703,5.5703,5.5703,5.5703,5.5724,5.5745,5.5807,5.5885,5.5941,5.601,5.6102,5.6187,5.6314,5.6388,5.6453,5.6503,5.6723,5.686,5.686,5.766,5.8168,5.8363,5.9046,5.9718,6.0389,6.1271,6.1709,4.2139,0.0,0.0,4.2048,0.0,4.2005,4.1909,4.1586,4.1358,4.1481,4.1236,4.0963,4.0591,4.0284,4.0075,3.9941,3.9878,3.9764,3.9649,3.9682,3.9851,3.9969,4.0121,4.0407,4.1047,4.1619,4.2396,4.3423,4.4445,4.5216,4.5716,4.6312,4.6666,4.676,4.6916,4.707,4.7249,4.7294,4.7399,4.7511,4.7554,4.7657,4.7717,4.7717,4.7717,4.7717,4.7717,4.7717,4.7717,4.7717,4.7717,4.7717,4.7717,4.7717,4.7717,4.7759,4.7884,4.8043,4.8726,4.938,5.0155,5.1327,5.2188,5.298,5.404,5.4448,5.468,5.5153,5.5358,5.5403,5.5403,5.5403,5.5403,5.5403,5.5396,5.5427,5.5533,5.5581,5.5631,5.5692,5.5695,5.5701,5.5703,5.5703,5.5703,5.5703,5.5703,5.5703,5.5703,5.5703,5.5724,5.5745,5.5787,5.5827,5.5904,5.5975,5.6056,5.6199,5.6302,5.6368,5.6407,5.651,5.6542,5.6558,5.6992,5.7426,5.7797,5.8265,5.8855,5.9581,6.0467,6.0884,4.1858,0.0,4.171,4.171,4.1683,0.0,4.1515,4.1206,4.0948,4.0816,4.0839,4.0695,4.0212,3.9897,3.973,3.9649,3.9597,3.9495,3.9443,3.9577,3.9625,3.9625,3.9729,3.9833,3.9969,4.0663,4.1274,4.1644,4.2979,4.3922,4.4193,4.5224,4.586,4.5971,4.6341,4.6637,4.6842,4.698,4.7116,4.7232,4.7363,4.7511,4.7675,4.7675,4.7657,4.7717,4.7717,4.7717,4.7717,4.7717,4.7717,4.7717,4.7717,4.7717,4.7717,4.7717,4.7759,4.7902,4.7947,4.8632,4.9547,4.9879,5.077,5.1845,5.2881,5.347,5.4001,5.4775,5.5153,5.5358,5.5403,5.5403,5.5403,5.5403,5.539,5.5402,5.5402,5.5432,5.5523,5.5627,5.5692,5.5695,5.5703,5.5703,5.5703,5.5703,5.5703,5.5703,5.5703,5.5703,5.5703,5.5703,5.5703,5.5724,5.5766,5.5847,5.594,5.6065,5.6185,5.6258,5.6255,5.6369,5.6449,5.6465,5.6548,5.6914,5.7577,5.7577,5.7953,5.8675,5.9175,5.9413,0.0,0.0,4.13,0.0,4.1237,4.1174,0.0,0.0,4.0414,0.0,4.0514,4.0577,4.0303,4.0037,3.9782,3.9556,3.9504,3.9451,3.9345,3.9362,3.9325,3.9325,3.9379,3.9432,3.959,3.9761,4.0236,4.1032,4.1546,4.2074,4.274,4.3614,4.4251,4.4576,4.5234,4.5837,4.6284,4.6429,4.6637,4.687,4.7133,4.7356,4.7511,4.7511,4.7615,4.7717,4.7717,4.7717,4.7717,4.7717,4.7717,4.7717,4.7717,4.7717,4.7717,4.7717,4.7717,4.7759,4.7861,4.8061,4.8407,4.9281,4.988,5.0466,5.1593,5.2674,5.3562,5.3954,5.4642,5.5248,5.5358,5.5403,5.5403,5.5403,5.5403,5.5384,5.5384,5.5396,5.5408,5.5451,5.5585,5.5695,5.5703,5.5703,5.5703,5.5703,5.5703,5.5703,5.5703,5.5703,5.5703,5.5703,5.5703,5.5684,5.5724,5.5787,5.5866,5.5923,5.5995,5.6075,5.6132,5.6214,5.6275,5.6339,5.6457,5.6575,5.6665,5.6665,5.6753,5.6938,5.7016,5.7044,4.071,4.071,4.0662,0.0,4.058,4.0514,4.05,0.0,4.0085,4.007,4.0037,3.9969,3.9849,3.9746,3.959,3.9448,3.9395,3.9379,3.9325,3.9272,3.9272,3.9272,3.9272,3.9325,3.9379,3.9432,3.9601,4.0041,4.0637,4.1096,4.1415,4.2337,4.2904,4.3062,4.3544,4.4113,4.4836,4.5125,4.5649,4.6495,4.6637,4.6684,4.6542,4.6654,4.7078,4.7717,4.7717,4.7717,4.7717,4.7717,4.7717,4.7717,4.7717,4.7717,4.7717,4.7717,4.7717,4.7717,4.7759,4.7842,4.8002,4.8513,4.882,4.927,5.0445,5.1256,5.2052,5.3318,5.4068,5.4604,5.5153,5.5339,5.5403,5.5403,5.5403,5.5403,5.5403,5.5409,5.5396,5.5383,5.5562,5.5714,5.5698,5.5701,5.5703,5.5703,5.5703,5.5703,5.5703,5.5703,5.5703,5.5703,5.5703,5.5703,5.5703,5.5724,5.5766,5.5846,5.5923,5.5959,5.599,5.6052,5.6093,5.6135,5.6329,5.6449,5.6498,5.6498,5.653,5.6542,5.6542,5.6533,0.0,0.0,4.0138,4.002,3.9986,3.9986,0.0,0.0,3.9798,0.0,3.959,3.9448,3.9448,3.9448,3.9448,3.9325,3.9272,3.9272,3.9272,3.9272,3.9272,3.9272,3.9272,3.9272,3.9272,3.9272,3.9272,3.9272,3.9877,4.0284,4.0284,4.1184,4.1678,4.1732,4.2098,4.2613,4.3386,4.3666,4.4369,4.5425,4.554,4.5529,4.541,4.5656,4.6194,4.7078,4.7319,4.7409,4.7428,4.7627,4.7717,4.7717,4.7717,4.7717,4.7717,4.7717,4.7717,4.7717,4.7717,4.7759,4.7861,4.7888,4.805,4.8378,4.9289,4.9963,5.068,5.2291,5.311,5.3688,5.4615,5.4962,5.5091,5.5345,5.5403,5.5403,5.5403,5.5403,5.5409,5.5402,5.5519,5.5646,5.565,5.5657,5.5662,5.5662,5.5703,5.5703,5.5703,5.5703,5.5703,5.5703,5.5703,5.5703,5.5703,5.5703,5.5724,5.5766,5.5807,5.5847,5.5885,5.5919,5.5954,5.5968,5.6168,5.6328,5.6416,5.6435,5.6453,5.6464,5.6464,5.6478,0.0,3.9729,0.0,3.9729,3.9729,0.0,0.0,0.0,3.9501,3.9501,3.9379,3.9325,3.9325,3.9325,3.9325,3.9272,3.9272,3.9272,3.9272,3.9272,3.9272,3.9272,3.9272,3.9272,3.9272,3.9272,3.9272,3.9272,3.9358,3.9392,3.9392,4.0088,4.0541,4.0671,4.1355,4.1887,4.2176,4.2462,4.2826,4.3264,4.3412,4.378,4.4396,4.4599,4.491,4.5405,4.621,4.6558,4.6631,4.7391,4.7717,4.7717,4.7717,4.7717,4.7717,4.7717,4.7717,4.7717,4.7717,4.7699,4.7717,4.7699,4.7801,4.7943,4.8148,4.9066,5.0098,5.053,5.1499,5.2617,5.3696,5.4032,5.4294,5.5186,5.5403,5.5403,5.5403,5.5403,5.5409,5.5402,5.5465,5.5509,5.5523,5.5551,5.5596,5.5596,5.5662,5.5703,5.5703,5.5703,5.5703,5.5703,5.5703,5.5703,5.5703,5.5703,5.5703,5.5684,5.5724,5.5745,5.5807,5.5807,5.5827,5.5902,5.5921,5.602,5.6226,5.6283,5.6347,5.6417,5.6417,5.6435,0.0,0.0,0.0,3.9415,3.9415,3.9415,3.9415,3.9432,3.9379,3.9379,3.9325,3.9272,3.9272,3.9272,3.9272,3.9272,3.9272,3.9272,3.9272,3.9272,3.9272,3.9272,3.9272,3.9272,3.9272,3.9272,3.9272,3.9272,3.9272,3.9272,3.9272,3.952,3.9723,3.9761,4.0026,4.0484,4.1151,4.1728,4.2162,4.2447,4.2672,4.2802,4.2929,4.3296,4.3462,4.3404,4.4439,4.5192,4.5743,4.6051,4.6468,4.6939,4.6939,4.7265,4.7717,4.7717,4.7717,4.7717,4.7717,4.7717,4.7717,4.7717,4.7717,4.7783,4.7992,4.8394,4.8992,4.9982,5.0675,5.1393,5.2579,5.2976,5.3346,5.4327,5.5002,5.5403,5.5403,5.5403,5.5403,5.539,5.5421,5.5427,5.5432,5.5504,5.5527,5.5527,5.5596,5.566,5.566,5.5662,5.5703,5.5703,5.5703,5.5703,5.5703,5.5703,5.5703,5.5703,5.5703,5.5724,5.5745,5.5745,5.5745,5.5767,5.5808,5.5921,5.6063,5.6097,5.6141,5.6201,5.6246,5.6283,3.9272,0.0,0.0,0.0,0.0,3.9272,3.9272,3.9272,3.9272,3.9272,3.9272,3.9272,3.9272,3.9272,3.9272,3.9272,3.9272,3.9272,3.9272,3.9272,3.9272,3.9272,3.9272,3.9272,3.9272,3.9272,3.9272,3.9272,3.9272,3.9272,3.9272,3.9272,3.9272,3.9272,3.9272,3.9557,4.0147,4.0646,4.0988,4.1225,4.149,4.1563,4.1561,4.2096,4.222,4.2163,4.3005,4.3931,4.4889,4.52,4.5617,4.6124,4.6395,4.683,4.7337,4.7609,4.7717,4.7717,4.7717,4.7717,4.7717,4.7717,4.7717,4.7699,4.7847,4.7992,4.8263,4.9178,4.9633,5.016,5.1374,5.2125,5.2836,5.3843,5.4518,5.5014,5.5345,5.5403,5.5403,5.5403,5.539,5.5396,5.5396,5.5451,5.548,5.548,5.5527,5.5573,5.5596,5.564,5.5682,5.5703,5.5703,5.5703,5.5703,5.5703,5.5703,5.5703,5.5703,5.5703,5.5703,5.5703,5.5703,5.5703,5.5745,5.5808,5.5901,5.5937,5.599,5.604,5.6091,5.6102,0.0,0.0,0.0,0.0,0.0,0.0,3.9272,0.0,3.9272,3.9272,3.9272,3.9272,3.9272,3.9272,3.9272,3.9272,3.9272,3.9272,3.9272,3.9272,3.9272,3.9272,3.9272,3.9272,3.9272,3.9272,3.9272,3.9272,3.9272,3.9272,3.9272,3.9272,3.9272,3.9272,3.9272,3.9272,3.9272,3.9272,3.9379,3.9501,3.9746,4.007,4.04,4.0943,4.1373,4.1709,4.1959,4.2798,4.401,4.4871,4.5236,4.5345,4.6124,4.645,4.6558,4.7373,4.7663,4.7681,4.7699,4.7717,4.7717,4.7717,4.7717,4.7717,4.7717,4.7847,4.7992,4.8075,4.8365,4.895,5.0141,5.1458,5.2699,5.367,5.3925,5.4218,5.5148,5.5365,5.5384,5.5403,5.5403,5.5403,5.5403,5.5396,5.5408,5.5408,5.5456,5.5527,5.5596,5.5596,5.5618,5.5684,5.5703,5.5703,5.5703,5.5703,5.5703,5.5703,5.5703,5.5703,5.5703,5.5703,5.5703,5.5703,5.5703,5.5703,5.5703,5.5826,5.5885,5.5884,5.5884,5.5919,3.9272,0.0,0.0,0.0,0.0,0.0,0.0,0.0,3.9272,3.9272,3.9202,3.9094,3.9094,3.8969,3.8931,3.8931,3.9148,3.9272,3.9272,3.9272,3.9272,3.9272,3.9272,3.9272,3.9272,3.9272,3.9272,0.0,3.9272,3.9272,3.9272,3.9272,3.9272,3.9272,3.9272,3.9272,3.9272,3.9272,3.9325,3.9379,3.9537,3.9729,4.007,4.0417,4.0802,4.1065,4.1525,4.1972,4.2363,4.2969,4.3678,4.4375,4.4592,4.5066,4.5725,4.654,4.683,4.692,4.7518,4.7717,4.7717,4.7717,4.7717,4.7717,4.7717,4.7741,4.7806,4.7992,4.8153,4.8439,4.9266,5.0347,5.1385,5.1792,5.2433,5.3191,5.418,5.4397,5.4587,5.5288,5.5403,5.5403,5.5403,5.5384,5.5409,5.5409,5.5421,5.5456,5.5527,5.5573,5.5618,5.5684,5.5703,5.5703,5.5703,5.5703,5.5703,5.5703,5.5703,5.5703,5.5703,5.5703,5.5703,5.5703,5.5703,5.5703,5.5703,5.5745,5.5766,5.5747,5.5807,5.5866,0.0,0.0,0.0,0.0,0.0,0.0,3.9094,3.9094,3.9094,0.0,3.8969,3.886,3.886,3.8623,3.8511,3.8511,3.8623,3.8805,3.904,3.9094,3.9094,3.9094,3.9148,3.9148,3.9148,3.9272,3.9272,3.9272,3.9272,3.9272,3.9272,3.9272,3.9272,3.9272,3.9272,3.9272,3.9272,3.9272,3.9272,3.9272,3.9448,3.9606,3.9746,4.0054,4.0286,4.0531,4.0901,4.1163,4.1338,4.1666,4.2436,4.3466,4.3866,4.4343,4.4892,4.5707,4.6214,4.6576,4.7047,4.7428,4.7717,4.7717,4.7717,4.7717,4.7717,4.7717,4.7699,4.7847,4.7974,4.8212,4.8765,4.9477,5.0203,5.0816,5.1443,5.2142,5.3153,5.3689,5.4275,5.5205,5.5403,5.5403,5.5403,5.5403,5.5403,5.5403,5.539,5.5402,5.5456,5.5527,5.5573,5.564,5.5662,5.5703,5.5703,5.5703,5.5703,5.5703,5.5703,5.5703,5.5703,5.5703,5.5703,5.5703,5.5703,5.5703,5.5703,5.5703,5.5703,5.5703,5.5745,5.5787,0.0,0.0,0.0,0.0,0.0,0.0,3.8805,3.875,3.875,0.0,3.8567,3.8455,3.8455,3.823,3.7985,3.7985,3.787,3.7985,3.8623,3.8694,3.875,3.8733,3.886,3.8969,3.9023,3.9148,3.9272,3.9272,3.9272,3.9272,3.9272,3.9272,3.9272,3.9272,3.9272,3.9272,3.9272,3.9272,3.9272,3.9272,3.9448,3.9501,3.9501,3.9746,3.9935,4.0037,4.0188,4.0419,4.0754,4.0913,4.1596,4.2602,4.344,4.383,4.402,4.4834,4.5635,4.625,4.6341,4.6902,4.7572,4.7572,4.7645,4.7717,4.7717,4.7717,4.7717,4.7717,4.787,4.8153,4.8439,4.8713,4.921,5.0316,5.067,5.1073,5.2096,5.3031,5.3963,5.4893,5.5243,5.5403,5.5403,5.5403,5.5403,5.5403,5.5403,5.5409,5.5402,5.5456,5.5527,5.5615,5.5662,5.5703,5.5703,5.5703,5.5703,5.5703,5.5703,5.5703,5.5703,5.5703,5.5703,5.5703,5.5703,5.5703,5.5703,5.5703,5.5703,5.5703,5.5703,5.5703,0.0,0.0,0.0,0.0,0.0,0.0,3.8455,3.8327,3.823,0.0,3.796,3.7801,3.7653,3.7476,3.7342,3.7147,3.7131,3.7326,3.7985,3.8173,3.8286,3.8383,3.8567,3.875,3.8969,3.9023,3.9148,3.9272,3.9272,3.9272,3.9272,3.9272,3.9272,3.9272,3.9272,3.9272,3.9272,3.9272,3.9272,3.9272,3.9325,3.9325,3.9325,3.9484,3.959,3.9642,3.9901,4.0087,4.0271,4.0676,4.1311,4.2086,4.2347,4.2624,4.3012,4.392,4.4357,4.4574,4.5287,4.6069,4.6739,4.6739,4.7174,4.7717,4.7717,4.7717,4.7717,4.7717,4.7801,4.7966,4.8072,4.8288,4.855,4.9004,4.9247,4.9701,5.0877,5.1357,5.1878,5.287,5.4325,5.5403,5.5403,5.5403,5.5403,5.5403,5.5403,5.5428,5.5484,5.5476,5.5547,5.5673,5.5701,5.5703,5.5703,5.5703,5.5703,5.5703,5.5703,5.5703,5.5703,5.5703,5.5703,5.5703,5.5703,5.5703,5.5703,5.5703,5.5703,5.5703,5.5703,5.5703,0.0,0.0,0.0,3.8623,0.0,0.0,0.0,3.7621,3.7445,3.7342,3.7178,3.6997,3.6815,3.6616,3.643,3.629,3.6212,3.6275,3.6723,3.7207,3.7562,3.7754,3.8059,3.8343,3.8511,3.8805,3.9094,3.9272,3.9272,3.9272,3.9272,3.9272,3.9272,3.9272,3.9272,3.9272,3.9272,3.9272,3.9272,3.9272,3.9272,3.9272,3.9272,3.9379,3.9379,3.9395,3.9537,3.9694,3.9833,4.0221,4.0659,4.1248,4.1856,4.2269,4.2566,4.3098,4.3592,4.4047,4.4505,4.5196,4.5906,4.5906,4.645,4.7102,4.7102,4.7391,4.7717,4.7717,4.7759,4.7801,4.7907,4.805,4.8229,4.8421,4.8677,4.9015,4.9744,5.0378,5.0975,5.1585,5.2864,5.4028,5.46,5.5026,5.5313,5.5403,5.5403,5.5403,5.5454,5.5446,5.548,5.5551,5.5634,5.5701,5.5703,5.5703,5.5703,5.5703,5.5703,5.5703,5.5703,5.5703,5.5703,5.5703,5.5703,5.5703,5.5703,5.5703,5.5703,5.5703,5.5703,5.5703,0.0,0.0,0.0,0.0,0.0,3.7578,0.0,0.0,0.0,3.6554,3.6368,3.618,3.6006,0.0,0.0,3.5559,0.0,0.0,0.0,3.6102,0.0,3.7013,3.7476,3.7828,3.8059,3.8623,3.904,3.9202,3.9218,3.9218,3.9218,3.9272,3.9272,3.9272,3.9272,3.9272,3.9272,3.9272,3.9272,3.9272,3.9272,3.9272,3.9272,3.9272,3.9272,3.9272,3.9272,3.9379,3.9484,3.9746,4.0054,4.0466,4.149,4.2044,4.2269,4.2432,4.3023,4.3718,4.3758,4.4343,4.5073,4.5073,4.5725,4.6504,4.6504,4.7065,4.7717,4.7717,4.7717,4.7717,4.7819,4.7907,4.7992,4.8169,4.8402,4.8641,4.8853,4.9594,5.0271,5.0485,5.139,5.2475,5.3674,5.4432,5.4993,5.5339,5.5396,5.5396,5.5403,5.5396,5.5413,5.5404,5.557,5.5695,5.5701,5.5703,5.5703,5.5703,5.5703,5.5703,5.5703,5.5703,5.5703,5.5703,5.5703,5.5703,5.5703,5.5703,5.5703,5.5703,5.5703,5.5703,0.0,0.0,0.0,0.0,3.7445,0.0,0.0,0.0,3.6022,3.5879,0.0,3.5479,0.0,0.0,0.0,0.0,0.0,0.0,3.5001,3.5052,3.5509,3.6476,3.7013,3.7476,3.7886,3.8455,3.886,3.886,3.8969,3.9023,3.9023,3.9202,3.9272,3.9272,3.9272,3.9272,3.9272,3.9272,3.9272,3.9272,3.9272,3.9272,3.9272,3.9272,3.9272,3.9272,3.9272,3.9325,3.9325,3.9625,3.9884,4.0221,4.0884,4.1363,4.1736,4.2019,4.2323,4.2615,4.2832,4.3511,4.424,4.424,4.5254,4.6504,4.6504,4.7065,4.7717,4.7717,4.7717,4.7699,4.7717,4.7717,4.7741,4.7884,4.801,4.819,4.8494,4.8733,4.8983,4.9172,5.0305,5.1701,5.3215,5.3537,5.3992,5.5222,5.5401,5.5408,5.5403,5.5396,5.5408,5.5389,5.5585,5.5692,5.5714,5.5701,5.5703,5.5703,5.5703,5.5703,5.5703,5.5703,5.5703,5.5703,5.5703,5.5703,5.5703,5.5703,5.5703,5.5703,5.5703,5.5703,0.0,0.0,0.0,0.0,0.0,0.0,3.5988,0.0,3.5474,0.0,0.0,0.0,0.0,0.0,0.0,0.0,3.4601,3.4683,0.0,0.0,3.5016,3.5668,0.0,0.0,3.7637,3.81,3.8455,3.8694,3.886,3.9023,3.9023,3.9202,3.9272,3.9272,3.9272,3.9272,3.9272,3.9272,3.9272,3.9272,3.9272,3.9272,3.9272,3.9272,3.9272,3.9272,3.9272,3.9272,3.9325,3.9484,3.9642,3.9781,4.0221,4.0789,4.1408,4.1719,4.1977,4.2269,4.2472,4.2904,4.3421,4.3951,4.4548,4.5182,4.5653,4.6377,4.7011,4.7011,4.7355,4.7717,4.7717,4.7717,4.7699,4.7759,4.7884,4.8006,4.8206,4.8363,4.855,4.8731,4.9259,4.9952,5.096,5.2885,5.4496,5.5113,5.5328,5.5401,5.5408,5.5403,5.5396,5.5408,5.5476,5.5562,5.5704,5.5692,5.5698,5.5698,5.5701,5.5703,5.5703,5.5703,5.5703,5.5703,5.5703,5.5703,5.5703,5.5703,5.5703,5.5703,5.5703,5.5703,3.8001,0.0,0.0,0.0,0.0,0.0,0.0,0.0,0.0,0.0,0.0,0.0,0.0,0.0,0.0,0.0,0.0,3.4481,0.0,3.4631,0.0,0.0,0.0,0.0,0.0,3.7695,3.8059,3.8399,3.8694,3.8914,3.8914,3.9148,3.9272,3.9272,3.9272,3.9272,3.9272,3.9272,3.9272,3.9272,3.9272,3.9272,3.9272,3.9272,3.9272,3.9272,3.9272,3.9272,3.9325,3.9395,3.9448,3.9501,3.9694,4.0221,4.0884,4.1255,4.1657,4.2044,4.2251,4.2552,4.2951,4.3588,4.3914,4.4204,4.4784,4.5526,4.6214,4.645,4.692,4.7428,4.7645,4.7717,4.7717,4.7717,4.7759,4.7902,4.8043,4.8072,4.8212,4.8476,4.8513,4.8677,4.9115,5.1528,5.3785,5.4876,5.518,5.5301,5.5401,5.5389,5.5403,5.5396,5.5383,5.547,5.5614,5.5604,5.5631,5.5708,5.5695,5.5698,5.5701,5.5701,5.5682,5.5703,5.5703,5.5703,5.5703,5.5703,5.5703,5.5703,5.5703,5.5703,0.0,0.0,0.0,3.6054,0.0,0.0,0.0,0.0,3.4698,0.0,0.0,0.0,0.0,0.0,0.0,0.0,0.0,0.0,0.0,0.0,0.0,0.0,0.0,0.0,0.0,3.7163,3.7578,3.7886,3.8343,3.8694,3.8805,3.9094,3.9272,3.9272,3.9272,3.9272,3.9272,3.9272,3.9272,3.9272,3.9272,3.9272,3.9272,3.9272,3.9272,3.9272,3.9272,3.9272,3.9272,3.9325,3.9379,3.9501,3.9501,3.9694,3.9986,4.0628,4.1202,4.1753,4.2187,4.2552,4.29,4.2918,4.3462,4.4095,4.4132,4.4693,4.549,4.6287,4.6522,4.6721,4.7518,4.7717,4.7717,4.7717,4.7699,4.7759,4.7861,4.782,4.7849,4.8224,4.8288,4.831,4.8329,4.9092,5.0858,5.4364,5.4909,5.5028,5.537,5.5408,5.5408,5.5403,5.5396,5.5408,5.5408,5.5399,5.5485,5.5677,5.5696,5.5704,5.5692,5.5692,5.5717,5.5703,5.5703,5.5703,5.5703,5.5703,5.5703,5.5703,5.5703,5.5703,0.0,0.0,3.5943,3.5509,0.0,0.0,0.0,0.0,0.0,0.0,0.0,0.0,0.0,0.0,0.0,0.0,0.0,0.0,0.0,0.0,3.4414,3.4549,0.0,0.0,0.0,0.0,3.6921,3.7417,3.7943,3.8399,3.8639,3.8914,3.9148,3.9272,3.9272,3.9272,3.9272,3.9272,3.9272,3.9272,3.9272,3.9272,3.9272,3.9272,3.9272,3.9272,3.9272,3.9272,3.9272,3.9272,3.9325,3.9379,3.9379,3.9484,3.9694,4.0271,4.0789,4.1373,4.2127,4.2552,4.2842,4.29,4.3063,4.3299,4.3299,4.386,4.4548,4.4838,4.5689,4.6558,4.6848,4.7301,4.7717,4.7717,4.7717,4.7717,4.7759,4.7733,4.7838,4.8196,4.8318,4.8286,4.8309,4.8514,4.9227,5.0694,5.1324,5.2424,5.4762,5.5252,5.5389,5.5396,5.5384,5.539,5.539,5.5408,5.5437,5.5504,5.5504,5.5485,5.5489,5.5489,5.5554,5.5618,5.5618,5.566,5.5703,5.5703,5.5703,5.5703,5.5703,5.5703,3.5958,3.5703,0.0,3.5082,3.4949,0.0,3.4631,0.0,3.4563,0.0,0.0,0.0,0.0,0.0,0.0,0.0,0.0,0.0,0.0,3.4414,0.0,0.0,0.0,0.0,0.0,3.5864,3.6368,3.6997,3.7578,3.8116,3.8544,3.8805,3.9077,3.9202,3.9272,3.9272,3.9272,3.9272,3.9272,3.9272,3.9272,3.9272,3.9272,3.9272,3.9272,3.9272,3.9272,3.9272,3.9272,3.9272,3.9272,3.9272,3.9272,3.9325,3.9484,3.9935,4.05,4.1192,4.1941,4.2414,4.2688,4.2842,4.2862,4.2862,4.2882,4.3244,4.3715,4.4023,4.4838,4.578,4.6359,4.6884,4.7355,4.7645,4.7717,4.7717,4.7717,4.7728,4.7775,4.8046,4.8221,4.8281,4.8286,4.8307,4.8366,4.8649,4.9179,5.0404,5.2813,5.33,5.396,5.5267,5.5408,5.5389,5.5415,5.5409,5.5402,5.5413,5.5394,5.5394,5.5399,5.5399,5.5466,5.5573,5.5573,5.5596,5.5662,5.5662,5.5682,5.5703,5.5703,5.5703]}]]